<?xml version="1.0" encoding="UTF-8" standalone="no" ?>
<gpx xmlns="http://www.topografix.com/GPX/1/1" xmlns:xsi="http://www.w3.org/2001/XMLSchema-instance" xsi:schemaLocation="http://www.topografix.com/GPX/1/1 http://www.topografix.com/GPX/1/1/gpx.xsd" version="1.1" creator="VisuGPX - https://www.visugpx.com">
  <metadata>
    <name>GRUN de Saint Maurice</name>
    <desc><![CDATA[un peu d'escalade, vigilance requise !!!]]></desc>
  </metadata>
  <trk>
    <name><![CDATA[2020-08-17 16-06-08]]></name>
    <trkseg>
      <trkpt lat="44.81619" lon="6.02548">
        <ele>1519.98</ele>
        <time>2020-08-17T06:45:11Z</time>
      </trkpt>
      <trkpt lat="44.81619" lon="6.02548">
        <ele>1518.54</ele>
        <time>2020-08-17T06:45:12Z</time>
      </trkpt>
      <trkpt lat="44.8162" lon="6.02556">
        <ele>1517.1</ele>
        <time>2020-08-17T06:45:18Z</time>
      </trkpt>
      <trkpt lat="44.81624" lon="6.02562">
        <ele>1520.46</ele>
        <time>2020-08-17T06:45:25Z</time>
      </trkpt>
      <trkpt lat="44.81625" lon="6.02562">
        <ele>1520.46</ele>
        <time>2020-08-17T06:45:26Z</time>
      </trkpt>
      <trkpt lat="44.81629" lon="6.0257">
        <ele>1517.58</ele>
        <time>2020-08-17T06:45:54Z</time>
      </trkpt>
      <trkpt lat="44.8163" lon="6.02572">
        <ele>1520.46</ele>
        <time>2020-08-17T06:45:59Z</time>
      </trkpt>
      <trkpt lat="44.81632" lon="6.02573">
        <ele>1522.87</ele>
        <time>2020-08-17T06:46:03Z</time>
      </trkpt>
      <trkpt lat="44.81632" lon="6.02575">
        <ele>1519.98</ele>
        <time>2020-08-17T06:46:25Z</time>
      </trkpt>
      <trkpt lat="44.81633" lon="6.02577">
        <ele>1519.5</ele>
        <time>2020-08-17T06:47:06Z</time>
      </trkpt>
      <trkpt lat="44.81636" lon="6.02576">
        <ele>1519.02</ele>
        <time>2020-08-17T06:47:19Z</time>
      </trkpt>
      <trkpt lat="44.81634" lon="6.02576">
        <ele>1519.02</ele>
        <time>2020-08-17T06:47:43Z</time>
      </trkpt>
      <trkpt lat="44.81633" lon="6.02577">
        <ele>1519.5</ele>
        <time>2020-08-17T06:48:14Z</time>
      </trkpt>
      <trkpt lat="44.81634" lon="6.02576">
        <ele>1519.02</ele>
        <time>2020-08-17T06:48:44Z</time>
      </trkpt>
      <trkpt lat="44.81633" lon="6.02577">
        <ele>1519.5</ele>
        <time>2020-08-17T06:49:08Z</time>
      </trkpt>
      <trkpt lat="44.81633" lon="6.02577">
        <ele>1515.18</ele>
        <time>2020-08-17T06:49:19Z</time>
      </trkpt>
      <trkpt lat="44.81634" lon="6.02577">
        <ele>1511.81</ele>
        <time>2020-08-17T06:49:22Z</time>
      </trkpt>
      <trkpt lat="44.81634" lon="6.02577">
        <ele>1515.18</ele>
        <time>2020-08-17T06:49:25Z</time>
      </trkpt>
      <trkpt lat="44.81634" lon="6.02576">
        <ele>1519.98</ele>
        <time>2020-08-17T06:49:26Z</time>
      </trkpt>
      <trkpt lat="44.81634" lon="6.02577">
        <ele>1523.35</ele>
        <time>2020-08-17T06:49:29Z</time>
      </trkpt>
      <trkpt lat="44.8163" lon="6.02579">
        <ele>1519.98</ele>
        <time>2020-08-17T06:49:50Z</time>
      </trkpt>
      <trkpt lat="44.81627" lon="6.0258">
        <ele>1519.98</ele>
        <time>2020-08-17T06:50:01Z</time>
      </trkpt>
      <trkpt lat="44.81628" lon="6.0258">
        <ele>1519.98</ele>
        <time>2020-08-17T06:50:02Z</time>
      </trkpt>
      <trkpt lat="44.81629" lon="6.0258">
        <ele>1519.98</ele>
        <time>2020-08-17T06:50:03Z</time>
      </trkpt>
      <trkpt lat="44.81631" lon="6.0258">
        <ele>1519.98</ele>
        <time>2020-08-17T06:50:04Z</time>
      </trkpt>
      <trkpt lat="44.81632" lon="6.0258">
        <ele>1519.98</ele>
        <time>2020-08-17T06:50:05Z</time>
      </trkpt>
      <trkpt lat="44.81633" lon="6.02578">
        <ele>1519.98</ele>
        <time>2020-08-17T06:50:20Z</time>
      </trkpt>
      <trkpt lat="44.81633" lon="6.02578">
        <ele>1516.14</ele>
        <time>2020-08-17T06:50:26Z</time>
      </trkpt>
      <trkpt lat="44.81633" lon="6.02578">
        <ele>1517.58</ele>
        <time>2020-08-17T06:50:35Z</time>
      </trkpt>
      <trkpt lat="44.81634" lon="6.02577">
        <ele>1520.94</ele>
        <time>2020-08-17T06:50:58Z</time>
      </trkpt>
      <trkpt lat="44.81634" lon="6.02578">
        <ele>1522.39</ele>
        <time>2020-08-17T06:51:00Z</time>
      </trkpt>
      <trkpt lat="44.81633" lon="6.02578">
        <ele>1520.46</ele>
        <time>2020-08-17T06:51:08Z</time>
      </trkpt>
      <trkpt lat="44.8163" lon="6.02579">
        <ele>1520.46</ele>
        <time>2020-08-17T06:51:16Z</time>
      </trkpt>
      <trkpt lat="44.81627" lon="6.02579">
        <ele>1519.98</ele>
        <time>2020-08-17T06:51:18Z</time>
      </trkpt>
      <trkpt lat="44.81626" lon="6.02579">
        <ele>1519.98</ele>
        <time>2020-08-17T06:51:19Z</time>
      </trkpt>
      <trkpt lat="44.81624" lon="6.02582">
        <ele>1519.98</ele>
        <time>2020-08-17T06:51:22Z</time>
      </trkpt>
      <trkpt lat="44.81626" lon="6.02588">
        <ele>1519.98</ele>
        <time>2020-08-17T06:51:27Z</time>
      </trkpt>
      <trkpt lat="44.81627" lon="6.02589">
        <ele>1519.98</ele>
        <time>2020-08-17T06:51:28Z</time>
      </trkpt>
      <trkpt lat="44.81637" lon="6.02605">
        <ele>1522.39</ele>
        <time>2020-08-17T06:51:45Z</time>
      </trkpt>
      <trkpt lat="44.81639" lon="6.02609">
        <ele>1522.39</ele>
        <time>2020-08-17T06:51:48Z</time>
      </trkpt>
      <trkpt lat="44.81643" lon="6.02623">
        <ele>1525.27</ele>
        <time>2020-08-17T06:51:59Z</time>
      </trkpt>
      <trkpt lat="44.81651" lon="6.0264">
        <ele>1526.71</ele>
        <time>2020-08-17T06:52:13Z</time>
      </trkpt>
      <trkpt lat="44.81658" lon="6.02655">
        <ele>1528.63</ele>
        <time>2020-08-17T06:52:26Z</time>
      </trkpt>
      <trkpt lat="44.81659" lon="6.02658">
        <ele>1528.63</ele>
        <time>2020-08-17T06:52:28Z</time>
      </trkpt>
      <trkpt lat="44.81667" lon="6.02677">
        <ele>1530.08</ele>
        <time>2020-08-17T06:52:44Z</time>
      </trkpt>
      <trkpt lat="44.81673" lon="6.02706">
        <ele>1533.44</ele>
        <time>2020-08-17T06:53:08Z</time>
      </trkpt>
      <trkpt lat="44.81681" lon="6.02727">
        <ele>1536.32</ele>
        <time>2020-08-17T06:53:26Z</time>
      </trkpt>
      <trkpt lat="44.81693" lon="6.0275">
        <ele>1539.21</ele>
        <time>2020-08-17T06:53:44Z</time>
      </trkpt>
      <trkpt lat="44.81705" lon="6.02769">
        <ele>1542.57</ele>
        <time>2020-08-17T06:54:03Z</time>
      </trkpt>
      <trkpt lat="44.8171" lon="6.02778">
        <ele>1544.01</ele>
        <time>2020-08-17T06:54:15Z</time>
      </trkpt>
      <trkpt lat="44.81711" lon="6.02779">
        <ele>1544.5</ele>
        <time>2020-08-17T06:54:16Z</time>
      </trkpt>
      <trkpt lat="44.81727" lon="6.02795">
        <ele>1547.38</ele>
        <time>2020-08-17T06:54:36Z</time>
      </trkpt>
      <trkpt lat="44.81737" lon="6.02815">
        <ele>1550.74</ele>
        <time>2020-08-17T06:54:57Z</time>
      </trkpt>
      <trkpt lat="44.8175" lon="6.02839">
        <ele>1553.63</ele>
        <time>2020-08-17T06:55:19Z</time>
      </trkpt>
      <trkpt lat="44.81764" lon="6.02873">
        <ele>1556.99</ele>
        <time>2020-08-17T06:55:46Z</time>
      </trkpt>
      <trkpt lat="44.81779" lon="6.02889">
        <ele>1559.88</ele>
        <time>2020-08-17T06:56:06Z</time>
      </trkpt>
      <trkpt lat="44.8179" lon="6.02902">
        <ele>1561.8</ele>
        <time>2020-08-17T06:56:20Z</time>
      </trkpt>
      <trkpt lat="44.81797" lon="6.02918">
        <ele>1565.16</ele>
        <time>2020-08-17T06:56:39Z</time>
      </trkpt>
      <trkpt lat="44.81805" lon="6.0294">
        <ele>1568.53</ele>
        <time>2020-08-17T06:57:00Z</time>
      </trkpt>
      <trkpt lat="44.81806" lon="6.02974">
        <ele>1571.41</ele>
        <time>2020-08-17T06:57:25Z</time>
      </trkpt>
      <trkpt lat="44.81817" lon="6.03006">
        <ele>1574.3</ele>
        <time>2020-08-17T06:57:52Z</time>
      </trkpt>
      <trkpt lat="44.81829" lon="6.03031">
        <ele>1575.26</ele>
        <time>2020-08-17T06:58:11Z</time>
      </trkpt>
      <trkpt lat="44.81852" lon="6.03031">
        <ele>1576.7</ele>
        <time>2020-08-17T06:58:31Z</time>
      </trkpt>
      <trkpt lat="44.81865" lon="6.03028">
        <ele>1578.62</ele>
        <time>2020-08-17T06:58:49Z</time>
      </trkpt>
      <trkpt lat="44.81866" lon="6.03024">
        <ele>1578.62</ele>
        <time>2020-08-17T06:59:18Z</time>
      </trkpt>
      <trkpt lat="44.81874" lon="6.03018">
        <ele>1579.58</ele>
        <time>2020-08-17T06:59:39Z</time>
      </trkpt>
      <trkpt lat="44.81884" lon="6.03012">
        <ele>1581.03</ele>
        <time>2020-08-17T07:00:16Z</time>
      </trkpt>
      <trkpt lat="44.81902" lon="6.03015">
        <ele>1583.91</ele>
        <time>2020-08-17T07:00:38Z</time>
      </trkpt>
      <trkpt lat="44.81923" lon="6.03014">
        <ele>1586.79</ele>
        <time>2020-08-17T07:00:58Z</time>
      </trkpt>
      <trkpt lat="44.81943" lon="6.03005">
        <ele>1590.16</ele>
        <time>2020-08-17T07:01:15Z</time>
      </trkpt>
      <trkpt lat="44.81961" lon="6.02998">
        <ele>1593.04</ele>
        <time>2020-08-17T07:01:34Z</time>
      </trkpt>
      <trkpt lat="44.81972" lon="6.02992">
        <ele>1594.48</ele>
        <time>2020-08-17T07:01:48Z</time>
      </trkpt>
      <trkpt lat="44.81985" lon="6.02992">
        <ele>1596.41</ele>
        <time>2020-08-17T07:02:07Z</time>
      </trkpt>
      <trkpt lat="44.8199" lon="6.03002">
        <ele>1598.81</ele>
        <time>2020-08-17T07:02:28Z</time>
      </trkpt>
      <trkpt lat="44.81988" lon="6.03012">
        <ele>1602.17</ele>
        <time>2020-08-17T07:02:47Z</time>
      </trkpt>
      <trkpt lat="44.81994" lon="6.03025">
        <ele>1605.06</ele>
        <time>2020-08-17T07:03:09Z</time>
      </trkpt>
      <trkpt lat="44.81994" lon="6.03034">
        <ele>1608.42</ele>
        <time>2020-08-17T07:03:26Z</time>
      </trkpt>
      <trkpt lat="44.81986" lon="6.03045">
        <ele>1611.31</ele>
        <time>2020-08-17T07:03:47Z</time>
      </trkpt>
      <trkpt lat="44.8198" lon="6.03055">
        <ele>1614.19</ele>
        <time>2020-08-17T07:04:09Z</time>
      </trkpt>
      <trkpt lat="44.81973" lon="6.03064">
        <ele>1617.56</ele>
        <time>2020-08-17T07:04:23Z</time>
      </trkpt>
      <trkpt lat="44.81958" lon="6.03074">
        <ele>1620.44</ele>
        <time>2020-08-17T07:04:47Z</time>
      </trkpt>
      <trkpt lat="44.81951" lon="6.03089">
        <ele>1623.32</ele>
        <time>2020-08-17T07:05:05Z</time>
      </trkpt>
      <trkpt lat="44.81939" lon="6.03103">
        <ele>1626.21</ele>
        <time>2020-08-17T07:05:26Z</time>
      </trkpt>
      <trkpt lat="44.81941" lon="6.03112">
        <ele>1629.57</ele>
        <time>2020-08-17T07:05:47Z</time>
      </trkpt>
      <trkpt lat="44.8195" lon="6.0311">
        <ele>1632.46</ele>
        <time>2020-08-17T07:06:04Z</time>
      </trkpt>
      <trkpt lat="44.81944" lon="6.03124">
        <ele>1635.82</ele>
        <time>2020-08-17T07:06:23Z</time>
      </trkpt>
      <trkpt lat="44.81939" lon="6.03135">
        <ele>1638.7</ele>
        <time>2020-08-17T07:06:41Z</time>
      </trkpt>
      <trkpt lat="44.81935" lon="6.03146">
        <ele>1642.07</ele>
        <time>2020-08-17T07:06:59Z</time>
      </trkpt>
      <trkpt lat="44.81936" lon="6.03156">
        <ele>1645.43</ele>
        <time>2020-08-17T07:07:18Z</time>
      </trkpt>
      <trkpt lat="44.8194" lon="6.03161">
        <ele>1648.32</ele>
        <time>2020-08-17T07:07:39Z</time>
      </trkpt>
      <trkpt lat="44.81941" lon="6.03173">
        <ele>1651.2</ele>
        <time>2020-08-17T07:07:56Z</time>
      </trkpt>
      <trkpt lat="44.81941" lon="6.03174">
        <ele>1651.2</ele>
        <time>2020-08-17T07:07:57Z</time>
      </trkpt>
      <trkpt lat="44.81938" lon="6.03184">
        <ele>1654.57</ele>
        <time>2020-08-17T07:08:16Z</time>
      </trkpt>
      <trkpt lat="44.81951" lon="6.03171">
        <ele>1657.45</ele>
        <time>2020-08-17T07:08:38Z</time>
      </trkpt>
      <trkpt lat="44.81965" lon="6.03169">
        <ele>1660.33</ele>
        <time>2020-08-17T07:09:00Z</time>
      </trkpt>
      <trkpt lat="44.81956" lon="6.03186">
        <ele>1663.7</ele>
        <time>2020-08-17T07:09:24Z</time>
      </trkpt>
      <trkpt lat="44.81936" lon="6.03213">
        <ele>1666.58</ele>
        <time>2020-08-17T07:09:54Z</time>
      </trkpt>
      <trkpt lat="44.8192" lon="6.03225">
        <ele>1669.95</ele>
        <time>2020-08-17T07:10:19Z</time>
      </trkpt>
      <trkpt lat="44.81909" lon="6.03245">
        <ele>1672.83</ele>
        <time>2020-08-17T07:10:45Z</time>
      </trkpt>
      <trkpt lat="44.81918" lon="6.03247">
        <ele>1676.2</ele>
        <time>2020-08-17T07:11:07Z</time>
      </trkpt>
      <trkpt lat="44.81937" lon="6.03244">
        <ele>1679.08</ele>
        <time>2020-08-17T07:11:33Z</time>
      </trkpt>
      <trkpt lat="44.81955" lon="6.03255">
        <ele>1681.96</ele>
        <time>2020-08-17T07:11:59Z</time>
      </trkpt>
      <trkpt lat="44.81969" lon="6.03255">
        <ele>1685.33</ele>
        <time>2020-08-17T07:12:19Z</time>
      </trkpt>
      <trkpt lat="44.8198" lon="6.03255">
        <ele>1688.21</ele>
        <time>2020-08-17T07:12:42Z</time>
      </trkpt>
      <trkpt lat="44.81967" lon="6.03268">
        <ele>1691.1</ele>
        <time>2020-08-17T07:13:06Z</time>
      </trkpt>
      <trkpt lat="44.81952" lon="6.03295">
        <ele>1694.46</ele>
        <time>2020-08-17T07:13:30Z</time>
      </trkpt>
      <trkpt lat="44.81935" lon="6.03298">
        <ele>1696.86</ele>
        <time>2020-08-17T07:13:54Z</time>
      </trkpt>
      <trkpt lat="44.81931" lon="6.03302">
        <ele>1699.75</ele>
        <time>2020-08-17T07:14:16Z</time>
      </trkpt>
      <trkpt lat="44.81949" lon="6.03318">
        <ele>1702.63</ele>
        <time>2020-08-17T07:14:43Z</time>
      </trkpt>
      <trkpt lat="44.81951" lon="6.03327">
        <ele>1705.52</ele>
        <time>2020-08-17T07:15:07Z</time>
      </trkpt>
      <trkpt lat="44.81932" lon="6.03325">
        <ele>1708.4</ele>
        <time>2020-08-17T07:15:30Z</time>
      </trkpt>
      <trkpt lat="44.81913" lon="6.03338">
        <ele>1711.76</ele>
        <time>2020-08-17T07:15:56Z</time>
      </trkpt>
      <trkpt lat="44.81916" lon="6.03341">
        <ele>1714.17</ele>
        <time>2020-08-17T07:16:16Z</time>
      </trkpt>
      <trkpt lat="44.81934" lon="6.03352">
        <ele>1717.53</ele>
        <time>2020-08-17T07:16:43Z</time>
      </trkpt>
      <trkpt lat="44.81951" lon="6.03367">
        <ele>1720.42</ele>
        <time>2020-08-17T07:17:07Z</time>
      </trkpt>
      <trkpt lat="44.81941" lon="6.03367">
        <ele>1722.82</ele>
        <time>2020-08-17T07:17:26Z</time>
      </trkpt>
      <trkpt lat="44.81926" lon="6.03372">
        <ele>1726.18</ele>
        <time>2020-08-17T07:17:45Z</time>
      </trkpt>
      <trkpt lat="44.81916" lon="6.0338">
        <ele>1728.11</ele>
        <time>2020-08-17T07:18:01Z</time>
      </trkpt>
      <trkpt lat="44.81908" lon="6.03396">
        <ele>1730.99</ele>
        <time>2020-08-17T07:18:21Z</time>
      </trkpt>
      <trkpt lat="44.819" lon="6.03409">
        <ele>1732.43</ele>
        <time>2020-08-17T07:18:37Z</time>
      </trkpt>
      <trkpt lat="44.8189" lon="6.03411">
        <ele>1734.84</ele>
        <time>2020-08-17T07:18:56Z</time>
      </trkpt>
      <trkpt lat="44.81871" lon="6.03419">
        <ele>1736.28</ele>
        <time>2020-08-17T07:19:16Z</time>
      </trkpt>
      <trkpt lat="44.81864" lon="6.03421">
        <ele>1738.68</ele>
        <time>2020-08-17T07:19:26Z</time>
      </trkpt>
      <trkpt lat="44.81856" lon="6.0342">
        <ele>1738.68</ele>
        <time>2020-08-17T07:19:34Z</time>
      </trkpt>
      <trkpt lat="44.81855" lon="6.0342">
        <ele>1738.68</ele>
        <time>2020-08-17T07:19:35Z</time>
      </trkpt>
      <trkpt lat="44.81845" lon="6.03428">
        <ele>1739.16</ele>
        <time>2020-08-17T07:19:51Z</time>
      </trkpt>
      <trkpt lat="44.8183" lon="6.03442">
        <ele>1741.08</ele>
        <time>2020-08-17T07:20:14Z</time>
      </trkpt>
      <trkpt lat="44.81837" lon="6.03453">
        <ele>1742.53</ele>
        <time>2020-08-17T07:20:28Z</time>
      </trkpt>
      <trkpt lat="44.81853" lon="6.03464">
        <ele>1744.45</ele>
        <time>2020-08-17T07:20:53Z</time>
      </trkpt>
      <trkpt lat="44.81871" lon="6.0348">
        <ele>1747.81</ele>
        <time>2020-08-17T07:21:18Z</time>
      </trkpt>
      <trkpt lat="44.81893" lon="6.03493">
        <ele>1750.22</ele>
        <time>2020-08-17T07:21:42Z</time>
      </trkpt>
      <trkpt lat="44.81909" lon="6.03501">
        <ele>1751.66</ele>
        <time>2020-08-17T07:22:03Z</time>
      </trkpt>
      <trkpt lat="44.81932" lon="6.03508">
        <ele>1753.58</ele>
        <time>2020-08-17T07:22:31Z</time>
      </trkpt>
      <trkpt lat="44.81957" lon="6.03525">
        <ele>1755.99</ele>
        <time>2020-08-17T07:22:57Z</time>
      </trkpt>
      <trkpt lat="44.81975" lon="6.03541">
        <ele>1757.91</ele>
        <time>2020-08-17T07:23:21Z</time>
      </trkpt>
      <trkpt lat="44.81981" lon="6.03547">
        <ele>1757.91</ele>
        <time>2020-08-17T07:23:39Z</time>
      </trkpt>
      <trkpt lat="44.8198" lon="6.03547">
        <ele>1760.31</ele>
        <time>2020-08-17T07:23:44Z</time>
      </trkpt>
      <trkpt lat="44.81967" lon="6.03555">
        <ele>1760.31</ele>
        <time>2020-08-17T07:24:03Z</time>
      </trkpt>
      <trkpt lat="44.81957" lon="6.03558">
        <ele>1762.23</ele>
        <time>2020-08-17T07:24:15Z</time>
      </trkpt>
      <trkpt lat="44.81945" lon="6.03558">
        <ele>1764.64</ele>
        <time>2020-08-17T07:24:31Z</time>
      </trkpt>
      <trkpt lat="44.81933" lon="6.03564">
        <ele>1766.56</ele>
        <time>2020-08-17T07:24:50Z</time>
      </trkpt>
      <trkpt lat="44.81923" lon="6.03577">
        <ele>1769.92</ele>
        <time>2020-08-17T07:25:11Z</time>
      </trkpt>
      <trkpt lat="44.81918" lon="6.03587">
        <ele>1772.81</ele>
        <time>2020-08-17T07:25:26Z</time>
      </trkpt>
      <trkpt lat="44.81916" lon="6.03599">
        <ele>1775.69</ele>
        <time>2020-08-17T07:25:49Z</time>
      </trkpt>
      <trkpt lat="44.81927" lon="6.03608">
        <ele>1778.58</ele>
        <time>2020-08-17T07:26:07Z</time>
      </trkpt>
      <trkpt lat="44.81937" lon="6.03624">
        <ele>1780.98</ele>
        <time>2020-08-17T07:26:27Z</time>
      </trkpt>
      <trkpt lat="44.81941" lon="6.03634">
        <ele>1782.42</ele>
        <time>2020-08-17T07:26:49Z</time>
      </trkpt>
      <trkpt lat="44.81953" lon="6.03649">
        <ele>1784.82</ele>
        <time>2020-08-17T07:27:12Z</time>
      </trkpt>
      <trkpt lat="44.81956" lon="6.03663">
        <ele>1787.23</ele>
        <time>2020-08-17T07:27:30Z</time>
      </trkpt>
      <trkpt lat="44.81967" lon="6.03677">
        <ele>1789.63</ele>
        <time>2020-08-17T07:27:52Z</time>
      </trkpt>
      <trkpt lat="44.81978" lon="6.03683">
        <ele>1792.52</ele>
        <time>2020-08-17T07:28:09Z</time>
      </trkpt>
      <trkpt lat="44.81969" lon="6.03687">
        <ele>1794.44</ele>
        <time>2020-08-17T07:28:23Z</time>
      </trkpt>
      <trkpt lat="44.81957" lon="6.03694">
        <ele>1796.36</ele>
        <time>2020-08-17T07:28:40Z</time>
      </trkpt>
      <trkpt lat="44.81947" lon="6.03704">
        <ele>1798.76</ele>
        <time>2020-08-17T07:28:57Z</time>
      </trkpt>
      <trkpt lat="44.81936" lon="6.03708">
        <ele>1800.69</ele>
        <time>2020-08-17T07:29:14Z</time>
      </trkpt>
      <trkpt lat="44.81941" lon="6.03717">
        <ele>1803.57</ele>
        <time>2020-08-17T07:29:31Z</time>
      </trkpt>
      <trkpt lat="44.81954" lon="6.03724">
        <ele>1805.97</ele>
        <time>2020-08-17T07:29:52Z</time>
      </trkpt>
      <trkpt lat="44.81959" lon="6.03726">
        <ele>1806.45</ele>
        <time>2020-08-17T07:29:57Z</time>
      </trkpt>
      <trkpt lat="44.81966" lon="6.03733">
        <ele>1808.38</ele>
        <time>2020-08-17T07:30:16Z</time>
      </trkpt>
      <trkpt lat="44.81972" lon="6.0374">
        <ele>1810.3</ele>
        <time>2020-08-17T07:30:34Z</time>
      </trkpt>
      <trkpt lat="44.81965" lon="6.03744">
        <ele>1811.74</ele>
        <time>2020-08-17T07:30:47Z</time>
      </trkpt>
      <trkpt lat="44.81956" lon="6.0375">
        <ele>1813.66</ele>
        <time>2020-08-17T07:31:01Z</time>
      </trkpt>
      <trkpt lat="44.81951" lon="6.03755">
        <ele>1815.11</ele>
        <time>2020-08-17T07:31:13Z</time>
      </trkpt>
      <trkpt lat="44.81942" lon="6.03769">
        <ele>1817.51</ele>
        <time>2020-08-17T07:31:31Z</time>
      </trkpt>
      <trkpt lat="44.81944" lon="6.03774">
        <ele>1819.43</ele>
        <time>2020-08-17T07:31:45Z</time>
      </trkpt>
      <trkpt lat="44.81957" lon="6.03778">
        <ele>1822.32</ele>
        <time>2020-08-17T07:32:06Z</time>
      </trkpt>
      <trkpt lat="44.8197" lon="6.03784">
        <ele>1825.2</ele>
        <time>2020-08-17T07:32:26Z</time>
      </trkpt>
      <trkpt lat="44.81972" lon="6.03791">
        <ele>1827.12</ele>
        <time>2020-08-17T07:32:45Z</time>
      </trkpt>
      <trkpt lat="44.81961" lon="6.03801">
        <ele>1829.05</ele>
        <time>2020-08-17T07:33:02Z</time>
      </trkpt>
      <trkpt lat="44.81954" lon="6.03812">
        <ele>1831.45</ele>
        <time>2020-08-17T07:33:19Z</time>
      </trkpt>
      <trkpt lat="44.81946" lon="6.03822">
        <ele>1833.37</ele>
        <time>2020-08-17T07:33:35Z</time>
      </trkpt>
      <trkpt lat="44.81935" lon="6.03827">
        <ele>1835.29</ele>
        <time>2020-08-17T07:33:49Z</time>
      </trkpt>
      <trkpt lat="44.81927" lon="6.03832">
        <ele>1837.22</ele>
        <time>2020-08-17T07:34:03Z</time>
      </trkpt>
      <trkpt lat="44.8192" lon="6.03835">
        <ele>1838.18</ele>
        <time>2020-08-17T07:34:19Z</time>
      </trkpt>
      <trkpt lat="44.81913" lon="6.03835">
        <ele>1839.14</ele>
        <time>2020-08-17T07:34:37Z</time>
      </trkpt>
      <trkpt lat="44.81908" lon="6.0384">
        <ele>1840.1</ele>
        <time>2020-08-17T07:34:52Z</time>
      </trkpt>
      <trkpt lat="44.81901" lon="6.03844">
        <ele>1841.54</ele>
        <time>2020-08-17T07:35:05Z</time>
      </trkpt>
      <trkpt lat="44.81888" lon="6.03844">
        <ele>1843.95</ele>
        <time>2020-08-17T07:35:24Z</time>
      </trkpt>
      <trkpt lat="44.81879" lon="6.03841">
        <ele>1846.83</ele>
        <time>2020-08-17T07:35:39Z</time>
      </trkpt>
      <trkpt lat="44.81867" lon="6.03839">
        <ele>1847.79</ele>
        <time>2020-08-17T07:35:56Z</time>
      </trkpt>
      <trkpt lat="44.81857" lon="6.03844">
        <ele>1850.19</ele>
        <time>2020-08-17T07:36:13Z</time>
      </trkpt>
      <trkpt lat="44.81847" lon="6.03848">
        <ele>1852.6</ele>
        <time>2020-08-17T07:36:29Z</time>
      </trkpt>
      <trkpt lat="44.81837" lon="6.03853">
        <ele>1855</ele>
        <time>2020-08-17T07:36:47Z</time>
      </trkpt>
      <trkpt lat="44.81826" lon="6.03857">
        <ele>1856.92</ele>
        <time>2020-08-17T07:37:02Z</time>
      </trkpt>
      <trkpt lat="44.81814" lon="6.03863">
        <ele>1859.33</ele>
        <time>2020-08-17T07:37:20Z</time>
      </trkpt>
      <trkpt lat="44.81802" lon="6.03869">
        <ele>1861.25</ele>
        <time>2020-08-17T07:37:37Z</time>
      </trkpt>
      <trkpt lat="44.81789" lon="6.03875">
        <ele>1863.17</ele>
        <time>2020-08-17T07:37:55Z</time>
      </trkpt>
      <trkpt lat="44.81778" lon="6.03882">
        <ele>1866.06</ele>
        <time>2020-08-17T07:38:13Z</time>
      </trkpt>
      <trkpt lat="44.81769" lon="6.03884">
        <ele>1867.98</ele>
        <time>2020-08-17T07:38:32Z</time>
      </trkpt>
      <trkpt lat="44.81757" lon="6.03893">
        <ele>1869.9</ele>
        <time>2020-08-17T07:38:51Z</time>
      </trkpt>
      <trkpt lat="44.81748" lon="6.03901">
        <ele>1872.3</ele>
        <time>2020-08-17T07:39:08Z</time>
      </trkpt>
      <trkpt lat="44.8174" lon="6.03906">
        <ele>1874.23</ele>
        <time>2020-08-17T07:39:24Z</time>
      </trkpt>
      <trkpt lat="44.8175" lon="6.03909">
        <ele>1876.63</ele>
        <time>2020-08-17T07:39:38Z</time>
      </trkpt>
      <trkpt lat="44.81764" lon="6.03907">
        <ele>1878.55</ele>
        <time>2020-08-17T07:39:57Z</time>
      </trkpt>
      <trkpt lat="44.8178" lon="6.0391">
        <ele>1880.96</ele>
        <time>2020-08-17T07:40:18Z</time>
      </trkpt>
      <trkpt lat="44.81791" lon="6.03913">
        <ele>1882.88</ele>
        <time>2020-08-17T07:40:36Z</time>
      </trkpt>
      <trkpt lat="44.81805" lon="6.03915">
        <ele>1885.76</ele>
        <time>2020-08-17T07:40:58Z</time>
      </trkpt>
      <trkpt lat="44.81817" lon="6.03917">
        <ele>1888.17</ele>
        <time>2020-08-17T07:41:15Z</time>
      </trkpt>
      <trkpt lat="44.81834" lon="6.0392">
        <ele>1891.05</ele>
        <time>2020-08-17T07:41:37Z</time>
      </trkpt>
      <trkpt lat="44.81844" lon="6.03927">
        <ele>1892.97</ele>
        <time>2020-08-17T07:41:53Z</time>
      </trkpt>
      <trkpt lat="44.81853" lon="6.03937">
        <ele>1894.9</ele>
        <time>2020-08-17T07:42:09Z</time>
      </trkpt>
      <trkpt lat="44.81863" lon="6.03947">
        <ele>1897.3</ele>
        <time>2020-08-17T07:42:29Z</time>
      </trkpt>
      <trkpt lat="44.81866" lon="6.03954">
        <ele>1899.22</ele>
        <time>2020-08-17T07:42:45Z</time>
      </trkpt>
      <trkpt lat="44.8186" lon="6.0395">
        <ele>1900.18</ele>
        <time>2020-08-17T07:42:59Z</time>
      </trkpt>
      <trkpt lat="44.81849" lon="6.03949">
        <ele>1901.14</ele>
        <time>2020-08-17T07:43:13Z</time>
      </trkpt>
      <trkpt lat="44.81838" lon="6.03946">
        <ele>1903.55</ele>
        <time>2020-08-17T07:43:30Z</time>
      </trkpt>
      <trkpt lat="44.81828" lon="6.03947">
        <ele>1905.95</ele>
        <time>2020-08-17T07:43:46Z</time>
      </trkpt>
      <trkpt lat="44.81815" lon="6.03952">
        <ele>1908.35</ele>
        <time>2020-08-17T07:44:04Z</time>
      </trkpt>
      <trkpt lat="44.81805" lon="6.0396">
        <ele>1909.8</ele>
        <time>2020-08-17T07:44:21Z</time>
      </trkpt>
      <trkpt lat="44.81794" lon="6.03965">
        <ele>1912.2</ele>
        <time>2020-08-17T07:44:39Z</time>
      </trkpt>
      <trkpt lat="44.81781" lon="6.03971">
        <ele>1914.6</ele>
        <time>2020-08-17T07:44:59Z</time>
      </trkpt>
      <trkpt lat="44.81771" lon="6.03979">
        <ele>1917.01</ele>
        <time>2020-08-17T07:45:16Z</time>
      </trkpt>
      <trkpt lat="44.81762" lon="6.03985">
        <ele>1918.93</ele>
        <time>2020-08-17T07:45:32Z</time>
      </trkpt>
      <trkpt lat="44.81755" lon="6.03992">
        <ele>1919.89</ele>
        <time>2020-08-17T07:45:48Z</time>
      </trkpt>
      <trkpt lat="44.81744" lon="6.03999">
        <ele>1921.81</ele>
        <time>2020-08-17T07:46:04Z</time>
      </trkpt>
      <trkpt lat="44.81736" lon="6.04004">
        <ele>1923.74</ele>
        <time>2020-08-17T07:46:17Z</time>
      </trkpt>
      <trkpt lat="44.81725" lon="6.04005">
        <ele>1925.18</ele>
        <time>2020-08-17T07:46:30Z</time>
      </trkpt>
      <trkpt lat="44.81714" lon="6.04007">
        <ele>1927.58</ele>
        <time>2020-08-17T07:46:45Z</time>
      </trkpt>
      <trkpt lat="44.81705" lon="6.04008">
        <ele>1929.02</ele>
        <time>2020-08-17T07:46:59Z</time>
      </trkpt>
      <trkpt lat="44.81693" lon="6.04011">
        <ele>1931.43</ele>
        <time>2020-08-17T07:47:16Z</time>
      </trkpt>
      <trkpt lat="44.81681" lon="6.04013">
        <ele>1933.35</ele>
        <time>2020-08-17T07:47:33Z</time>
      </trkpt>
      <trkpt lat="44.81669" lon="6.04016">
        <ele>1935.27</ele>
        <time>2020-08-17T07:47:49Z</time>
      </trkpt>
      <trkpt lat="44.81659" lon="6.04016">
        <ele>1937.19</ele>
        <time>2020-08-17T07:48:07Z</time>
      </trkpt>
      <trkpt lat="44.81649" lon="6.0401">
        <ele>1939.12</ele>
        <time>2020-08-17T07:48:23Z</time>
      </trkpt>
      <trkpt lat="44.8164" lon="6.04002">
        <ele>1941.52</ele>
        <time>2020-08-17T07:48:40Z</time>
      </trkpt>
      <trkpt lat="44.81644" lon="6.04019">
        <ele>1943.44</ele>
        <time>2020-08-17T07:48:57Z</time>
      </trkpt>
      <trkpt lat="44.81652" lon="6.0403">
        <ele>1945.36</ele>
        <time>2020-08-17T07:49:13Z</time>
      </trkpt>
      <trkpt lat="44.81661" lon="6.0404">
        <ele>1946.81</ele>
        <time>2020-08-17T07:49:28Z</time>
      </trkpt>
      <trkpt lat="44.81674" lon="6.04043">
        <ele>1949.21</ele>
        <time>2020-08-17T07:49:47Z</time>
      </trkpt>
      <trkpt lat="44.81687" lon="6.04048">
        <ele>1952.57</ele>
        <time>2020-08-17T07:50:07Z</time>
      </trkpt>
      <trkpt lat="44.81699" lon="6.04054">
        <ele>1954.98</ele>
        <time>2020-08-17T07:50:24Z</time>
      </trkpt>
      <trkpt lat="44.81711" lon="6.04063">
        <ele>1957.38</ele>
        <time>2020-08-17T07:50:43Z</time>
      </trkpt>
      <trkpt lat="44.8172" lon="6.0407">
        <ele>1959.3</ele>
        <time>2020-08-17T07:50:59Z</time>
      </trkpt>
      <trkpt lat="44.81733" lon="6.04075">
        <ele>1962.19</ele>
        <time>2020-08-17T07:51:17Z</time>
      </trkpt>
      <trkpt lat="44.81745" lon="6.04078">
        <ele>1964.11</ele>
        <time>2020-08-17T07:51:34Z</time>
      </trkpt>
      <trkpt lat="44.81755" lon="6.04085">
        <ele>1966.03</ele>
        <time>2020-08-17T07:51:50Z</time>
      </trkpt>
      <trkpt lat="44.81763" lon="6.041">
        <ele>1967.48</ele>
        <time>2020-08-17T07:52:09Z</time>
      </trkpt>
      <trkpt lat="44.81769" lon="6.04111">
        <ele>1969.4</ele>
        <time>2020-08-17T07:52:24Z</time>
      </trkpt>
      <trkpt lat="44.81774" lon="6.04122">
        <ele>1971.32</ele>
        <time>2020-08-17T07:52:44Z</time>
      </trkpt>
      <trkpt lat="44.81774" lon="6.04122">
        <ele>1972.28</ele>
        <time>2020-08-17T07:52:52Z</time>
      </trkpt>
      <trkpt lat="44.81773" lon="6.04121">
        <ele>1971.8</ele>
        <time>2020-08-17T07:53:22Z</time>
      </trkpt>
      <trkpt lat="44.81773" lon="6.04123">
        <ele>1972.28</ele>
        <time>2020-08-17T07:53:51Z</time>
      </trkpt>
      <trkpt lat="44.81774" lon="6.04122">
        <ele>1972.76</ele>
        <time>2020-08-17T07:54:16Z</time>
      </trkpt>
      <trkpt lat="44.81775" lon="6.04122">
        <ele>1972.28</ele>
        <time>2020-08-17T07:54:53Z</time>
      </trkpt>
      <trkpt lat="44.81777" lon="6.04123">
        <ele>1972.28</ele>
        <time>2020-08-17T07:55:15Z</time>
      </trkpt>
      <trkpt lat="44.81777" lon="6.04123">
        <ele>1972.28</ele>
        <time>2020-08-17T07:55:41Z</time>
      </trkpt>
      <trkpt lat="44.81776" lon="6.04122">
        <ele>1972.28</ele>
        <time>2020-08-17T07:56:18Z</time>
      </trkpt>
      <trkpt lat="44.81782" lon="6.04124">
        <ele>1972.28</ele>
        <time>2020-08-17T07:56:43Z</time>
      </trkpt>
      <trkpt lat="44.81793" lon="6.0413">
        <ele>1974.2</ele>
        <time>2020-08-17T07:56:59Z</time>
      </trkpt>
      <trkpt lat="44.81804" lon="6.04132">
        <ele>1976.61</ele>
        <time>2020-08-17T07:57:16Z</time>
      </trkpt>
      <trkpt lat="44.81816" lon="6.04138">
        <ele>1979.01</ele>
        <time>2020-08-17T07:57:34Z</time>
      </trkpt>
      <trkpt lat="44.81826" lon="6.04143">
        <ele>1981.9</ele>
        <time>2020-08-17T07:57:51Z</time>
      </trkpt>
      <trkpt lat="44.81835" lon="6.04152">
        <ele>1984.3</ele>
        <time>2020-08-17T07:58:12Z</time>
      </trkpt>
      <trkpt lat="44.8182" lon="6.04156">
        <ele>1987.18</ele>
        <time>2020-08-17T07:58:35Z</time>
      </trkpt>
      <trkpt lat="44.81811" lon="6.04161">
        <ele>1989.1</ele>
        <time>2020-08-17T07:58:50Z</time>
      </trkpt>
      <trkpt lat="44.81803" lon="6.04168">
        <ele>1991.03</ele>
        <time>2020-08-17T07:59:06Z</time>
      </trkpt>
      <trkpt lat="44.81795" lon="6.04177">
        <ele>1992.95</ele>
        <time>2020-08-17T07:59:21Z</time>
      </trkpt>
      <trkpt lat="44.81785" lon="6.04184">
        <ele>1994.87</ele>
        <time>2020-08-17T07:59:37Z</time>
      </trkpt>
      <trkpt lat="44.81776" lon="6.04191">
        <ele>1996.32</ele>
        <time>2020-08-17T07:59:53Z</time>
      </trkpt>
      <trkpt lat="44.81766" lon="6.04199">
        <ele>1997.76</ele>
        <time>2020-08-17T08:00:09Z</time>
      </trkpt>
      <trkpt lat="44.81759" lon="6.04205">
        <ele>1999.2</ele>
        <time>2020-08-17T08:00:25Z</time>
      </trkpt>
      <trkpt lat="44.81751" lon="6.04214">
        <ele>2002.08</ele>
        <time>2020-08-17T08:00:41Z</time>
      </trkpt>
      <trkpt lat="44.81743" lon="6.04223">
        <ele>2004.49</ele>
        <time>2020-08-17T08:00:57Z</time>
      </trkpt>
      <trkpt lat="44.81734" lon="6.04231">
        <ele>2006.41</ele>
        <time>2020-08-17T08:01:14Z</time>
      </trkpt>
      <trkpt lat="44.81724" lon="6.04236">
        <ele>2008.33</ele>
        <time>2020-08-17T08:01:30Z</time>
      </trkpt>
      <trkpt lat="44.81714" lon="6.0424">
        <ele>2010.25</ele>
        <time>2020-08-17T08:01:44Z</time>
      </trkpt>
      <trkpt lat="44.81701" lon="6.04236">
        <ele>2012.66</ele>
        <time>2020-08-17T08:02:01Z</time>
      </trkpt>
      <trkpt lat="44.8169" lon="6.04237">
        <ele>2014.58</ele>
        <time>2020-08-17T08:02:17Z</time>
      </trkpt>
      <trkpt lat="44.81681" lon="6.04236">
        <ele>2016.02</ele>
        <time>2020-08-17T08:02:32Z</time>
      </trkpt>
      <trkpt lat="44.81673" lon="6.04233">
        <ele>2017.94</ele>
        <time>2020-08-17T08:02:46Z</time>
      </trkpt>
      <trkpt lat="44.81666" lon="6.04231">
        <ele>2019.39</ele>
        <time>2020-08-17T08:03:00Z</time>
      </trkpt>
      <trkpt lat="44.81662" lon="6.04236">
        <ele>2020.83</ele>
        <time>2020-08-17T08:03:14Z</time>
      </trkpt>
      <trkpt lat="44.81663" lon="6.0425">
        <ele>2021.79</ele>
        <time>2020-08-17T08:03:27Z</time>
      </trkpt>
      <trkpt lat="44.81663" lon="6.04252">
        <ele>2021.79</ele>
        <time>2020-08-17T08:03:28Z</time>
      </trkpt>
      <trkpt lat="44.8166" lon="6.04266">
        <ele>2023.23</ele>
        <time>2020-08-17T08:03:43Z</time>
      </trkpt>
      <trkpt lat="44.81653" lon="6.04277">
        <ele>2025.64</ele>
        <time>2020-08-17T08:04:00Z</time>
      </trkpt>
      <trkpt lat="44.81649" lon="6.04289">
        <ele>2027.56</ele>
        <time>2020-08-17T08:04:16Z</time>
      </trkpt>
      <trkpt lat="44.81643" lon="6.04298">
        <ele>2029.96</ele>
        <time>2020-08-17T08:04:31Z</time>
      </trkpt>
      <trkpt lat="44.81636" lon="6.04308">
        <ele>2032.36</ele>
        <time>2020-08-17T08:04:46Z</time>
      </trkpt>
      <trkpt lat="44.81631" lon="6.04322">
        <ele>2034.29</ele>
        <time>2020-08-17T08:05:01Z</time>
      </trkpt>
      <trkpt lat="44.81624" lon="6.04332">
        <ele>2035.73</ele>
        <time>2020-08-17T08:05:15Z</time>
      </trkpt>
      <trkpt lat="44.81619" lon="6.04338">
        <ele>2037.17</ele>
        <time>2020-08-17T08:05:26Z</time>
      </trkpt>
      <trkpt lat="44.81608" lon="6.04334">
        <ele>2040.05</ele>
        <time>2020-08-17T08:05:43Z</time>
      </trkpt>
      <trkpt lat="44.81598" lon="6.04323">
        <ele>2042.46</ele>
        <time>2020-08-17T08:06:01Z</time>
      </trkpt>
      <trkpt lat="44.81601" lon="6.04336">
        <ele>2044.86</ele>
        <time>2020-08-17T08:06:13Z</time>
      </trkpt>
      <trkpt lat="44.81607" lon="6.0435">
        <ele>2046.78</ele>
        <time>2020-08-17T08:06:29Z</time>
      </trkpt>
      <trkpt lat="44.81612" lon="6.04368">
        <ele>2048.71</ele>
        <time>2020-08-17T08:06:48Z</time>
      </trkpt>
      <trkpt lat="44.81618" lon="6.04381">
        <ele>2051.11</ele>
        <time>2020-08-17T08:07:06Z</time>
      </trkpt>
      <trkpt lat="44.81619" lon="6.04383">
        <ele>2051.59</ele>
        <time>2020-08-17T08:07:08Z</time>
      </trkpt>
      <trkpt lat="44.81628" lon="6.04389">
        <ele>2052.55</ele>
        <time>2020-08-17T08:07:21Z</time>
      </trkpt>
      <trkpt lat="44.81636" lon="6.04391">
        <ele>2053.99</ele>
        <time>2020-08-17T08:07:32Z</time>
      </trkpt>
      <trkpt lat="44.81647" lon="6.04391">
        <ele>2055.44</ele>
        <time>2020-08-17T08:07:48Z</time>
      </trkpt>
      <trkpt lat="44.81659" lon="6.04393">
        <ele>2057.84</ele>
        <time>2020-08-17T08:08:06Z</time>
      </trkpt>
      <trkpt lat="44.81668" lon="6.04391">
        <ele>2059.76</ele>
        <time>2020-08-17T08:08:22Z</time>
      </trkpt>
      <trkpt lat="44.81679" lon="6.04393">
        <ele>2061.68</ele>
        <time>2020-08-17T08:08:39Z</time>
      </trkpt>
      <trkpt lat="44.8169" lon="6.04395">
        <ele>2064.09</ele>
        <time>2020-08-17T08:08:56Z</time>
      </trkpt>
      <trkpt lat="44.81701" lon="6.04402">
        <ele>2066.97</ele>
        <time>2020-08-17T08:09:16Z</time>
      </trkpt>
      <trkpt lat="44.81711" lon="6.04404">
        <ele>2068.89</ele>
        <time>2020-08-17T08:09:31Z</time>
      </trkpt>
      <trkpt lat="44.81719" lon="6.04412">
        <ele>2071.3</ele>
        <time>2020-08-17T08:09:49Z</time>
      </trkpt>
      <trkpt lat="44.81729" lon="6.04413">
        <ele>2073.22</ele>
        <time>2020-08-17T08:10:07Z</time>
      </trkpt>
      <trkpt lat="44.81739" lon="6.04411">
        <ele>2075.14</ele>
        <time>2020-08-17T08:10:24Z</time>
      </trkpt>
      <trkpt lat="44.81748" lon="6.04408">
        <ele>2077.07</ele>
        <time>2020-08-17T08:10:39Z</time>
      </trkpt>
      <trkpt lat="44.81759" lon="6.04405">
        <ele>2079.47</ele>
        <time>2020-08-17T08:10:56Z</time>
      </trkpt>
      <trkpt lat="44.81768" lon="6.04406">
        <ele>2081.87</ele>
        <time>2020-08-17T08:11:17Z</time>
      </trkpt>
      <trkpt lat="44.8176" lon="6.04412">
        <ele>2083.31</ele>
        <time>2020-08-17T08:11:32Z</time>
      </trkpt>
      <trkpt lat="44.81753" lon="6.04421">
        <ele>2083.79</ele>
        <time>2020-08-17T08:11:47Z</time>
      </trkpt>
      <trkpt lat="44.81746" lon="6.04433">
        <ele>2086.2</ele>
        <time>2020-08-17T08:12:04Z</time>
      </trkpt>
      <trkpt lat="44.81741" lon="6.04443">
        <ele>2087.64</ele>
        <time>2020-08-17T08:12:19Z</time>
      </trkpt>
      <trkpt lat="44.81733" lon="6.0445">
        <ele>2089.56</ele>
        <time>2020-08-17T08:12:33Z</time>
      </trkpt>
      <trkpt lat="44.81737" lon="6.04452">
        <ele>2091.49</ele>
        <time>2020-08-17T08:12:47Z</time>
      </trkpt>
      <trkpt lat="44.81742" lon="6.04454">
        <ele>2094.85</ele>
        <time>2020-08-17T08:13:02Z</time>
      </trkpt>
      <trkpt lat="44.81731" lon="6.04461">
        <ele>2096.77</ele>
        <time>2020-08-17T08:13:19Z</time>
      </trkpt>
      <trkpt lat="44.81721" lon="6.04469">
        <ele>2099.18</ele>
        <time>2020-08-17T08:13:36Z</time>
      </trkpt>
      <trkpt lat="44.81712" lon="6.04477">
        <ele>2100.14</ele>
        <time>2020-08-17T08:13:50Z</time>
      </trkpt>
      <trkpt lat="44.81701" lon="6.04484">
        <ele>2103.02</ele>
        <time>2020-08-17T08:14:09Z</time>
      </trkpt>
      <trkpt lat="44.81694" lon="6.04488">
        <ele>2104.94</ele>
        <time>2020-08-17T08:14:22Z</time>
      </trkpt>
      <trkpt lat="44.81686" lon="6.04493">
        <ele>2106.39</ele>
        <time>2020-08-17T08:14:35Z</time>
      </trkpt>
      <trkpt lat="44.81681" lon="6.04503">
        <ele>2108.31</ele>
        <time>2020-08-17T08:14:49Z</time>
      </trkpt>
      <trkpt lat="44.81676" lon="6.04517">
        <ele>2110.23</ele>
        <time>2020-08-17T08:15:07Z</time>
      </trkpt>
      <trkpt lat="44.81668" lon="6.04527">
        <ele>2111.67</ele>
        <time>2020-08-17T08:15:23Z</time>
      </trkpt>
      <trkpt lat="44.8166" lon="6.04537">
        <ele>2114.08</ele>
        <time>2020-08-17T08:15:40Z</time>
      </trkpt>
      <trkpt lat="44.81654" lon="6.04544">
        <ele>2115.52</ele>
        <time>2020-08-17T08:15:52Z</time>
      </trkpt>
      <trkpt lat="44.81648" lon="6.04551">
        <ele>2117.44</ele>
        <time>2020-08-17T08:16:05Z</time>
      </trkpt>
      <trkpt lat="44.81639" lon="6.04558">
        <ele>2119.84</ele>
        <time>2020-08-17T08:16:21Z</time>
      </trkpt>
      <trkpt lat="44.81632" lon="6.04568">
        <ele>2121.77</ele>
        <time>2020-08-17T08:16:38Z</time>
      </trkpt>
      <trkpt lat="44.81625" lon="6.04577">
        <ele>2124.65</ele>
        <time>2020-08-17T08:16:52Z</time>
      </trkpt>
      <trkpt lat="44.81615" lon="6.04587">
        <ele>2126.57</ele>
        <time>2020-08-17T08:17:10Z</time>
      </trkpt>
      <trkpt lat="44.81608" lon="6.04594">
        <ele>2128.5</ele>
        <time>2020-08-17T08:17:25Z</time>
      </trkpt>
      <trkpt lat="44.81601" lon="6.04601">
        <ele>2129.94</ele>
        <time>2020-08-17T08:17:41Z</time>
      </trkpt>
      <trkpt lat="44.81592" lon="6.04607">
        <ele>2131.38</ele>
        <time>2020-08-17T08:17:56Z</time>
      </trkpt>
      <trkpt lat="44.81587" lon="6.04608">
        <ele>2132.34</ele>
        <time>2020-08-17T08:18:09Z</time>
      </trkpt>
      <trkpt lat="44.81581" lon="6.04611">
        <ele>2133.78</ele>
        <time>2020-08-17T08:18:22Z</time>
      </trkpt>
      <trkpt lat="44.81576" lon="6.04613">
        <ele>2135.23</ele>
        <time>2020-08-17T08:18:30Z</time>
      </trkpt>
      <trkpt lat="44.81568" lon="6.04619">
        <ele>2136.19</ele>
        <time>2020-08-17T08:18:44Z</time>
      </trkpt>
      <trkpt lat="44.81561" lon="6.04623">
        <ele>2137.63</ele>
        <time>2020-08-17T08:18:58Z</time>
      </trkpt>
      <trkpt lat="44.81553" lon="6.04631">
        <ele>2140.51</ele>
        <time>2020-08-17T08:19:14Z</time>
      </trkpt>
      <trkpt lat="44.81545" lon="6.04638">
        <ele>2142.44</ele>
        <time>2020-08-17T08:19:29Z</time>
      </trkpt>
      <trkpt lat="44.81536" lon="6.04645">
        <ele>2144.36</ele>
        <time>2020-08-17T08:19:44Z</time>
      </trkpt>
      <trkpt lat="44.81527" lon="6.04651">
        <ele>2145.8</ele>
        <time>2020-08-17T08:19:59Z</time>
      </trkpt>
      <trkpt lat="44.81517" lon="6.04655">
        <ele>2147.72</ele>
        <time>2020-08-17T08:20:13Z</time>
      </trkpt>
      <trkpt lat="44.81508" lon="6.04656">
        <ele>2149.16</ele>
        <time>2020-08-17T08:20:28Z</time>
      </trkpt>
      <trkpt lat="44.81497" lon="6.04656">
        <ele>2151.09</ele>
        <time>2020-08-17T08:20:44Z</time>
      </trkpt>
      <trkpt lat="44.81496" lon="6.04656">
        <ele>2151.57</ele>
        <time>2020-08-17T08:20:45Z</time>
      </trkpt>
      <trkpt lat="44.81486" lon="6.04655">
        <ele>2153.97</ele>
        <time>2020-08-17T08:21:00Z</time>
      </trkpt>
      <trkpt lat="44.81476" lon="6.04654">
        <ele>2155.89</ele>
        <time>2020-08-17T08:21:16Z</time>
      </trkpt>
      <trkpt lat="44.81466" lon="6.04651">
        <ele>2157.82</ele>
        <time>2020-08-17T08:21:31Z</time>
      </trkpt>
      <trkpt lat="44.81455" lon="6.04648">
        <ele>2159.26</ele>
        <time>2020-08-17T08:21:46Z</time>
      </trkpt>
      <trkpt lat="44.81445" lon="6.04647">
        <ele>2161.66</ele>
        <time>2020-08-17T08:22:03Z</time>
      </trkpt>
      <trkpt lat="44.81437" lon="6.04643">
        <ele>2163.58</ele>
        <time>2020-08-17T08:22:16Z</time>
      </trkpt>
      <trkpt lat="44.81431" lon="6.04643">
        <ele>2165.51</ele>
        <time>2020-08-17T08:22:30Z</time>
      </trkpt>
      <trkpt lat="44.81424" lon="6.04642">
        <ele>2167.91</ele>
        <time>2020-08-17T08:22:48Z</time>
      </trkpt>
      <trkpt lat="44.81417" lon="6.04635">
        <ele>2169.83</ele>
        <time>2020-08-17T08:23:04Z</time>
      </trkpt>
      <trkpt lat="44.81412" lon="6.04635">
        <ele>2171.76</ele>
        <time>2020-08-17T08:23:17Z</time>
      </trkpt>
      <trkpt lat="44.81415" lon="6.04649">
        <ele>2173.2</ele>
        <time>2020-08-17T08:23:34Z</time>
      </trkpt>
      <trkpt lat="44.81422" lon="6.0466">
        <ele>2175.6</ele>
        <time>2020-08-17T08:23:53Z</time>
      </trkpt>
      <trkpt lat="44.81427" lon="6.04671">
        <ele>2178</ele>
        <time>2020-08-17T08:24:09Z</time>
      </trkpt>
      <trkpt lat="44.81437" lon="6.04676">
        <ele>2179.45</ele>
        <time>2020-08-17T08:24:25Z</time>
      </trkpt>
      <trkpt lat="44.81444" lon="6.0468">
        <ele>2181.37</ele>
        <time>2020-08-17T08:24:40Z</time>
      </trkpt>
      <trkpt lat="44.81438" lon="6.04684">
        <ele>2182.81</ele>
        <time>2020-08-17T08:24:52Z</time>
      </trkpt>
      <trkpt lat="44.8143" lon="6.04692">
        <ele>2185.21</ele>
        <time>2020-08-17T08:25:07Z</time>
      </trkpt>
      <trkpt lat="44.81426" lon="6.04698">
        <ele>2186.66</ele>
        <time>2020-08-17T08:25:19Z</time>
      </trkpt>
      <trkpt lat="44.81421" lon="6.04704">
        <ele>2188.1</ele>
        <time>2020-08-17T08:25:31Z</time>
      </trkpt>
      <trkpt lat="44.81425" lon="6.04709">
        <ele>2189.54</ele>
        <time>2020-08-17T08:25:46Z</time>
      </trkpt>
      <trkpt lat="44.81437" lon="6.04708">
        <ele>2192.42</ele>
        <time>2020-08-17T08:26:06Z</time>
      </trkpt>
      <trkpt lat="44.81445" lon="6.04712">
        <ele>2194.35</ele>
        <time>2020-08-17T08:26:24Z</time>
      </trkpt>
      <trkpt lat="44.81441" lon="6.04722">
        <ele>2195.79</ele>
        <time>2020-08-17T08:26:34Z</time>
      </trkpt>
      <trkpt lat="44.81436" lon="6.04728">
        <ele>2196.27</ele>
        <time>2020-08-17T08:26:41Z</time>
      </trkpt>
      <trkpt lat="44.81434" lon="6.04741">
        <ele>2198.19</ele>
        <time>2020-08-17T08:26:55Z</time>
      </trkpt>
      <trkpt lat="44.81428" lon="6.04751">
        <ele>2200.11</ele>
        <time>2020-08-17T08:27:10Z</time>
      </trkpt>
      <trkpt lat="44.81422" lon="6.0476">
        <ele>2202.04</ele>
        <time>2020-08-17T08:27:25Z</time>
      </trkpt>
      <trkpt lat="44.81417" lon="6.04769">
        <ele>2203</ele>
        <time>2020-08-17T08:27:40Z</time>
      </trkpt>
      <trkpt lat="44.81406" lon="6.0477">
        <ele>2205.4</ele>
        <time>2020-08-17T08:27:59Z</time>
      </trkpt>
      <trkpt lat="44.81399" lon="6.04761">
        <ele>2207.81</ele>
        <time>2020-08-17T08:28:16Z</time>
      </trkpt>
      <trkpt lat="44.814" lon="6.04769">
        <ele>2209.25</ele>
        <time>2020-08-17T08:28:28Z</time>
      </trkpt>
      <trkpt lat="44.81403" lon="6.04784">
        <ele>2211.65</ele>
        <time>2020-08-17T08:28:43Z</time>
      </trkpt>
      <trkpt lat="44.8141" lon="6.04795">
        <ele>2213.57</ele>
        <time>2020-08-17T08:28:58Z</time>
      </trkpt>
      <trkpt lat="44.81424" lon="6.04804">
        <ele>2216.94</ele>
        <time>2020-08-17T08:29:21Z</time>
      </trkpt>
      <trkpt lat="44.81433" lon="6.04808">
        <ele>2218.86</ele>
        <time>2020-08-17T08:29:40Z</time>
      </trkpt>
      <trkpt lat="44.81446" lon="6.04816">
        <ele>2221.74</ele>
        <time>2020-08-17T08:30:02Z</time>
      </trkpt>
      <trkpt lat="44.81458" lon="6.04823">
        <ele>2224.63</ele>
        <time>2020-08-17T08:30:23Z</time>
      </trkpt>
      <trkpt lat="44.81464" lon="6.04829">
        <ele>2226.07</ele>
        <time>2020-08-17T08:30:42Z</time>
      </trkpt>
      <trkpt lat="44.8146" lon="6.04839">
        <ele>2227.51</ele>
        <time>2020-08-17T08:30:56Z</time>
      </trkpt>
      <trkpt lat="44.81456" lon="6.04852">
        <ele>2229.43</ele>
        <time>2020-08-17T08:31:12Z</time>
      </trkpt>
      <trkpt lat="44.81455" lon="6.04867">
        <ele>2231.84</ele>
        <time>2020-08-17T08:31:31Z</time>
      </trkpt>
      <trkpt lat="44.81447" lon="6.04873">
        <ele>2233.76</ele>
        <time>2020-08-17T08:31:46Z</time>
      </trkpt>
      <trkpt lat="44.81456" lon="6.04887">
        <ele>2236.16</ele>
        <time>2020-08-17T08:32:09Z</time>
      </trkpt>
      <trkpt lat="44.81469" lon="6.04894">
        <ele>2239.53</ele>
        <time>2020-08-17T08:32:30Z</time>
      </trkpt>
      <trkpt lat="44.81481" lon="6.04904">
        <ele>2242.41</ele>
        <time>2020-08-17T08:32:51Z</time>
      </trkpt>
      <trkpt lat="44.81472" lon="6.04913">
        <ele>2243.85</ele>
        <time>2020-08-17T08:33:07Z</time>
      </trkpt>
      <trkpt lat="44.81466" lon="6.0492">
        <ele>2245.78</ele>
        <time>2020-08-17T08:33:21Z</time>
      </trkpt>
      <trkpt lat="44.81458" lon="6.04929">
        <ele>2248.18</ele>
        <time>2020-08-17T08:33:39Z</time>
      </trkpt>
      <trkpt lat="44.81448" lon="6.04929">
        <ele>2250.58</ele>
        <time>2020-08-17T08:33:54Z</time>
      </trkpt>
      <trkpt lat="44.8144" lon="6.04935">
        <ele>2252.03</ele>
        <time>2020-08-17T08:34:09Z</time>
      </trkpt>
      <trkpt lat="44.8143" lon="6.04935">
        <ele>2253.95</ele>
        <time>2020-08-17T08:34:24Z</time>
      </trkpt>
      <trkpt lat="44.81422" lon="6.04935">
        <ele>2255.39</ele>
        <time>2020-08-17T08:34:36Z</time>
      </trkpt>
      <trkpt lat="44.81415" lon="6.04943">
        <ele>2257.31</ele>
        <time>2020-08-17T08:34:50Z</time>
      </trkpt>
      <trkpt lat="44.81406" lon="6.04948">
        <ele>2259.24</ele>
        <time>2020-08-17T08:35:04Z</time>
      </trkpt>
      <trkpt lat="44.814" lon="6.04955">
        <ele>2260.68</ele>
        <time>2020-08-17T08:35:16Z</time>
      </trkpt>
      <trkpt lat="44.81391" lon="6.04963">
        <ele>2262.6</ele>
        <time>2020-08-17T08:35:34Z</time>
      </trkpt>
      <trkpt lat="44.81384" lon="6.04972">
        <ele>2265</ele>
        <time>2020-08-17T08:35:52Z</time>
      </trkpt>
      <trkpt lat="44.8138" lon="6.04977">
        <ele>2266.93</ele>
        <time>2020-08-17T08:36:06Z</time>
      </trkpt>
      <trkpt lat="44.81369" lon="6.0498">
        <ele>2269.33</ele>
        <time>2020-08-17T08:36:23Z</time>
      </trkpt>
      <trkpt lat="44.81377" lon="6.04988">
        <ele>2271.25</ele>
        <time>2020-08-17T08:36:38Z</time>
      </trkpt>
      <trkpt lat="44.81387" lon="6.04995">
        <ele>2273.17</ele>
        <time>2020-08-17T08:36:55Z</time>
      </trkpt>
      <trkpt lat="44.81395" lon="6.04997">
        <ele>2275.1</ele>
        <time>2020-08-17T08:37:10Z</time>
      </trkpt>
      <trkpt lat="44.81405" lon="6.04999">
        <ele>2277.02</ele>
        <time>2020-08-17T08:37:28Z</time>
      </trkpt>
      <trkpt lat="44.81412" lon="6.05008">
        <ele>2279.42</ele>
        <time>2020-08-17T08:37:47Z</time>
      </trkpt>
      <trkpt lat="44.81417" lon="6.05018">
        <ele>2281.35</ele>
        <time>2020-08-17T08:38:06Z</time>
      </trkpt>
      <trkpt lat="44.81428" lon="6.05029">
        <ele>2282.79</ele>
        <time>2020-08-17T08:38:30Z</time>
      </trkpt>
      <trkpt lat="44.81439" lon="6.05033">
        <ele>2284.71</ele>
        <time>2020-08-17T08:38:51Z</time>
      </trkpt>
      <trkpt lat="44.81449" lon="6.05035">
        <ele>2286.63</ele>
        <time>2020-08-17T08:39:07Z</time>
      </trkpt>
      <trkpt lat="44.81459" lon="6.05038">
        <ele>2289.04</ele>
        <time>2020-08-17T08:39:25Z</time>
      </trkpt>
      <trkpt lat="44.81468" lon="6.05042">
        <ele>2291.44</ele>
        <time>2020-08-17T08:39:44Z</time>
      </trkpt>
      <trkpt lat="44.81476" lon="6.05047">
        <ele>2292.88</ele>
        <time>2020-08-17T08:40:02Z</time>
      </trkpt>
      <trkpt lat="44.81485" lon="6.05047">
        <ele>2294.8</ele>
        <time>2020-08-17T08:40:20Z</time>
      </trkpt>
      <trkpt lat="44.81493" lon="6.05053">
        <ele>2296.73</ele>
        <time>2020-08-17T08:40:35Z</time>
      </trkpt>
      <trkpt lat="44.81504" lon="6.05057">
        <ele>2298.65</ele>
        <time>2020-08-17T08:40:54Z</time>
      </trkpt>
      <trkpt lat="44.81514" lon="6.05057">
        <ele>2300.57</ele>
        <time>2020-08-17T08:41:12Z</time>
      </trkpt>
      <trkpt lat="44.81521" lon="6.05062">
        <ele>2303.94</ele>
        <time>2020-08-17T08:41:31Z</time>
      </trkpt>
      <trkpt lat="44.8151" lon="6.05064">
        <ele>2305.86</ele>
        <time>2020-08-17T08:41:47Z</time>
      </trkpt>
      <trkpt lat="44.81504" lon="6.0507">
        <ele>2307.78</ele>
        <time>2020-08-17T08:42:00Z</time>
      </trkpt>
      <trkpt lat="44.81496" lon="6.05073">
        <ele>2308.74</ele>
        <time>2020-08-17T08:42:14Z</time>
      </trkpt>
      <trkpt lat="44.81488" lon="6.05073">
        <ele>2309.22</ele>
        <time>2020-08-17T08:42:29Z</time>
      </trkpt>
      <trkpt lat="44.81481" lon="6.0508">
        <ele>2310.19</ele>
        <time>2020-08-17T08:42:45Z</time>
      </trkpt>
      <trkpt lat="44.81471" lon="6.05085">
        <ele>2312.11</ele>
        <time>2020-08-17T08:43:03Z</time>
      </trkpt>
      <trkpt lat="44.81465" lon="6.05088">
        <ele>2314.03</ele>
        <time>2020-08-17T08:43:17Z</time>
      </trkpt>
      <trkpt lat="44.81457" lon="6.05092">
        <ele>2314.99</ele>
        <time>2020-08-17T08:43:33Z</time>
      </trkpt>
      <trkpt lat="44.81448" lon="6.05099">
        <ele>2317.4</ele>
        <time>2020-08-17T08:43:50Z</time>
      </trkpt>
      <trkpt lat="44.81442" lon="6.05104">
        <ele>2318.84</ele>
        <time>2020-08-17T08:44:05Z</time>
      </trkpt>
      <trkpt lat="44.81434" lon="6.0511">
        <ele>2320.76</ele>
        <time>2020-08-17T08:44:23Z</time>
      </trkpt>
      <trkpt lat="44.81426" lon="6.05117">
        <ele>2322.2</ele>
        <time>2020-08-17T08:44:41Z</time>
      </trkpt>
      <trkpt lat="44.81422" lon="6.05121">
        <ele>2323.64</ele>
        <time>2020-08-17T08:44:56Z</time>
      </trkpt>
      <trkpt lat="44.81417" lon="6.05122">
        <ele>2324.61</ele>
        <time>2020-08-17T08:45:13Z</time>
      </trkpt>
      <trkpt lat="44.81411" lon="6.05129">
        <ele>2326.05</ele>
        <time>2020-08-17T08:45:29Z</time>
      </trkpt>
      <trkpt lat="44.81404" lon="6.05133">
        <ele>2328.45</ele>
        <time>2020-08-17T08:45:44Z</time>
      </trkpt>
      <trkpt lat="44.81398" lon="6.05139">
        <ele>2330.37</ele>
        <time>2020-08-17T08:46:01Z</time>
      </trkpt>
      <trkpt lat="44.81402" lon="6.05144">
        <ele>2333.74</ele>
        <time>2020-08-17T08:46:15Z</time>
      </trkpt>
      <trkpt lat="44.81413" lon="6.05147">
        <ele>2336.62</ele>
        <time>2020-08-17T08:46:32Z</time>
      </trkpt>
      <trkpt lat="44.8142" lon="6.05148">
        <ele>2339.02</ele>
        <time>2020-08-17T08:46:48Z</time>
      </trkpt>
      <trkpt lat="44.81429" lon="6.05151">
        <ele>2340.47</ele>
        <time>2020-08-17T08:47:08Z</time>
      </trkpt>
      <trkpt lat="44.81436" lon="6.05151">
        <ele>2341.91</ele>
        <time>2020-08-17T08:47:24Z</time>
      </trkpt>
      <trkpt lat="44.81444" lon="6.05152">
        <ele>2343.83</ele>
        <time>2020-08-17T08:47:42Z</time>
      </trkpt>
      <trkpt lat="44.81453" lon="6.05152">
        <ele>2346.23</ele>
        <time>2020-08-17T08:48:00Z</time>
      </trkpt>
      <trkpt lat="44.8146" lon="6.05154">
        <ele>2347.68</ele>
        <time>2020-08-17T08:48:13Z</time>
      </trkpt>
      <trkpt lat="44.81465" lon="6.05155">
        <ele>2349.6</ele>
        <time>2020-08-17T08:48:28Z</time>
      </trkpt>
      <trkpt lat="44.8146" lon="6.05158">
        <ele>2351.04</ele>
        <time>2020-08-17T08:48:42Z</time>
      </trkpt>
      <trkpt lat="44.81454" lon="6.05161">
        <ele>2352</ele>
        <time>2020-08-17T08:48:55Z</time>
      </trkpt>
      <trkpt lat="44.8145" lon="6.05166">
        <ele>2353.44</ele>
        <time>2020-08-17T08:49:10Z</time>
      </trkpt>
      <trkpt lat="44.81444" lon="6.05171">
        <ele>2355.37</ele>
        <time>2020-08-17T08:49:26Z</time>
      </trkpt>
      <trkpt lat="44.81438" lon="6.05177">
        <ele>2356.81</ele>
        <time>2020-08-17T08:49:41Z</time>
      </trkpt>
      <trkpt lat="44.81433" lon="6.05184">
        <ele>2358.25</ele>
        <time>2020-08-17T08:49:57Z</time>
      </trkpt>
      <trkpt lat="44.81427" lon="6.05192">
        <ele>2360.17</ele>
        <time>2020-08-17T08:50:11Z</time>
      </trkpt>
      <trkpt lat="44.81425" lon="6.05197">
        <ele>2361.62</ele>
        <time>2020-08-17T08:50:28Z</time>
      </trkpt>
      <trkpt lat="44.81424" lon="6.05199">
        <ele>2362.58</ele>
        <time>2020-08-17T08:50:59Z</time>
      </trkpt>
      <trkpt lat="44.81425" lon="6.05201">
        <ele>2364.02</ele>
        <time>2020-08-17T08:51:22Z</time>
      </trkpt>
      <trkpt lat="44.81424" lon="6.05201">
        <ele>2361.14</ele>
        <time>2020-08-17T08:51:31Z</time>
      </trkpt>
      <trkpt lat="44.81425" lon="6.052">
        <ele>2364.5</ele>
        <time>2020-08-17T08:51:34Z</time>
      </trkpt>
      <trkpt lat="44.81425" lon="6.052">
        <ele>2364.98</ele>
        <time>2020-08-17T08:51:36Z</time>
      </trkpt>
      <trkpt lat="44.81424" lon="6.05201">
        <ele>2362.1</ele>
        <time>2020-08-17T08:51:48Z</time>
      </trkpt>
      <trkpt lat="44.81423" lon="6.05201">
        <ele>2361.62</ele>
        <time>2020-08-17T08:52:16Z</time>
      </trkpt>
      <trkpt lat="44.81424" lon="6.052">
        <ele>2362.1</ele>
        <time>2020-08-17T08:52:42Z</time>
      </trkpt>
      <trkpt lat="44.81424" lon="6.05197">
        <ele>2364.02</ele>
        <time>2020-08-17T08:53:10Z</time>
      </trkpt>
      <trkpt lat="44.81423" lon="6.05198">
        <ele>2365.46</ele>
        <time>2020-08-17T08:53:25Z</time>
      </trkpt>
      <trkpt lat="44.81423" lon="6.05201">
        <ele>2364.98</ele>
        <time>2020-08-17T08:53:51Z</time>
      </trkpt>
      <trkpt lat="44.81419" lon="6.05205">
        <ele>2366.42</ele>
        <time>2020-08-17T08:54:07Z</time>
      </trkpt>
      <trkpt lat="44.81415" lon="6.05213">
        <ele>2367.38</ele>
        <time>2020-08-17T08:54:23Z</time>
      </trkpt>
      <trkpt lat="44.8141" lon="6.0522">
        <ele>2368.83</ele>
        <time>2020-08-17T08:54:38Z</time>
      </trkpt>
      <trkpt lat="44.81404" lon="6.05223">
        <ele>2370.75</ele>
        <time>2020-08-17T08:54:54Z</time>
      </trkpt>
      <trkpt lat="44.81399" lon="6.05227">
        <ele>2373.15</ele>
        <time>2020-08-17T08:55:11Z</time>
      </trkpt>
      <trkpt lat="44.81395" lon="6.0523">
        <ele>2374.59</ele>
        <time>2020-08-17T08:55:27Z</time>
      </trkpt>
      <trkpt lat="44.81394" lon="6.05233">
        <ele>2376.52</ele>
        <time>2020-08-17T08:55:50Z</time>
      </trkpt>
      <trkpt lat="44.81392" lon="6.05234">
        <ele>2376.52</ele>
        <time>2020-08-17T08:56:13Z</time>
      </trkpt>
      <trkpt lat="44.81388" lon="6.05235">
        <ele>2377</ele>
        <time>2020-08-17T08:56:34Z</time>
      </trkpt>
      <trkpt lat="44.81389" lon="6.05233">
        <ele>2377</ele>
        <time>2020-08-17T08:57:03Z</time>
      </trkpt>
      <trkpt lat="44.81395" lon="6.05235">
        <ele>2377</ele>
        <time>2020-08-17T08:57:29Z</time>
      </trkpt>
      <trkpt lat="44.81398" lon="6.05232">
        <ele>2377.48</ele>
        <time>2020-08-17T08:58:10Z</time>
      </trkpt>
      <trkpt lat="44.81394" lon="6.05232">
        <ele>2377.48</ele>
        <time>2020-08-17T08:58:38Z</time>
      </trkpt>
      <trkpt lat="44.81393" lon="6.05234">
        <ele>2377.48</ele>
        <time>2020-08-17T08:59:06Z</time>
      </trkpt>
      <trkpt lat="44.81387" lon="6.05233">
        <ele>2377.48</ele>
        <time>2020-08-17T08:59:32Z</time>
      </trkpt>
      <trkpt lat="44.81387" lon="6.05237">
        <ele>2377.48</ele>
        <time>2020-08-17T08:59:39Z</time>
      </trkpt>
      <trkpt lat="44.81392" lon="6.05237">
        <ele>2377.48</ele>
        <time>2020-08-17T08:59:57Z</time>
      </trkpt>
      <trkpt lat="44.81393" lon="6.05238">
        <ele>2377.48</ele>
        <time>2020-08-17T09:00:08Z</time>
      </trkpt>
      <trkpt lat="44.81393" lon="6.05234">
        <ele>2377.48</ele>
        <time>2020-08-17T09:00:27Z</time>
      </trkpt>
      <trkpt lat="44.81394" lon="6.05235">
        <ele>2377.48</ele>
        <time>2020-08-17T09:00:44Z</time>
      </trkpt>
      <trkpt lat="44.81398" lon="6.0524">
        <ele>2377.48</ele>
        <time>2020-08-17T09:00:55Z</time>
      </trkpt>
      <trkpt lat="44.81393" lon="6.05242">
        <ele>2377.48</ele>
        <time>2020-08-17T09:01:09Z</time>
      </trkpt>
      <trkpt lat="44.81397" lon="6.0525">
        <ele>2377.48</ele>
        <time>2020-08-17T09:01:25Z</time>
      </trkpt>
      <trkpt lat="44.81397" lon="6.05255">
        <ele>2377.48</ele>
        <time>2020-08-17T09:01:40Z</time>
      </trkpt>
      <trkpt lat="44.81393" lon="6.05256">
        <ele>2386.61</ele>
        <time>2020-08-17T09:01:50Z</time>
      </trkpt>
      <trkpt lat="44.81393" lon="6.05256">
        <ele>2387.09</ele>
        <time>2020-08-17T09:01:51Z</time>
      </trkpt>
      <trkpt lat="44.81388" lon="6.05253">
        <ele>2388.53</ele>
        <time>2020-08-17T09:02:06Z</time>
      </trkpt>
      <trkpt lat="44.81385" lon="6.05251">
        <ele>2391.42</ele>
        <time>2020-08-17T09:02:22Z</time>
      </trkpt>
      <trkpt lat="44.81379" lon="6.05246">
        <ele>2394.78</ele>
        <time>2020-08-17T09:02:41Z</time>
      </trkpt>
      <trkpt lat="44.81374" lon="6.05245">
        <ele>2398.15</ele>
        <time>2020-08-17T09:02:59Z</time>
      </trkpt>
      <trkpt lat="44.81373" lon="6.05255">
        <ele>2401.03</ele>
        <time>2020-08-17T09:03:19Z</time>
      </trkpt>
      <trkpt lat="44.81371" lon="6.05261">
        <ele>2403.43</ele>
        <time>2020-08-17T09:03:40Z</time>
      </trkpt>
      <trkpt lat="44.81372" lon="6.05271">
        <ele>2406.8</ele>
        <time>2020-08-17T09:03:59Z</time>
      </trkpt>
      <trkpt lat="44.81376" lon="6.05279">
        <ele>2409.68</ele>
        <time>2020-08-17T09:04:18Z</time>
      </trkpt>
      <trkpt lat="44.81378" lon="6.05286">
        <ele>2411.6</ele>
        <time>2020-08-17T09:04:32Z</time>
      </trkpt>
      <trkpt lat="44.8138" lon="6.05293">
        <ele>2414.01</ele>
        <time>2020-08-17T09:04:51Z</time>
      </trkpt>
      <trkpt lat="44.81382" lon="6.053">
        <ele>2416.41</ele>
        <time>2020-08-17T09:05:08Z</time>
      </trkpt>
      <trkpt lat="44.81386" lon="6.05309">
        <ele>2418.81</ele>
        <time>2020-08-17T09:05:27Z</time>
      </trkpt>
      <trkpt lat="44.81381" lon="6.05309">
        <ele>2421.7</ele>
        <time>2020-08-17T09:05:44Z</time>
      </trkpt>
      <trkpt lat="44.81378" lon="6.05309">
        <ele>2423.62</ele>
        <time>2020-08-17T09:05:59Z</time>
      </trkpt>
      <trkpt lat="44.81375" lon="6.05313">
        <ele>2426.02</ele>
        <time>2020-08-17T09:06:14Z</time>
      </trkpt>
      <trkpt lat="44.81378" lon="6.05316">
        <ele>2427.95</ele>
        <time>2020-08-17T09:06:29Z</time>
      </trkpt>
      <trkpt lat="44.81378" lon="6.05317">
        <ele>2429.87</ele>
        <time>2020-08-17T09:07:01Z</time>
      </trkpt>
      <trkpt lat="44.81379" lon="6.05321">
        <ele>2431.79</ele>
        <time>2020-08-17T09:07:37Z</time>
      </trkpt>
      <trkpt lat="44.8138" lon="6.05328">
        <ele>2433.71</ele>
        <time>2020-08-17T09:07:55Z</time>
      </trkpt>
      <trkpt lat="44.81378" lon="6.05334">
        <ele>2436.12</ele>
        <time>2020-08-17T09:08:12Z</time>
      </trkpt>
      <trkpt lat="44.81379" lon="6.05338">
        <ele>2437.56</ele>
        <time>2020-08-17T09:08:26Z</time>
      </trkpt>
      <trkpt lat="44.81384" lon="6.05338">
        <ele>2439.96</ele>
        <time>2020-08-17T09:08:40Z</time>
      </trkpt>
      <trkpt lat="44.81384" lon="6.05348">
        <ele>2442.37</ele>
        <time>2020-08-17T09:08:58Z</time>
      </trkpt>
      <trkpt lat="44.81383" lon="6.05356">
        <ele>2444.77</ele>
        <time>2020-08-17T09:09:16Z</time>
      </trkpt>
      <trkpt lat="44.81387" lon="6.05354">
        <ele>2447.17</ele>
        <time>2020-08-17T09:09:33Z</time>
      </trkpt>
      <trkpt lat="44.8139" lon="6.0536">
        <ele>2449.1</ele>
        <time>2020-08-17T09:09:48Z</time>
      </trkpt>
      <trkpt lat="44.8139" lon="6.05366">
        <ele>2451.98</ele>
        <time>2020-08-17T09:10:05Z</time>
      </trkpt>
      <trkpt lat="44.81392" lon="6.05373">
        <ele>2453.9</ele>
        <time>2020-08-17T09:10:22Z</time>
      </trkpt>
      <trkpt lat="44.81395" lon="6.05374">
        <ele>2455.34</ele>
        <time>2020-08-17T09:10:37Z</time>
      </trkpt>
      <trkpt lat="44.81397" lon="6.05374">
        <ele>2457.27</ele>
        <time>2020-08-17T09:10:51Z</time>
      </trkpt>
      <trkpt lat="44.814" lon="6.05376">
        <ele>2459.67</ele>
        <time>2020-08-17T09:11:09Z</time>
      </trkpt>
      <trkpt lat="44.81402" lon="6.0538">
        <ele>2461.59</ele>
        <time>2020-08-17T09:11:26Z</time>
      </trkpt>
      <trkpt lat="44.81404" lon="6.05384">
        <ele>2463.52</ele>
        <time>2020-08-17T09:11:40Z</time>
      </trkpt>
      <trkpt lat="44.81403" lon="6.05389">
        <ele>2464.96</ele>
        <time>2020-08-17T09:11:53Z</time>
      </trkpt>
      <trkpt lat="44.81401" lon="6.05392">
        <ele>2465.92</ele>
        <time>2020-08-17T09:12:04Z</time>
      </trkpt>
      <trkpt lat="44.81401" lon="6.05396">
        <ele>2466.4</ele>
        <time>2020-08-17T09:12:19Z</time>
      </trkpt>
      <trkpt lat="44.81402" lon="6.05399">
        <ele>2467.84</ele>
        <time>2020-08-17T09:12:33Z</time>
      </trkpt>
      <trkpt lat="44.81403" lon="6.05401">
        <ele>2470.73</ele>
        <time>2020-08-17T09:12:51Z</time>
      </trkpt>
      <trkpt lat="44.81406" lon="6.05404">
        <ele>2472.17</ele>
        <time>2020-08-17T09:13:07Z</time>
      </trkpt>
      <trkpt lat="44.81408" lon="6.05403">
        <ele>2473.61</ele>
        <time>2020-08-17T09:13:22Z</time>
      </trkpt>
      <trkpt lat="44.81411" lon="6.05399">
        <ele>2476.01</ele>
        <time>2020-08-17T09:13:38Z</time>
      </trkpt>
      <trkpt lat="44.81412" lon="6.05405">
        <ele>2477.94</ele>
        <time>2020-08-17T09:13:55Z</time>
      </trkpt>
      <trkpt lat="44.81413" lon="6.05409">
        <ele>2479.38</ele>
        <time>2020-08-17T09:14:10Z</time>
      </trkpt>
      <trkpt lat="44.81414" lon="6.05412">
        <ele>2480.34</ele>
        <time>2020-08-17T09:14:24Z</time>
      </trkpt>
      <trkpt lat="44.81419" lon="6.05413">
        <ele>2482.26</ele>
        <time>2020-08-17T09:14:39Z</time>
      </trkpt>
      <trkpt lat="44.81421" lon="6.05413">
        <ele>2484.18</ele>
        <time>2020-08-17T09:14:53Z</time>
      </trkpt>
      <trkpt lat="44.81421" lon="6.05416">
        <ele>2485.63</ele>
        <time>2020-08-17T09:15:09Z</time>
      </trkpt>
      <trkpt lat="44.81421" lon="6.05421">
        <ele>2488.03</ele>
        <time>2020-08-17T09:15:25Z</time>
      </trkpt>
      <trkpt lat="44.81423" lon="6.05426">
        <ele>2490.43</ele>
        <time>2020-08-17T09:15:41Z</time>
      </trkpt>
      <trkpt lat="44.81424" lon="6.05428">
        <ele>2492.36</ele>
        <time>2020-08-17T09:15:55Z</time>
      </trkpt>
      <trkpt lat="44.81427" lon="6.05431">
        <ele>2494.28</ele>
        <time>2020-08-17T09:16:11Z</time>
      </trkpt>
      <trkpt lat="44.81426" lon="6.05435">
        <ele>2496.2</ele>
        <time>2020-08-17T09:16:27Z</time>
      </trkpt>
      <trkpt lat="44.81428" lon="6.05439">
        <ele>2498.12</ele>
        <time>2020-08-17T09:16:42Z</time>
      </trkpt>
      <trkpt lat="44.81429" lon="6.05442">
        <ele>2500.05</ele>
        <time>2020-08-17T09:16:56Z</time>
      </trkpt>
      <trkpt lat="44.81428" lon="6.05445">
        <ele>2501.97</ele>
        <time>2020-08-17T09:17:10Z</time>
      </trkpt>
      <trkpt lat="44.81426" lon="6.05449">
        <ele>2503.89</ele>
        <time>2020-08-17T09:17:24Z</time>
      </trkpt>
      <trkpt lat="44.81427" lon="6.05451">
        <ele>2505.33</ele>
        <time>2020-08-17T09:17:39Z</time>
      </trkpt>
      <trkpt lat="44.81427" lon="6.05456">
        <ele>2507.74</ele>
        <time>2020-08-17T09:17:55Z</time>
      </trkpt>
      <trkpt lat="44.81432" lon="6.05457">
        <ele>2509.66</ele>
        <time>2020-08-17T09:18:11Z</time>
      </trkpt>
      <trkpt lat="44.81437" lon="6.0546">
        <ele>2512.06</ele>
        <time>2020-08-17T09:18:34Z</time>
      </trkpt>
      <trkpt lat="44.81441" lon="6.05461">
        <ele>2513.98</ele>
        <time>2020-08-17T09:18:51Z</time>
      </trkpt>
      <trkpt lat="44.8144" lon="6.05465">
        <ele>2515.43</ele>
        <time>2020-08-17T09:19:07Z</time>
      </trkpt>
      <trkpt lat="44.81443" lon="6.05468">
        <ele>2516.87</ele>
        <time>2020-08-17T09:19:21Z</time>
      </trkpt>
      <trkpt lat="44.81448" lon="6.0547">
        <ele>2519.75</ele>
        <time>2020-08-17T09:19:39Z</time>
      </trkpt>
      <trkpt lat="44.81448" lon="6.05474">
        <ele>2521.19</ele>
        <time>2020-08-17T09:19:55Z</time>
      </trkpt>
      <trkpt lat="44.81448" lon="6.05479">
        <ele>2523.6</ele>
        <time>2020-08-17T09:20:13Z</time>
      </trkpt>
      <trkpt lat="44.81452" lon="6.05481">
        <ele>2525.04</ele>
        <time>2020-08-17T09:20:29Z</time>
      </trkpt>
      <trkpt lat="44.81456" lon="6.05482">
        <ele>2527.44</ele>
        <time>2020-08-17T09:20:44Z</time>
      </trkpt>
      <trkpt lat="44.81452" lon="6.05487">
        <ele>2530.33</ele>
        <time>2020-08-17T09:21:02Z</time>
      </trkpt>
      <trkpt lat="44.81452" lon="6.0549">
        <ele>2531.77</ele>
        <time>2020-08-17T09:21:13Z</time>
      </trkpt>
      <trkpt lat="44.81455" lon="6.05494">
        <ele>2534.17</ele>
        <time>2020-08-17T09:21:29Z</time>
      </trkpt>
      <trkpt lat="44.81454" lon="6.05499">
        <ele>2536.58</ele>
        <time>2020-08-17T09:21:48Z</time>
      </trkpt>
      <trkpt lat="44.81458" lon="6.055">
        <ele>2538.98</ele>
        <time>2020-08-17T09:22:03Z</time>
      </trkpt>
      <trkpt lat="44.81457" lon="6.05503">
        <ele>2540.9</ele>
        <time>2020-08-17T09:22:20Z</time>
      </trkpt>
      <trkpt lat="44.81458" lon="6.05506">
        <ele>2542.34</ele>
        <time>2020-08-17T09:22:36Z</time>
      </trkpt>
      <trkpt lat="44.8146" lon="6.05506">
        <ele>2543.79</ele>
        <time>2020-08-17T09:22:52Z</time>
      </trkpt>
      <trkpt lat="44.8146" lon="6.05511">
        <ele>2546.19</ele>
        <time>2020-08-17T09:23:11Z</time>
      </trkpt>
      <trkpt lat="44.81461" lon="6.05513">
        <ele>2547.63</ele>
        <time>2020-08-17T09:23:25Z</time>
      </trkpt>
      <trkpt lat="44.81467" lon="6.05515">
        <ele>2550.03</ele>
        <time>2020-08-17T09:23:44Z</time>
      </trkpt>
      <trkpt lat="44.81469" lon="6.05519">
        <ele>2552.44</ele>
        <time>2020-08-17T09:23:59Z</time>
      </trkpt>
      <trkpt lat="44.81469" lon="6.05523">
        <ele>2554.36</ele>
        <time>2020-08-17T09:24:14Z</time>
      </trkpt>
      <trkpt lat="44.81467" lon="6.05526">
        <ele>2555.8</ele>
        <time>2020-08-17T09:24:29Z</time>
      </trkpt>
      <trkpt lat="44.81469" lon="6.0553">
        <ele>2558.21</ele>
        <time>2020-08-17T09:24:43Z</time>
      </trkpt>
      <trkpt lat="44.8147" lon="6.05532">
        <ele>2560.13</ele>
        <time>2020-08-17T09:25:04Z</time>
      </trkpt>
      <trkpt lat="44.81471" lon="6.05538">
        <ele>2561.57</ele>
        <time>2020-08-17T09:25:24Z</time>
      </trkpt>
      <trkpt lat="44.81475" lon="6.0554">
        <ele>2563.01</ele>
        <time>2020-08-17T09:25:38Z</time>
      </trkpt>
      <trkpt lat="44.81479" lon="6.05542">
        <ele>2565.9</ele>
        <time>2020-08-17T09:25:56Z</time>
      </trkpt>
      <trkpt lat="44.81478" lon="6.05545">
        <ele>2567.34</ele>
        <time>2020-08-17T09:26:08Z</time>
      </trkpt>
      <trkpt lat="44.8148" lon="6.05549">
        <ele>2568.78</ele>
        <time>2020-08-17T09:26:23Z</time>
      </trkpt>
      <trkpt lat="44.81481" lon="6.05553">
        <ele>2570.7</ele>
        <time>2020-08-17T09:26:41Z</time>
      </trkpt>
      <trkpt lat="44.81479" lon="6.05558">
        <ele>2572.63</ele>
        <time>2020-08-17T09:26:58Z</time>
      </trkpt>
      <trkpt lat="44.81476" lon="6.05562">
        <ele>2575.99</ele>
        <time>2020-08-17T09:27:13Z</time>
      </trkpt>
      <trkpt lat="44.81479" lon="6.05566">
        <ele>2577.91</ele>
        <time>2020-08-17T09:27:32Z</time>
      </trkpt>
      <trkpt lat="44.81485" lon="6.05567">
        <ele>2579.35</ele>
        <time>2020-08-17T09:27:47Z</time>
      </trkpt>
      <trkpt lat="44.81482" lon="6.05573">
        <ele>2581.28</ele>
        <time>2020-08-17T09:28:04Z</time>
      </trkpt>
      <trkpt lat="44.81484" lon="6.05573">
        <ele>2582.72</ele>
        <time>2020-08-17T09:28:24Z</time>
      </trkpt>
      <trkpt lat="44.81487" lon="6.05574">
        <ele>2583.68</ele>
        <time>2020-08-17T09:28:40Z</time>
      </trkpt>
      <trkpt lat="44.81487" lon="6.05577">
        <ele>2585.6</ele>
        <time>2020-08-17T09:29:00Z</time>
      </trkpt>
      <trkpt lat="44.81485" lon="6.0558">
        <ele>2587.53</ele>
        <time>2020-08-17T09:29:20Z</time>
      </trkpt>
      <trkpt lat="44.81487" lon="6.05585">
        <ele>2590.41</ele>
        <time>2020-08-17T09:29:42Z</time>
      </trkpt>
      <trkpt lat="44.81487" lon="6.05588">
        <ele>2591.85</ele>
        <time>2020-08-17T09:30:01Z</time>
      </trkpt>
      <trkpt lat="44.81486" lon="6.05589">
        <ele>2593.29</ele>
        <time>2020-08-17T09:30:28Z</time>
      </trkpt>
      <trkpt lat="44.81483" lon="6.05589">
        <ele>2593.77</ele>
        <time>2020-08-17T09:30:46Z</time>
      </trkpt>
      <trkpt lat="44.81487" lon="6.05594">
        <ele>2594.74</ele>
        <time>2020-08-17T09:31:03Z</time>
      </trkpt>
      <trkpt lat="44.81489" lon="6.05593">
        <ele>2596.18</ele>
        <time>2020-08-17T09:31:27Z</time>
      </trkpt>
      <trkpt lat="44.81491" lon="6.05594">
        <ele>2596.18</ele>
        <time>2020-08-17T09:31:40Z</time>
      </trkpt>
      <trkpt lat="44.81494" lon="6.05595">
        <ele>2598.1</ele>
        <time>2020-08-17T09:31:56Z</time>
      </trkpt>
      <trkpt lat="44.81496" lon="6.05593">
        <ele>2600.02</ele>
        <time>2020-08-17T09:32:12Z</time>
      </trkpt>
      <trkpt lat="44.81501" lon="6.05593">
        <ele>2601.95</ele>
        <time>2020-08-17T09:32:34Z</time>
      </trkpt>
      <trkpt lat="44.81501" lon="6.05595">
        <ele>2602.43</ele>
        <time>2020-08-17T09:33:09Z</time>
      </trkpt>
      <trkpt lat="44.81503" lon="6.05595">
        <ele>2604.35</ele>
        <time>2020-08-17T09:33:27Z</time>
      </trkpt>
      <trkpt lat="44.81502" lon="6.05597">
        <ele>2605.31</ele>
        <time>2020-08-17T09:33:47Z</time>
      </trkpt>
      <trkpt lat="44.81505" lon="6.05599">
        <ele>2607.23</ele>
        <time>2020-08-17T09:34:05Z</time>
      </trkpt>
      <trkpt lat="44.81509" lon="6.05602">
        <ele>2609.64</ele>
        <time>2020-08-17T09:34:25Z</time>
      </trkpt>
      <trkpt lat="44.81512" lon="6.05603">
        <ele>2611.08</ele>
        <time>2020-08-17T09:34:45Z</time>
      </trkpt>
      <trkpt lat="44.81511" lon="6.05601">
        <ele>2611.56</ele>
        <time>2020-08-17T09:35:12Z</time>
      </trkpt>
      <trkpt lat="44.81512" lon="6.05601">
        <ele>2612.52</ele>
        <time>2020-08-17T09:35:32Z</time>
      </trkpt>
      <trkpt lat="44.81514" lon="6.05602">
        <ele>2614.44</ele>
        <time>2020-08-17T09:35:51Z</time>
      </trkpt>
      <trkpt lat="44.81514" lon="6.056">
        <ele>2615.4</ele>
        <time>2020-08-17T09:36:21Z</time>
      </trkpt>
      <trkpt lat="44.81515" lon="6.056">
        <ele>2616.37</ele>
        <time>2020-08-17T09:36:45Z</time>
      </trkpt>
      <trkpt lat="44.81517" lon="6.056">
        <ele>2614.92</ele>
        <time>2020-08-17T09:37:16Z</time>
      </trkpt>
      <trkpt lat="44.81517" lon="6.056">
        <ele>2613.96</ele>
        <time>2020-08-17T09:37:18Z</time>
      </trkpt>
      <trkpt lat="44.81517" lon="6.05601">
        <ele>2616.85</ele>
        <time>2020-08-17T09:37:23Z</time>
      </trkpt>
      <trkpt lat="44.81517" lon="6.05601">
        <ele>2618.29</ele>
        <time>2020-08-17T09:37:35Z</time>
      </trkpt>
      <trkpt lat="44.81517" lon="6.056">
        <ele>2616.85</ele>
        <time>2020-08-17T09:38:00Z</time>
      </trkpt>
      <trkpt lat="44.81518" lon="6.056">
        <ele>2616.37</ele>
        <time>2020-08-17T09:38:19Z</time>
      </trkpt>
      <trkpt lat="44.81517" lon="6.05601">
        <ele>2615.4</ele>
        <time>2020-08-17T09:38:47Z</time>
      </trkpt>
      <trkpt lat="44.81519" lon="6.05605">
        <ele>2615.88</ele>
        <time>2020-08-17T09:39:20Z</time>
      </trkpt>
      <trkpt lat="44.8152" lon="6.05605">
        <ele>2616.85</ele>
        <time>2020-08-17T09:39:37Z</time>
      </trkpt>
      <trkpt lat="44.81519" lon="6.05606">
        <ele>2616.37</ele>
        <time>2020-08-17T09:40:08Z</time>
      </trkpt>
      <trkpt lat="44.81519" lon="6.05608">
        <ele>2618.29</ele>
        <time>2020-08-17T09:40:28Z</time>
      </trkpt>
      <trkpt lat="44.81522" lon="6.05611">
        <ele>2619.73</ele>
        <time>2020-08-17T09:40:48Z</time>
      </trkpt>
      <trkpt lat="44.81519" lon="6.05612">
        <ele>2622.61</ele>
        <time>2020-08-17T09:41:13Z</time>
      </trkpt>
      <trkpt lat="44.8152" lon="6.05614">
        <ele>2623.58</ele>
        <time>2020-08-17T09:41:30Z</time>
      </trkpt>
      <trkpt lat="44.8152" lon="6.05617">
        <ele>2625.98</ele>
        <time>2020-08-17T09:41:44Z</time>
      </trkpt>
      <trkpt lat="44.81523" lon="6.05621">
        <ele>2628.86</ele>
        <time>2020-08-17T09:42:06Z</time>
      </trkpt>
      <trkpt lat="44.81522" lon="6.05622">
        <ele>2630.79</ele>
        <time>2020-08-17T09:42:23Z</time>
      </trkpt>
      <trkpt lat="44.81522" lon="6.05622">
        <ele>2631.27</ele>
        <time>2020-08-17T09:42:44Z</time>
      </trkpt>
      <trkpt lat="44.8152" lon="6.05623">
        <ele>2630.79</ele>
        <time>2020-08-17T09:43:04Z</time>
      </trkpt>
      <trkpt lat="44.81519" lon="6.05623">
        <ele>2632.71</ele>
        <time>2020-08-17T09:43:29Z</time>
      </trkpt>
      <trkpt lat="44.8152" lon="6.05622">
        <ele>2632.23</ele>
        <time>2020-08-17T09:43:58Z</time>
      </trkpt>
      <trkpt lat="44.81521" lon="6.05624">
        <ele>2633.67</ele>
        <time>2020-08-17T09:44:25Z</time>
      </trkpt>
      <trkpt lat="44.81525" lon="6.0563">
        <ele>2635.11</ele>
        <time>2020-08-17T09:44:41Z</time>
      </trkpt>
      <trkpt lat="44.81527" lon="6.05632">
        <ele>2636.55</ele>
        <time>2020-08-17T09:45:01Z</time>
      </trkpt>
      <trkpt lat="44.81525" lon="6.05633">
        <ele>2635.59</ele>
        <time>2020-08-17T09:45:25Z</time>
      </trkpt>
      <trkpt lat="44.81524" lon="6.05633">
        <ele>2636.07</ele>
        <time>2020-08-17T09:45:48Z</time>
      </trkpt>
      <trkpt lat="44.81523" lon="6.05634">
        <ele>2635.59</ele>
        <time>2020-08-17T09:46:15Z</time>
      </trkpt>
      <trkpt lat="44.81523" lon="6.05637">
        <ele>2636.55</ele>
        <time>2020-08-17T09:46:31Z</time>
      </trkpt>
      <trkpt lat="44.81525" lon="6.0564">
        <ele>2639.92</ele>
        <time>2020-08-17T09:46:46Z</time>
      </trkpt>
      <trkpt lat="44.81525" lon="6.05642">
        <ele>2641.84</ele>
        <time>2020-08-17T09:47:01Z</time>
      </trkpt>
      <trkpt lat="44.81526" lon="6.05645">
        <ele>2643.76</ele>
        <time>2020-08-17T09:47:20Z</time>
      </trkpt>
      <trkpt lat="44.81528" lon="6.05646">
        <ele>2645.21</ele>
        <time>2020-08-17T09:47:35Z</time>
      </trkpt>
      <trkpt lat="44.81528" lon="6.05648">
        <ele>2647.61</ele>
        <time>2020-08-17T09:47:52Z</time>
      </trkpt>
      <trkpt lat="44.81529" lon="6.0565">
        <ele>2648.57</ele>
        <time>2020-08-17T09:48:07Z</time>
      </trkpt>
      <trkpt lat="44.81527" lon="6.05651">
        <ele>2650.49</ele>
        <time>2020-08-17T09:48:23Z</time>
      </trkpt>
      <trkpt lat="44.81519" lon="6.05652">
        <ele>2652.42</ele>
        <time>2020-08-17T09:48:44Z</time>
      </trkpt>
      <trkpt lat="44.81517" lon="6.05652">
        <ele>2652.9</ele>
        <time>2020-08-17T09:48:55Z</time>
      </trkpt>
      <trkpt lat="44.81518" lon="6.05652">
        <ele>2653.86</ele>
        <time>2020-08-17T09:49:13Z</time>
      </trkpt>
      <trkpt lat="44.81521" lon="6.05654">
        <ele>2655.3</ele>
        <time>2020-08-17T09:49:39Z</time>
      </trkpt>
      <trkpt lat="44.81524" lon="6.05656">
        <ele>2657.22</ele>
        <time>2020-08-17T09:49:57Z</time>
      </trkpt>
      <trkpt lat="44.81525" lon="6.05657">
        <ele>2657.7</ele>
        <time>2020-08-17T09:50:26Z</time>
      </trkpt>
      <trkpt lat="44.81526" lon="6.05661">
        <ele>2659.14</ele>
        <time>2020-08-17T09:50:43Z</time>
      </trkpt>
      <trkpt lat="44.81523" lon="6.05661">
        <ele>2661.07</ele>
        <time>2020-08-17T09:51:01Z</time>
      </trkpt>
      <trkpt lat="44.81518" lon="6.05669">
        <ele>2663.47</ele>
        <time>2020-08-17T09:51:23Z</time>
      </trkpt>
      <trkpt lat="44.81514" lon="6.05673">
        <ele>2664.91</ele>
        <time>2020-08-17T09:51:41Z</time>
      </trkpt>
      <trkpt lat="44.81512" lon="6.05678">
        <ele>2666.35</ele>
        <time>2020-08-17T09:51:59Z</time>
      </trkpt>
      <trkpt lat="44.81516" lon="6.05679">
        <ele>2668.76</ele>
        <time>2020-08-17T09:52:13Z</time>
      </trkpt>
      <trkpt lat="44.81517" lon="6.05682">
        <ele>2671.64</ele>
        <time>2020-08-17T09:52:32Z</time>
      </trkpt>
      <trkpt lat="44.81522" lon="6.05683">
        <ele>2673.56</ele>
        <time>2020-08-17T09:52:46Z</time>
      </trkpt>
      <trkpt lat="44.81525" lon="6.05686">
        <ele>2675.97</ele>
        <time>2020-08-17T09:53:07Z</time>
      </trkpt>
      <trkpt lat="44.81525" lon="6.05688">
        <ele>2677.89</ele>
        <time>2020-08-17T09:53:25Z</time>
      </trkpt>
      <trkpt lat="44.81526" lon="6.05692">
        <ele>2679.81</ele>
        <time>2020-08-17T09:53:44Z</time>
      </trkpt>
      <trkpt lat="44.81526" lon="6.05694">
        <ele>2680.77</ele>
        <time>2020-08-17T09:54:03Z</time>
      </trkpt>
      <trkpt lat="44.81523" lon="6.05696">
        <ele>2681.25</ele>
        <time>2020-08-17T09:54:28Z</time>
      </trkpt>
      <trkpt lat="44.81521" lon="6.05697">
        <ele>2682.22</ele>
        <time>2020-08-17T09:54:47Z</time>
      </trkpt>
      <trkpt lat="44.81517" lon="6.05699">
        <ele>2683.18</ele>
        <time>2020-08-17T09:55:06Z</time>
      </trkpt>
      <trkpt lat="44.81517" lon="6.05698">
        <ele>2684.62</ele>
        <time>2020-08-17T09:55:28Z</time>
      </trkpt>
      <trkpt lat="44.81517" lon="6.057">
        <ele>2685.58</ele>
        <time>2020-08-17T09:55:48Z</time>
      </trkpt>
      <trkpt lat="44.81522" lon="6.05703">
        <ele>2687.02</ele>
        <time>2020-08-17T09:56:03Z</time>
      </trkpt>
      <trkpt lat="44.81527" lon="6.05709">
        <ele>2689.43</ele>
        <time>2020-08-17T09:56:19Z</time>
      </trkpt>
      <trkpt lat="44.81531" lon="6.0571">
        <ele>2689.91</ele>
        <time>2020-08-17T09:56:38Z</time>
      </trkpt>
      <trkpt lat="44.81534" lon="6.05714">
        <ele>2689.91</ele>
        <time>2020-08-17T09:56:57Z</time>
      </trkpt>
      <trkpt lat="44.81537" lon="6.05719">
        <ele>2690.87</ele>
        <time>2020-08-17T09:57:12Z</time>
      </trkpt>
      <trkpt lat="44.8154" lon="6.05722">
        <ele>2692.31</ele>
        <time>2020-08-17T09:57:27Z</time>
      </trkpt>
      <trkpt lat="44.81542" lon="6.05725">
        <ele>2694.23</ele>
        <time>2020-08-17T09:57:42Z</time>
      </trkpt>
      <trkpt lat="44.81545" lon="6.05727">
        <ele>2695.67</ele>
        <time>2020-08-17T09:58:01Z</time>
      </trkpt>
      <trkpt lat="44.81548" lon="6.05729">
        <ele>2696.64</ele>
        <time>2020-08-17T09:58:16Z</time>
      </trkpt>
      <trkpt lat="44.81551" lon="6.05732">
        <ele>2697.12</ele>
        <time>2020-08-17T09:58:29Z</time>
      </trkpt>
      <trkpt lat="44.81553" lon="6.05734">
        <ele>2699.52</ele>
        <time>2020-08-17T09:58:44Z</time>
      </trkpt>
      <trkpt lat="44.81557" lon="6.05731">
        <ele>2701.44</ele>
        <time>2020-08-17T09:59:02Z</time>
      </trkpt>
      <trkpt lat="44.81557" lon="6.05729">
        <ele>2701.92</ele>
        <time>2020-08-17T09:59:37Z</time>
      </trkpt>
      <trkpt lat="44.81556" lon="6.05729">
        <ele>2702.4</ele>
        <time>2020-08-17T10:00:04Z</time>
      </trkpt>
      <trkpt lat="44.81556" lon="6.0573">
        <ele>2701.92</ele>
        <time>2020-08-17T10:00:33Z</time>
      </trkpt>
      <trkpt lat="44.81556" lon="6.0573">
        <ele>2701.92</ele>
        <time>2020-08-17T10:00:56Z</time>
      </trkpt>
      <trkpt lat="44.81556" lon="6.0573">
        <ele>2701.92</ele>
        <time>2020-08-17T10:01:12Z</time>
      </trkpt>
      <trkpt lat="44.81556" lon="6.0573">
        <ele>2701.92</ele>
        <time>2020-08-17T10:01:33Z</time>
      </trkpt>
      <trkpt lat="44.81557" lon="6.0573">
        <ele>2701.92</ele>
        <time>2020-08-17T10:01:51Z</time>
      </trkpt>
      <trkpt lat="44.81561" lon="6.0573">
        <ele>2701.92</ele>
        <time>2020-08-17T10:02:10Z</time>
      </trkpt>
      <trkpt lat="44.81561" lon="6.05731">
        <ele>2701.92</ele>
        <time>2020-08-17T10:02:49Z</time>
      </trkpt>
      <trkpt lat="44.81561" lon="6.05731">
        <ele>2701.92</ele>
        <time>2020-08-17T10:03:44Z</time>
      </trkpt>
      <trkpt lat="44.81562" lon="6.05731">
        <ele>2701.92</ele>
        <time>2020-08-17T10:04:21Z</time>
      </trkpt>
      <trkpt lat="44.81561" lon="6.05731">
        <ele>2701.92</ele>
        <time>2020-08-17T10:05:30Z</time>
      </trkpt>
      <trkpt lat="44.81561" lon="6.05731">
        <ele>2701.92</ele>
        <time>2020-08-17T10:06:15Z</time>
      </trkpt>
      <trkpt lat="44.81563" lon="6.05731">
        <ele>2701.92</ele>
        <time>2020-08-17T10:06:58Z</time>
      </trkpt>
      <trkpt lat="44.81562" lon="6.0573">
        <ele>2701.92</ele>
        <time>2020-08-17T10:07:56Z</time>
      </trkpt>
      <trkpt lat="44.81564" lon="6.05732">
        <ele>2701.92</ele>
        <time>2020-08-17T10:08:28Z</time>
      </trkpt>
      <trkpt lat="44.81565" lon="6.05732">
        <ele>2701.92</ele>
        <time>2020-08-17T10:08:59Z</time>
      </trkpt>
      <trkpt lat="44.81565" lon="6.05731">
        <ele>2701.92</ele>
        <time>2020-08-17T10:09:49Z</time>
      </trkpt>
      <trkpt lat="44.81564" lon="6.0573">
        <ele>2701.92</ele>
        <time>2020-08-17T10:10:24Z</time>
      </trkpt>
      <trkpt lat="44.81565" lon="6.0573">
        <ele>2701.92</ele>
        <time>2020-08-17T10:11:04Z</time>
      </trkpt>
      <trkpt lat="44.81564" lon="6.05731">
        <ele>2701.92</ele>
        <time>2020-08-17T10:11:37Z</time>
      </trkpt>
      <trkpt lat="44.81561" lon="6.0573">
        <ele>2701.92</ele>
        <time>2020-08-17T10:11:56Z</time>
      </trkpt>
      <trkpt lat="44.81556" lon="6.05728">
        <ele>2701.92</ele>
        <time>2020-08-17T10:12:10Z</time>
      </trkpt>
      <trkpt lat="44.81554" lon="6.05729">
        <ele>2701.92</ele>
        <time>2020-08-17T10:12:49Z</time>
      </trkpt>
      <trkpt lat="44.81554" lon="6.0573">
        <ele>2701.92</ele>
        <time>2020-08-17T10:13:30Z</time>
      </trkpt>
      <trkpt lat="44.81555" lon="6.05729">
        <ele>2701.92</ele>
        <time>2020-08-17T10:13:59Z</time>
      </trkpt>
      <trkpt lat="44.81555" lon="6.05729">
        <ele>2701.92</ele>
        <time>2020-08-17T10:14:46Z</time>
      </trkpt>
      <trkpt lat="44.81557" lon="6.05729">
        <ele>2701.92</ele>
        <time>2020-08-17T10:15:14Z</time>
      </trkpt>
      <trkpt lat="44.81559" lon="6.05729">
        <ele>2701.92</ele>
        <time>2020-08-17T10:16:04Z</time>
      </trkpt>
      <trkpt lat="44.8156" lon="6.0573">
        <ele>2701.92</ele>
        <time>2020-08-17T10:16:59Z</time>
      </trkpt>
      <trkpt lat="44.8156" lon="6.0573">
        <ele>2701.92</ele>
        <time>2020-08-17T10:18:08Z</time>
      </trkpt>
      <trkpt lat="44.8156" lon="6.0573">
        <ele>2701.92</ele>
        <time>2020-08-17T10:18:43Z</time>
      </trkpt>
      <trkpt lat="44.81558" lon="6.05731">
        <ele>2701.92</ele>
        <time>2020-08-17T10:19:19Z</time>
      </trkpt>
      <trkpt lat="44.81556" lon="6.05732">
        <ele>2701.92</ele>
        <time>2020-08-17T10:19:53Z</time>
      </trkpt>
      <trkpt lat="44.81556" lon="6.05731">
        <ele>2701.92</ele>
        <time>2020-08-17T10:20:25Z</time>
      </trkpt>
      <trkpt lat="44.81557" lon="6.0573">
        <ele>2701.92</ele>
        <time>2020-08-17T10:21:10Z</time>
      </trkpt>
      <trkpt lat="44.81557" lon="6.05729">
        <ele>2701.92</ele>
        <time>2020-08-17T10:22:15Z</time>
      </trkpt>
      <trkpt lat="44.81555" lon="6.0573">
        <ele>2701.92</ele>
        <time>2020-08-17T10:23:31Z</time>
      </trkpt>
      <trkpt lat="44.81556" lon="6.0573">
        <ele>2701.92</ele>
        <time>2020-08-17T10:25:02Z</time>
      </trkpt>
      <trkpt lat="44.81556" lon="6.05729">
        <ele>2701.92</ele>
        <time>2020-08-17T10:26:37Z</time>
      </trkpt>
      <trkpt lat="44.81556" lon="6.0573">
        <ele>2701.92</ele>
        <time>2020-08-17T10:28:31Z</time>
      </trkpt>
      <trkpt lat="44.81555" lon="6.0573">
        <ele>2701.92</ele>
        <time>2020-08-17T10:30:01Z</time>
      </trkpt>
      <trkpt lat="44.81556" lon="6.05731">
        <ele>2701.92</ele>
        <time>2020-08-17T10:30:55Z</time>
      </trkpt>
      <trkpt lat="44.81556" lon="6.0573">
        <ele>2701.92</ele>
        <time>2020-08-17T10:31:54Z</time>
      </trkpt>
      <trkpt lat="44.81554" lon="6.0573">
        <ele>2701.92</ele>
        <time>2020-08-17T10:32:25Z</time>
      </trkpt>
      <trkpt lat="44.81553" lon="6.05737">
        <ele>2701.92</ele>
        <time>2020-08-17T10:32:42Z</time>
      </trkpt>
      <trkpt lat="44.81552" lon="6.0574">
        <ele>2701.92</ele>
        <time>2020-08-17T10:32:55Z</time>
      </trkpt>
      <trkpt lat="44.81552" lon="6.0574">
        <ele>2701.92</ele>
        <time>2020-08-17T10:33:20Z</time>
      </trkpt>
      <trkpt lat="44.81552" lon="6.05739">
        <ele>2701.92</ele>
        <time>2020-08-17T10:33:52Z</time>
      </trkpt>
      <trkpt lat="44.81551" lon="6.05739">
        <ele>2701.92</ele>
        <time>2020-08-17T10:34:08Z</time>
      </trkpt>
      <trkpt lat="44.81551" lon="6.05739">
        <ele>2701.92</ele>
        <time>2020-08-17T10:34:28Z</time>
      </trkpt>
      <trkpt lat="44.81552" lon="6.05739">
        <ele>2701.92</ele>
        <time>2020-08-17T10:34:52Z</time>
      </trkpt>
      <trkpt lat="44.81552" lon="6.05738">
        <ele>2701.92</ele>
        <time>2020-08-17T10:35:28Z</time>
      </trkpt>
      <trkpt lat="44.81553" lon="6.05742">
        <ele>2701.92</ele>
        <time>2020-08-17T10:36:14Z</time>
      </trkpt>
      <trkpt lat="44.81551" lon="6.05741">
        <ele>2701.92</ele>
        <time>2020-08-17T10:37:07Z</time>
      </trkpt>
      <trkpt lat="44.81552" lon="6.05741">
        <ele>2701.92</ele>
        <time>2020-08-17T10:37:56Z</time>
      </trkpt>
      <trkpt lat="44.81551" lon="6.05739">
        <ele>2701.92</ele>
        <time>2020-08-17T10:38:47Z</time>
      </trkpt>
      <trkpt lat="44.8155" lon="6.05738">
        <ele>2701.92</ele>
        <time>2020-08-17T10:39:35Z</time>
      </trkpt>
      <trkpt lat="44.8155" lon="6.05741">
        <ele>2701.92</ele>
        <time>2020-08-17T10:40:27Z</time>
      </trkpt>
      <trkpt lat="44.81551" lon="6.05741">
        <ele>2701.92</ele>
        <time>2020-08-17T10:41:12Z</time>
      </trkpt>
      <trkpt lat="44.81552" lon="6.05741">
        <ele>2701.92</ele>
        <time>2020-08-17T10:41:58Z</time>
      </trkpt>
      <trkpt lat="44.81552" lon="6.0574">
        <ele>2701.92</ele>
        <time>2020-08-17T10:42:41Z</time>
      </trkpt>
      <trkpt lat="44.81551" lon="6.05739">
        <ele>2701.92</ele>
        <time>2020-08-17T10:43:25Z</time>
      </trkpt>
      <trkpt lat="44.81553" lon="6.0574">
        <ele>2701.92</ele>
        <time>2020-08-17T10:44:12Z</time>
      </trkpt>
      <trkpt lat="44.81553" lon="6.0574">
        <ele>2701.92</ele>
        <time>2020-08-17T10:45:00Z</time>
      </trkpt>
      <trkpt lat="44.81554" lon="6.0574">
        <ele>2701.92</ele>
        <time>2020-08-17T10:45:45Z</time>
      </trkpt>
      <trkpt lat="44.81553" lon="6.05738">
        <ele>2701.92</ele>
        <time>2020-08-17T10:46:31Z</time>
      </trkpt>
      <trkpt lat="44.81555" lon="6.05739">
        <ele>2701.92</ele>
        <time>2020-08-17T10:47:10Z</time>
      </trkpt>
      <trkpt lat="44.81553" lon="6.05739">
        <ele>2701.92</ele>
        <time>2020-08-17T10:48:01Z</time>
      </trkpt>
      <trkpt lat="44.81554" lon="6.05741">
        <ele>2701.92</ele>
        <time>2020-08-17T10:48:46Z</time>
      </trkpt>
      <trkpt lat="44.81555" lon="6.0574">
        <ele>2701.92</ele>
        <time>2020-08-17T10:49:27Z</time>
      </trkpt>
      <trkpt lat="44.81555" lon="6.05739">
        <ele>2701.92</ele>
        <time>2020-08-17T10:50:17Z</time>
      </trkpt>
      <trkpt lat="44.81554" lon="6.05739">
        <ele>2701.92</ele>
        <time>2020-08-17T10:51:05Z</time>
      </trkpt>
      <trkpt lat="44.8155" lon="6.05739">
        <ele>2701.92</ele>
        <time>2020-08-17T10:51:50Z</time>
      </trkpt>
      <trkpt lat="44.81551" lon="6.05739">
        <ele>2701.92</ele>
        <time>2020-08-17T10:52:35Z</time>
      </trkpt>
      <trkpt lat="44.81549" lon="6.0574">
        <ele>2701.92</ele>
        <time>2020-08-17T10:53:25Z</time>
      </trkpt>
      <trkpt lat="44.8155" lon="6.05737">
        <ele>2701.92</ele>
        <time>2020-08-17T10:54:12Z</time>
      </trkpt>
      <trkpt lat="44.81548" lon="6.0574">
        <ele>2701.92</ele>
        <time>2020-08-17T10:55:06Z</time>
      </trkpt>
      <trkpt lat="44.8155" lon="6.05738">
        <ele>2701.92</ele>
        <time>2020-08-17T10:55:50Z</time>
      </trkpt>
      <trkpt lat="44.8155" lon="6.05739">
        <ele>2701.92</ele>
        <time>2020-08-17T10:56:35Z</time>
      </trkpt>
      <trkpt lat="44.81549" lon="6.05741">
        <ele>2701.92</ele>
        <time>2020-08-17T10:57:17Z</time>
      </trkpt>
      <trkpt lat="44.81551" lon="6.05741">
        <ele>2701.92</ele>
        <time>2020-08-17T10:58:08Z</time>
      </trkpt>
      <trkpt lat="44.8155" lon="6.05739">
        <ele>2701.92</ele>
        <time>2020-08-17T10:58:57Z</time>
      </trkpt>
      <trkpt lat="44.81552" lon="6.0574">
        <ele>2701.92</ele>
        <time>2020-08-17T10:59:47Z</time>
      </trkpt>
      <trkpt lat="44.8155" lon="6.0574">
        <ele>2701.92</ele>
        <time>2020-08-17T11:00:10Z</time>
      </trkpt>
      <trkpt lat="44.8155" lon="6.05738">
        <ele>2704.81</ele>
        <time>2020-08-17T11:00:18Z</time>
      </trkpt>
      <trkpt lat="44.81552" lon="6.0574">
        <ele>2703.36</ele>
        <time>2020-08-17T11:00:41Z</time>
      </trkpt>
      <trkpt lat="44.81553" lon="6.05739">
        <ele>2703.36</ele>
        <time>2020-08-17T11:01:03Z</time>
      </trkpt>
      <trkpt lat="44.81553" lon="6.05738">
        <ele>2703.85</ele>
        <time>2020-08-17T11:01:35Z</time>
      </trkpt>
      <trkpt lat="44.81553" lon="6.05739">
        <ele>2703.85</ele>
        <time>2020-08-17T11:02:11Z</time>
      </trkpt>
      <trkpt lat="44.81553" lon="6.05739">
        <ele>2703.36</ele>
        <time>2020-08-17T11:02:45Z</time>
      </trkpt>
      <trkpt lat="44.81554" lon="6.05739">
        <ele>2703.36</ele>
        <time>2020-08-17T11:03:08Z</time>
      </trkpt>
      <trkpt lat="44.81553" lon="6.05739">
        <ele>2703.36</ele>
        <time>2020-08-17T11:03:33Z</time>
      </trkpt>
      <trkpt lat="44.81552" lon="6.05738">
        <ele>2703.36</ele>
        <time>2020-08-17T11:03:57Z</time>
      </trkpt>
      <trkpt lat="44.81552" lon="6.05737">
        <ele>2705.77</ele>
        <time>2020-08-17T11:04:18Z</time>
      </trkpt>
      <trkpt lat="44.81553" lon="6.05738">
        <ele>2703.85</ele>
        <time>2020-08-17T11:04:36Z</time>
      </trkpt>
      <trkpt lat="44.81553" lon="6.05739">
        <ele>2703.36</ele>
        <time>2020-08-17T11:04:56Z</time>
      </trkpt>
      <trkpt lat="44.81554" lon="6.05737">
        <ele>2703.36</ele>
        <time>2020-08-17T11:05:22Z</time>
      </trkpt>
      <trkpt lat="44.81552" lon="6.05732">
        <ele>2701.92</ele>
        <time>2020-08-17T11:05:37Z</time>
      </trkpt>
      <trkpt lat="44.81547" lon="6.05726">
        <ele>2699.04</ele>
        <time>2020-08-17T11:05:51Z</time>
      </trkpt>
      <trkpt lat="44.81544" lon="6.05723">
        <ele>2696.64</ele>
        <time>2020-08-17T11:06:04Z</time>
      </trkpt>
      <trkpt lat="44.8154" lon="6.0572">
        <ele>2695.67</ele>
        <time>2020-08-17T11:06:16Z</time>
      </trkpt>
      <trkpt lat="44.81538" lon="6.05718">
        <ele>2695.19</ele>
        <time>2020-08-17T11:06:30Z</time>
      </trkpt>
      <trkpt lat="44.81535" lon="6.05714">
        <ele>2694.23</ele>
        <time>2020-08-17T11:06:44Z</time>
      </trkpt>
      <trkpt lat="44.8153" lon="6.0571">
        <ele>2692.31</ele>
        <time>2020-08-17T11:06:59Z</time>
      </trkpt>
      <trkpt lat="44.81527" lon="6.05707">
        <ele>2691.35</ele>
        <time>2020-08-17T11:07:14Z</time>
      </trkpt>
      <trkpt lat="44.81525" lon="6.05705">
        <ele>2691.83</ele>
        <time>2020-08-17T11:07:32Z</time>
      </trkpt>
      <trkpt lat="44.81523" lon="6.05702">
        <ele>2691.35</ele>
        <time>2020-08-17T11:07:48Z</time>
      </trkpt>
      <trkpt lat="44.81521" lon="6.057">
        <ele>2689.91</ele>
        <time>2020-08-17T11:08:01Z</time>
      </trkpt>
      <trkpt lat="44.81519" lon="6.05699">
        <ele>2688.94</ele>
        <time>2020-08-17T11:08:13Z</time>
      </trkpt>
      <trkpt lat="44.81519" lon="6.057">
        <ele>2687.98</ele>
        <time>2020-08-17T11:08:38Z</time>
      </trkpt>
      <trkpt lat="44.81521" lon="6.05699">
        <ele>2687.5</ele>
        <time>2020-08-17T11:09:07Z</time>
      </trkpt>
      <trkpt lat="44.81521" lon="6.05698">
        <ele>2687.02</ele>
        <time>2020-08-17T11:09:22Z</time>
      </trkpt>
      <trkpt lat="44.81524" lon="6.05697">
        <ele>2686.06</ele>
        <time>2020-08-17T11:09:35Z</time>
      </trkpt>
      <trkpt lat="44.81525" lon="6.05696">
        <ele>2684.62</ele>
        <time>2020-08-17T11:09:53Z</time>
      </trkpt>
      <trkpt lat="44.81522" lon="6.05693">
        <ele>2683.66</ele>
        <time>2020-08-17T11:10:10Z</time>
      </trkpt>
      <trkpt lat="44.81523" lon="6.05692">
        <ele>2682.7</ele>
        <time>2020-08-17T11:10:23Z</time>
      </trkpt>
      <trkpt lat="44.81522" lon="6.05691">
        <ele>2681.25</ele>
        <time>2020-08-17T11:10:37Z</time>
      </trkpt>
      <trkpt lat="44.81524" lon="6.05688">
        <ele>2679.81</ele>
        <time>2020-08-17T11:10:53Z</time>
      </trkpt>
      <trkpt lat="44.81524" lon="6.05684">
        <ele>2678.37</ele>
        <time>2020-08-17T11:11:07Z</time>
      </trkpt>
      <trkpt lat="44.81524" lon="6.0568">
        <ele>2677.41</ele>
        <time>2020-08-17T11:11:18Z</time>
      </trkpt>
      <trkpt lat="44.81519" lon="6.0568">
        <ele>2675.97</ele>
        <time>2020-08-17T11:11:31Z</time>
      </trkpt>
      <trkpt lat="44.81514" lon="6.05678">
        <ele>2673.56</ele>
        <time>2020-08-17T11:11:46Z</time>
      </trkpt>
      <trkpt lat="44.81512" lon="6.05677">
        <ele>2672.12</ele>
        <time>2020-08-17T11:11:57Z</time>
      </trkpt>
      <trkpt lat="44.81506" lon="6.05676">
        <ele>2670.2</ele>
        <time>2020-08-17T11:12:14Z</time>
      </trkpt>
      <trkpt lat="44.81509" lon="6.05672">
        <ele>2668.76</ele>
        <time>2020-08-17T11:12:29Z</time>
      </trkpt>
      <trkpt lat="44.81511" lon="6.0567">
        <ele>2667.31</ele>
        <time>2020-08-17T11:12:42Z</time>
      </trkpt>
      <trkpt lat="44.81514" lon="6.05669">
        <ele>2666.83</ele>
        <time>2020-08-17T11:12:57Z</time>
      </trkpt>
      <trkpt lat="44.81514" lon="6.05668">
        <ele>2665.39</ele>
        <time>2020-08-17T11:13:14Z</time>
      </trkpt>
      <trkpt lat="44.81514" lon="6.05667">
        <ele>2665.39</ele>
        <time>2020-08-17T11:13:38Z</time>
      </trkpt>
      <trkpt lat="44.81518" lon="6.05664">
        <ele>2664.43</ele>
        <time>2020-08-17T11:13:52Z</time>
      </trkpt>
      <trkpt lat="44.81522" lon="6.0566">
        <ele>2662.99</ele>
        <time>2020-08-17T11:14:11Z</time>
      </trkpt>
      <trkpt lat="44.81526" lon="6.05658">
        <ele>2661.07</ele>
        <time>2020-08-17T11:14:30Z</time>
      </trkpt>
      <trkpt lat="44.81525" lon="6.05655">
        <ele>2659.62</ele>
        <time>2020-08-17T11:14:44Z</time>
      </trkpt>
      <trkpt lat="44.81523" lon="6.05651">
        <ele>2657.7</ele>
        <time>2020-08-17T11:14:58Z</time>
      </trkpt>
      <trkpt lat="44.81521" lon="6.0565">
        <ele>2656.74</ele>
        <time>2020-08-17T11:15:15Z</time>
      </trkpt>
      <trkpt lat="44.81518" lon="6.05647">
        <ele>2654.82</ele>
        <time>2020-08-17T11:15:34Z</time>
      </trkpt>
      <trkpt lat="44.81518" lon="6.05647">
        <ele>2652.42</ele>
        <time>2020-08-17T11:15:37Z</time>
      </trkpt>
      <trkpt lat="44.81516" lon="6.05646">
        <ele>2654.82</ele>
        <time>2020-08-17T11:15:50Z</time>
      </trkpt>
      <trkpt lat="44.81513" lon="6.05643">
        <ele>2653.38</ele>
        <time>2020-08-17T11:16:03Z</time>
      </trkpt>
      <trkpt lat="44.81512" lon="6.0564">
        <ele>2651.93</ele>
        <time>2020-08-17T11:16:14Z</time>
      </trkpt>
      <trkpt lat="44.81517" lon="6.05642">
        <ele>2650.49</ele>
        <time>2020-08-17T11:16:28Z</time>
      </trkpt>
      <trkpt lat="44.8152" lon="6.05642">
        <ele>2648.57</ele>
        <time>2020-08-17T11:16:42Z</time>
      </trkpt>
      <trkpt lat="44.81523" lon="6.05641">
        <ele>2647.13</ele>
        <time>2020-08-17T11:17:04Z</time>
      </trkpt>
      <trkpt lat="44.81521" lon="6.05639">
        <ele>2646.17</ele>
        <time>2020-08-17T11:17:23Z</time>
      </trkpt>
      <trkpt lat="44.8152" lon="6.05638">
        <ele>2644.72</ele>
        <time>2020-08-17T11:17:41Z</time>
      </trkpt>
      <trkpt lat="44.81518" lon="6.05631">
        <ele>2645.21</ele>
        <time>2020-08-17T11:18:08Z</time>
      </trkpt>
      <trkpt lat="44.81517" lon="6.05628">
        <ele>2640.88</ele>
        <time>2020-08-17T11:18:22Z</time>
      </trkpt>
      <trkpt lat="44.81517" lon="6.05628">
        <ele>2638.48</ele>
        <time>2020-08-17T11:18:25Z</time>
      </trkpt>
      <trkpt lat="44.81517" lon="6.05628">
        <ele>2642.8</ele>
        <time>2020-08-17T11:18:31Z</time>
      </trkpt>
      <trkpt lat="44.81517" lon="6.05628">
        <ele>2646.17</ele>
        <time>2020-08-17T11:18:32Z</time>
      </trkpt>
      <trkpt lat="44.81518" lon="6.05629">
        <ele>2646.65</ele>
        <time>2020-08-17T11:18:34Z</time>
      </trkpt>
      <trkpt lat="44.8152" lon="6.05631">
        <ele>2643.76</ele>
        <time>2020-08-17T11:18:48Z</time>
      </trkpt>
      <trkpt lat="44.81518" lon="6.0563">
        <ele>2642.8</ele>
        <time>2020-08-17T11:19:07Z</time>
      </trkpt>
      <trkpt lat="44.81519" lon="6.0563">
        <ele>2641.84</ele>
        <time>2020-08-17T11:19:27Z</time>
      </trkpt>
      <trkpt lat="44.81517" lon="6.05624">
        <ele>2641.36</ele>
        <time>2020-08-17T11:19:43Z</time>
      </trkpt>
      <trkpt lat="44.81517" lon="6.05621">
        <ele>2640.4</ele>
        <time>2020-08-17T11:19:57Z</time>
      </trkpt>
      <trkpt lat="44.81517" lon="6.0562">
        <ele>2640.4</ele>
        <time>2020-08-17T11:20:03Z</time>
      </trkpt>
      <trkpt lat="44.81521" lon="6.05624">
        <ele>2638.96</ele>
        <time>2020-08-17T11:20:21Z</time>
      </trkpt>
      <trkpt lat="44.8152" lon="6.0562">
        <ele>2637.03</ele>
        <time>2020-08-17T11:20:37Z</time>
      </trkpt>
      <trkpt lat="44.81517" lon="6.05619">
        <ele>2634.63</ele>
        <time>2020-08-17T11:20:49Z</time>
      </trkpt>
      <trkpt lat="44.81516" lon="6.05615">
        <ele>2632.71</ele>
        <time>2020-08-17T11:21:03Z</time>
      </trkpt>
      <trkpt lat="44.81514" lon="6.05615">
        <ele>2631.27</ele>
        <time>2020-08-17T11:21:18Z</time>
      </trkpt>
      <trkpt lat="44.81514" lon="6.05612">
        <ele>2630.79</ele>
        <time>2020-08-17T11:21:47Z</time>
      </trkpt>
      <trkpt lat="44.81514" lon="6.05611">
        <ele>2628.86</ele>
        <time>2020-08-17T11:22:07Z</time>
      </trkpt>
      <trkpt lat="44.81514" lon="6.05611">
        <ele>2628.38</ele>
        <time>2020-08-17T11:22:22Z</time>
      </trkpt>
      <trkpt lat="44.81515" lon="6.05611">
        <ele>2629.82</ele>
        <time>2020-08-17T11:22:53Z</time>
      </trkpt>
      <trkpt lat="44.81515" lon="6.0561">
        <ele>2626.46</ele>
        <time>2020-08-17T11:23:10Z</time>
      </trkpt>
      <trkpt lat="44.81516" lon="6.05609">
        <ele>2625.98</ele>
        <time>2020-08-17T11:23:30Z</time>
      </trkpt>
      <trkpt lat="44.81515" lon="6.05606">
        <ele>2624.54</ele>
        <time>2020-08-17T11:23:52Z</time>
      </trkpt>
      <trkpt lat="44.81512" lon="6.05605">
        <ele>2623.58</ele>
        <time>2020-08-17T11:24:11Z</time>
      </trkpt>
      <trkpt lat="44.81511" lon="6.05604">
        <ele>2622.13</ele>
        <time>2020-08-17T11:24:31Z</time>
      </trkpt>
      <trkpt lat="44.81511" lon="6.05603">
        <ele>2622.13</ele>
        <time>2020-08-17T11:24:47Z</time>
      </trkpt>
      <trkpt lat="44.81511" lon="6.056">
        <ele>2620.69</ele>
        <time>2020-08-17T11:25:08Z</time>
      </trkpt>
      <trkpt lat="44.8151" lon="6.05597">
        <ele>2619.73</ele>
        <time>2020-08-17T11:25:25Z</time>
      </trkpt>
      <trkpt lat="44.81508" lon="6.05599">
        <ele>2618.77</ele>
        <time>2020-08-17T11:25:42Z</time>
      </trkpt>
      <trkpt lat="44.81508" lon="6.05595">
        <ele>2618.77</ele>
        <time>2020-08-17T11:25:58Z</time>
      </trkpt>
      <trkpt lat="44.81512" lon="6.05591">
        <ele>2620.21</ele>
        <time>2020-08-17T11:26:16Z</time>
      </trkpt>
      <trkpt lat="44.81513" lon="6.0559">
        <ele>2620.69</ele>
        <time>2020-08-17T11:26:38Z</time>
      </trkpt>
      <trkpt lat="44.81516" lon="6.05598">
        <ele>2620.21</ele>
        <time>2020-08-17T11:26:58Z</time>
      </trkpt>
      <trkpt lat="44.81515" lon="6.05599">
        <ele>2619.73</ele>
        <time>2020-08-17T11:27:22Z</time>
      </trkpt>
      <trkpt lat="44.81513" lon="6.05597">
        <ele>2617.81</ele>
        <time>2020-08-17T11:27:40Z</time>
      </trkpt>
      <trkpt lat="44.81513" lon="6.05597">
        <ele>2617.81</ele>
        <time>2020-08-17T11:28:05Z</time>
      </trkpt>
      <trkpt lat="44.81511" lon="6.05598">
        <ele>2616.85</ele>
        <time>2020-08-17T11:28:34Z</time>
      </trkpt>
      <trkpt lat="44.81513" lon="6.05598">
        <ele>2615.4</ele>
        <time>2020-08-17T11:28:56Z</time>
      </trkpt>
      <trkpt lat="44.8151" lon="6.05597">
        <ele>2613.96</ele>
        <time>2020-08-17T11:29:30Z</time>
      </trkpt>
      <trkpt lat="44.81508" lon="6.05593">
        <ele>2613</ele>
        <time>2020-08-17T11:29:52Z</time>
      </trkpt>
      <trkpt lat="44.81505" lon="6.05593">
        <ele>2612.52</ele>
        <time>2020-08-17T11:30:09Z</time>
      </trkpt>
      <trkpt lat="44.81505" lon="6.05595">
        <ele>2611.56</ele>
        <time>2020-08-17T11:30:28Z</time>
      </trkpt>
      <trkpt lat="44.81501" lon="6.05593">
        <ele>2610.6</ele>
        <time>2020-08-17T11:30:56Z</time>
      </trkpt>
      <trkpt lat="44.81499" lon="6.05593">
        <ele>2608.67</ele>
        <time>2020-08-17T11:31:09Z</time>
      </trkpt>
      <trkpt lat="44.81495" lon="6.05591">
        <ele>2607.71</ele>
        <time>2020-08-17T11:31:22Z</time>
      </trkpt>
      <trkpt lat="44.81495" lon="6.05589">
        <ele>2604.35</ele>
        <time>2020-08-17T11:31:31Z</time>
      </trkpt>
      <trkpt lat="44.81495" lon="6.05588">
        <ele>2606.75</ele>
        <time>2020-08-17T11:31:39Z</time>
      </trkpt>
      <trkpt lat="44.81493" lon="6.05585">
        <ele>2604.35</ele>
        <time>2020-08-17T11:31:53Z</time>
      </trkpt>
      <trkpt lat="44.81492" lon="6.05583">
        <ele>2601.95</ele>
        <time>2020-08-17T11:32:08Z</time>
      </trkpt>
      <trkpt lat="44.81489" lon="6.05583">
        <ele>2600.02</ele>
        <time>2020-08-17T11:32:21Z</time>
      </trkpt>
      <trkpt lat="44.81488" lon="6.05584">
        <ele>2598.58</ele>
        <time>2020-08-17T11:32:39Z</time>
      </trkpt>
      <trkpt lat="44.81485" lon="6.05585">
        <ele>2597.62</ele>
        <time>2020-08-17T11:32:56Z</time>
      </trkpt>
      <trkpt lat="44.81482" lon="6.05585">
        <ele>2596.18</ele>
        <time>2020-08-17T11:33:21Z</time>
      </trkpt>
      <trkpt lat="44.81481" lon="6.05585">
        <ele>2594.74</ele>
        <time>2020-08-17T11:33:37Z</time>
      </trkpt>
      <trkpt lat="44.81477" lon="6.05584">
        <ele>2594.74</ele>
        <time>2020-08-17T11:33:59Z</time>
      </trkpt>
      <trkpt lat="44.81475" lon="6.05579">
        <ele>2592.81</ele>
        <time>2020-08-17T11:34:14Z</time>
      </trkpt>
      <trkpt lat="44.8148" lon="6.05578">
        <ele>2591.37</ele>
        <time>2020-08-17T11:34:37Z</time>
      </trkpt>
      <trkpt lat="44.81478" lon="6.05575">
        <ele>2589.93</ele>
        <time>2020-08-17T11:34:50Z</time>
      </trkpt>
      <trkpt lat="44.8148" lon="6.05566">
        <ele>2587.53</ele>
        <time>2020-08-17T11:35:06Z</time>
      </trkpt>
      <trkpt lat="44.81481" lon="6.05562">
        <ele>2585.6</ele>
        <time>2020-08-17T11:35:18Z</time>
      </trkpt>
      <trkpt lat="44.8148" lon="6.05562">
        <ele>2584.16</ele>
        <time>2020-08-17T11:35:31Z</time>
      </trkpt>
      <trkpt lat="44.81478" lon="6.05562">
        <ele>2582.72</ele>
        <time>2020-08-17T11:35:48Z</time>
      </trkpt>
      <trkpt lat="44.81477" lon="6.05559">
        <ele>2581.28</ele>
        <time>2020-08-17T11:36:02Z</time>
      </trkpt>
      <trkpt lat="44.81473" lon="6.05559">
        <ele>2579.35</ele>
        <time>2020-08-17T11:36:19Z</time>
      </trkpt>
      <trkpt lat="44.8147" lon="6.05554">
        <ele>2577.43</ele>
        <time>2020-08-17T11:36:31Z</time>
      </trkpt>
      <trkpt lat="44.81472" lon="6.05545">
        <ele>2575.51</ele>
        <time>2020-08-17T11:36:45Z</time>
      </trkpt>
      <trkpt lat="44.81472" lon="6.05539">
        <ele>2572.63</ele>
        <time>2020-08-17T11:36:59Z</time>
      </trkpt>
      <trkpt lat="44.81471" lon="6.05535">
        <ele>2569.74</ele>
        <time>2020-08-17T11:37:11Z</time>
      </trkpt>
      <trkpt lat="44.81467" lon="6.05533">
        <ele>2566.38</ele>
        <time>2020-08-17T11:37:27Z</time>
      </trkpt>
      <trkpt lat="44.81462" lon="6.0553">
        <ele>2563.97</ele>
        <time>2020-08-17T11:37:42Z</time>
      </trkpt>
      <trkpt lat="44.81457" lon="6.05524">
        <ele>2561.09</ele>
        <time>2020-08-17T11:37:59Z</time>
      </trkpt>
      <trkpt lat="44.81458" lon="6.05518">
        <ele>2560.61</ele>
        <time>2020-08-17T11:38:17Z</time>
      </trkpt>
      <trkpt lat="44.81462" lon="6.05521">
        <ele>2559.17</ele>
        <time>2020-08-17T11:38:42Z</time>
      </trkpt>
      <trkpt lat="44.81463" lon="6.0552">
        <ele>2558.21</ele>
        <time>2020-08-17T11:39:04Z</time>
      </trkpt>
      <trkpt lat="44.81465" lon="6.05516">
        <ele>2556.76</ele>
        <time>2020-08-17T11:39:18Z</time>
      </trkpt>
      <trkpt lat="44.81466" lon="6.0551">
        <ele>2554.36</ele>
        <time>2020-08-17T11:39:31Z</time>
      </trkpt>
      <trkpt lat="44.81464" lon="6.05509">
        <ele>2552.44</ele>
        <time>2020-08-17T11:39:42Z</time>
      </trkpt>
      <trkpt lat="44.8146" lon="6.05507">
        <ele>2550.03</ele>
        <time>2020-08-17T11:39:55Z</time>
      </trkpt>
      <trkpt lat="44.81459" lon="6.05507">
        <ele>2548.59</ele>
        <time>2020-08-17T11:40:08Z</time>
      </trkpt>
      <trkpt lat="44.81458" lon="6.05504">
        <ele>2547.15</ele>
        <time>2020-08-17T11:40:25Z</time>
      </trkpt>
      <trkpt lat="44.8146" lon="6.05502">
        <ele>2546.19</ele>
        <time>2020-08-17T11:40:54Z</time>
      </trkpt>
      <trkpt lat="44.8146" lon="6.05501">
        <ele>2545.71</ele>
        <time>2020-08-17T11:41:29Z</time>
      </trkpt>
      <trkpt lat="44.8146" lon="6.05502">
        <ele>2545.71</ele>
        <time>2020-08-17T11:42:03Z</time>
      </trkpt>
      <trkpt lat="44.81459" lon="6.055">
        <ele>2545.71</ele>
        <time>2020-08-17T11:42:18Z</time>
      </trkpt>
      <trkpt lat="44.81457" lon="6.05501">
        <ele>2545.71</ele>
        <time>2020-08-17T11:42:32Z</time>
      </trkpt>
      <trkpt lat="44.81455" lon="6.05499">
        <ele>2545.71</ele>
        <time>2020-08-17T11:42:48Z</time>
      </trkpt>
      <trkpt lat="44.81455" lon="6.05498">
        <ele>2540.9</ele>
        <time>2020-08-17T11:42:55Z</time>
      </trkpt>
      <trkpt lat="44.81455" lon="6.05497">
        <ele>2540.9</ele>
        <time>2020-08-17T11:42:56Z</time>
      </trkpt>
      <trkpt lat="44.81457" lon="6.05495">
        <ele>2540.42</ele>
        <time>2020-08-17T11:43:15Z</time>
      </trkpt>
      <trkpt lat="44.81457" lon="6.05496">
        <ele>2538.98</ele>
        <time>2020-08-17T11:43:38Z</time>
      </trkpt>
      <trkpt lat="44.81455" lon="6.05495">
        <ele>2538.02</ele>
        <time>2020-08-17T11:44:01Z</time>
      </trkpt>
      <trkpt lat="44.81455" lon="6.05495">
        <ele>2537.06</ele>
        <time>2020-08-17T11:44:41Z</time>
      </trkpt>
      <trkpt lat="44.81454" lon="6.05494">
        <ele>2538.02</ele>
        <time>2020-08-17T11:45:05Z</time>
      </trkpt>
      <trkpt lat="44.81452" lon="6.05494">
        <ele>2536.1</ele>
        <time>2020-08-17T11:45:52Z</time>
      </trkpt>
      <trkpt lat="44.81454" lon="6.0549">
        <ele>2534.65</ele>
        <time>2020-08-17T11:46:05Z</time>
      </trkpt>
      <trkpt lat="44.81453" lon="6.05489">
        <ele>2534.17</ele>
        <time>2020-08-17T11:46:22Z</time>
      </trkpt>
      <trkpt lat="44.81453" lon="6.05485">
        <ele>2533.21</ele>
        <time>2020-08-17T11:46:38Z</time>
      </trkpt>
      <trkpt lat="44.81452" lon="6.05484">
        <ele>2530.81</ele>
        <time>2020-08-17T11:46:53Z</time>
      </trkpt>
      <trkpt lat="44.81453" lon="6.05484">
        <ele>2532.73</ele>
        <time>2020-08-17T11:47:09Z</time>
      </trkpt>
      <trkpt lat="44.81452" lon="6.05486">
        <ele>2530.81</ele>
        <time>2020-08-17T11:47:42Z</time>
      </trkpt>
      <trkpt lat="44.81451" lon="6.05484">
        <ele>2531.29</ele>
        <time>2020-08-17T11:48:11Z</time>
      </trkpt>
      <trkpt lat="44.81452" lon="6.0548">
        <ele>2531.29</ele>
        <time>2020-08-17T11:48:30Z</time>
      </trkpt>
      <trkpt lat="44.8145" lon="6.05474">
        <ele>2531.29</ele>
        <time>2020-08-17T11:48:41Z</time>
      </trkpt>
      <trkpt lat="44.81446" lon="6.05474">
        <ele>2531.29</ele>
        <time>2020-08-17T11:48:52Z</time>
      </trkpt>
      <trkpt lat="44.81446" lon="6.05473">
        <ele>2523.6</ele>
        <time>2020-08-17T11:49:01Z</time>
      </trkpt>
      <trkpt lat="44.81446" lon="6.05473">
        <ele>2523.6</ele>
        <time>2020-08-17T11:49:02Z</time>
      </trkpt>
      <trkpt lat="44.81442" lon="6.05472">
        <ele>2522.64</ele>
        <time>2020-08-17T11:49:16Z</time>
      </trkpt>
      <trkpt lat="44.8144" lon="6.0547">
        <ele>2520.23</ele>
        <time>2020-08-17T11:49:29Z</time>
      </trkpt>
      <trkpt lat="44.81439" lon="6.0547">
        <ele>2519.27</ele>
        <time>2020-08-17T11:50:05Z</time>
      </trkpt>
      <trkpt lat="44.81437" lon="6.0547">
        <ele>2518.79</ele>
        <time>2020-08-17T11:50:33Z</time>
      </trkpt>
      <trkpt lat="44.81437" lon="6.0547">
        <ele>2518.79</ele>
        <time>2020-08-17T11:51:05Z</time>
      </trkpt>
      <trkpt lat="44.81437" lon="6.05469">
        <ele>2518.79</ele>
        <time>2020-08-17T11:51:25Z</time>
      </trkpt>
      <trkpt lat="44.81437" lon="6.05467">
        <ele>2518.31</ele>
        <time>2020-08-17T11:51:38Z</time>
      </trkpt>
      <trkpt lat="44.81435" lon="6.05463">
        <ele>2516.39</ele>
        <time>2020-08-17T11:51:53Z</time>
      </trkpt>
      <trkpt lat="44.81434" lon="6.05461">
        <ele>2513.98</ele>
        <time>2020-08-17T11:52:10Z</time>
      </trkpt>
      <trkpt lat="44.81431" lon="6.05456">
        <ele>2512.06</ele>
        <time>2020-08-17T11:52:23Z</time>
      </trkpt>
      <trkpt lat="44.81432" lon="6.05453">
        <ele>2509.66</ele>
        <time>2020-08-17T11:52:35Z</time>
      </trkpt>
      <trkpt lat="44.81429" lon="6.05452">
        <ele>2507.74</ele>
        <time>2020-08-17T11:52:52Z</time>
      </trkpt>
      <trkpt lat="44.81427" lon="6.05454">
        <ele>2505.81</ele>
        <time>2020-08-17T11:53:13Z</time>
      </trkpt>
      <trkpt lat="44.81428" lon="6.05447">
        <ele>2504.85</ele>
        <time>2020-08-17T11:53:33Z</time>
      </trkpt>
      <trkpt lat="44.81423" lon="6.05447">
        <ele>2503.41</ele>
        <time>2020-08-17T11:53:51Z</time>
      </trkpt>
      <trkpt lat="44.81423" lon="6.05443">
        <ele>2501.01</ele>
        <time>2020-08-17T11:54:05Z</time>
      </trkpt>
      <trkpt lat="44.81425" lon="6.05436">
        <ele>2498.6</ele>
        <time>2020-08-17T11:54:23Z</time>
      </trkpt>
      <trkpt lat="44.81427" lon="6.05432">
        <ele>2498.12</ele>
        <time>2020-08-17T11:54:39Z</time>
      </trkpt>
      <trkpt lat="44.81423" lon="6.05431">
        <ele>2496.68</ele>
        <time>2020-08-17T11:54:52Z</time>
      </trkpt>
      <trkpt lat="44.81423" lon="6.05426">
        <ele>2495.24</ele>
        <time>2020-08-17T11:55:04Z</time>
      </trkpt>
      <trkpt lat="44.81422" lon="6.05423">
        <ele>2493.8</ele>
        <time>2020-08-17T11:55:19Z</time>
      </trkpt>
      <trkpt lat="44.8142" lon="6.05422">
        <ele>2492.36</ele>
        <time>2020-08-17T11:55:31Z</time>
      </trkpt>
      <trkpt lat="44.81419" lon="6.0542">
        <ele>2491.39</ele>
        <time>2020-08-17T11:55:48Z</time>
      </trkpt>
      <trkpt lat="44.81419" lon="6.05416">
        <ele>2489.95</ele>
        <time>2020-08-17T11:56:03Z</time>
      </trkpt>
      <trkpt lat="44.81417" lon="6.05413">
        <ele>2488.03</ele>
        <time>2020-08-17T11:56:20Z</time>
      </trkpt>
      <trkpt lat="44.81418" lon="6.0541">
        <ele>2486.59</ele>
        <time>2020-08-17T11:56:39Z</time>
      </trkpt>
      <trkpt lat="44.81416" lon="6.05408">
        <ele>2485.15</ele>
        <time>2020-08-17T11:56:52Z</time>
      </trkpt>
      <trkpt lat="44.81415" lon="6.05406">
        <ele>2484.18</ele>
        <time>2020-08-17T11:57:05Z</time>
      </trkpt>
      <trkpt lat="44.81413" lon="6.05403">
        <ele>2482.26</ele>
        <time>2020-08-17T11:57:21Z</time>
      </trkpt>
      <trkpt lat="44.81412" lon="6.05402">
        <ele>2480.34</ele>
        <time>2020-08-17T11:57:38Z</time>
      </trkpt>
      <trkpt lat="44.8141" lon="6.05401">
        <ele>2479.38</ele>
        <time>2020-08-17T11:57:57Z</time>
      </trkpt>
      <trkpt lat="44.8141" lon="6.05397">
        <ele>2478.42</ele>
        <time>2020-08-17T11:58:08Z</time>
      </trkpt>
      <trkpt lat="44.8141" lon="6.05392">
        <ele>2476.97</ele>
        <time>2020-08-17T11:58:23Z</time>
      </trkpt>
      <trkpt lat="44.81406" lon="6.05392">
        <ele>2475.53</ele>
        <time>2020-08-17T11:58:37Z</time>
      </trkpt>
      <trkpt lat="44.81403" lon="6.05393">
        <ele>2474.57</ele>
        <time>2020-08-17T11:58:56Z</time>
      </trkpt>
      <trkpt lat="44.81401" lon="6.05394">
        <ele>2473.61</ele>
        <time>2020-08-17T11:59:14Z</time>
      </trkpt>
      <trkpt lat="44.81399" lon="6.05398">
        <ele>2471.69</ele>
        <time>2020-08-17T11:59:29Z</time>
      </trkpt>
      <trkpt lat="44.81397" lon="6.05397">
        <ele>2469.76</ele>
        <time>2020-08-17T11:59:42Z</time>
      </trkpt>
      <trkpt lat="44.814" lon="6.05394">
        <ele>2468.32</ele>
        <time>2020-08-17T12:00:00Z</time>
      </trkpt>
      <trkpt lat="44.814" lon="6.05389">
        <ele>2467.36</ele>
        <time>2020-08-17T12:00:13Z</time>
      </trkpt>
      <trkpt lat="44.814" lon="6.05381">
        <ele>2465.44</ele>
        <time>2020-08-17T12:00:27Z</time>
      </trkpt>
      <trkpt lat="44.814" lon="6.05376">
        <ele>2464</ele>
        <time>2020-08-17T12:00:40Z</time>
      </trkpt>
      <trkpt lat="44.81401" lon="6.05373">
        <ele>2462.55</ele>
        <time>2020-08-17T12:00:54Z</time>
      </trkpt>
      <trkpt lat="44.81399" lon="6.0537">
        <ele>2460.63</ele>
        <time>2020-08-17T12:01:09Z</time>
      </trkpt>
      <trkpt lat="44.81396" lon="6.05367">
        <ele>2458.23</ele>
        <time>2020-08-17T12:01:22Z</time>
      </trkpt>
      <trkpt lat="44.81393" lon="6.05362">
        <ele>2455.82</ele>
        <time>2020-08-17T12:01:34Z</time>
      </trkpt>
      <trkpt lat="44.81391" lon="6.0536">
        <ele>2452.94</ele>
        <time>2020-08-17T12:01:50Z</time>
      </trkpt>
      <trkpt lat="44.81389" lon="6.05357">
        <ele>2451.02</ele>
        <time>2020-08-17T12:02:02Z</time>
      </trkpt>
      <trkpt lat="44.81388" lon="6.05349">
        <ele>2448.62</ele>
        <time>2020-08-17T12:02:13Z</time>
      </trkpt>
      <trkpt lat="44.81387" lon="6.05344">
        <ele>2446.21</ele>
        <time>2020-08-17T12:02:27Z</time>
      </trkpt>
      <trkpt lat="44.81385" lon="6.0534">
        <ele>2443.81</ele>
        <time>2020-08-17T12:02:39Z</time>
      </trkpt>
      <trkpt lat="44.81382" lon="6.05334">
        <ele>2440.44</ele>
        <time>2020-08-17T12:02:51Z</time>
      </trkpt>
      <trkpt lat="44.81378" lon="6.05333">
        <ele>2437.56</ele>
        <time>2020-08-17T12:03:05Z</time>
      </trkpt>
      <trkpt lat="44.8138" lon="6.05326">
        <ele>2435.64</ele>
        <time>2020-08-17T12:03:18Z</time>
      </trkpt>
      <trkpt lat="44.8138" lon="6.05322">
        <ele>2433.23</ele>
        <time>2020-08-17T12:03:29Z</time>
      </trkpt>
      <trkpt lat="44.81377" lon="6.05316">
        <ele>2431.31</ele>
        <time>2020-08-17T12:03:43Z</time>
      </trkpt>
      <trkpt lat="44.81375" lon="6.05312">
        <ele>2428.43</ele>
        <time>2020-08-17T12:03:57Z</time>
      </trkpt>
      <trkpt lat="44.81374" lon="6.05312">
        <ele>2426.02</ele>
        <time>2020-08-17T12:04:14Z</time>
      </trkpt>
      <trkpt lat="44.81374" lon="6.0531">
        <ele>2426.02</ele>
        <time>2020-08-17T12:04:32Z</time>
      </trkpt>
      <trkpt lat="44.81374" lon="6.05308">
        <ele>2425.54</ele>
        <time>2020-08-17T12:04:57Z</time>
      </trkpt>
      <trkpt lat="44.81377" lon="6.05307">
        <ele>2424.58</ele>
        <time>2020-08-17T12:05:10Z</time>
      </trkpt>
      <trkpt lat="44.81381" lon="6.05306">
        <ele>2422.18</ele>
        <time>2020-08-17T12:05:24Z</time>
      </trkpt>
      <trkpt lat="44.81382" lon="6.05306">
        <ele>2420.26</ele>
        <time>2020-08-17T12:05:42Z</time>
      </trkpt>
      <trkpt lat="44.81385" lon="6.05306">
        <ele>2419.78</ele>
        <time>2020-08-17T12:06:11Z</time>
      </trkpt>
      <trkpt lat="44.81384" lon="6.05304">
        <ele>2418.81</ele>
        <time>2020-08-17T12:06:50Z</time>
      </trkpt>
      <trkpt lat="44.81384" lon="6.05302">
        <ele>2418.33</ele>
        <time>2020-08-17T12:07:31Z</time>
      </trkpt>
      <trkpt lat="44.81384" lon="6.05303">
        <ele>2417.85</ele>
        <time>2020-08-17T12:07:51Z</time>
      </trkpt>
      <trkpt lat="44.81383" lon="6.05303">
        <ele>2417.37</ele>
        <time>2020-08-17T12:08:15Z</time>
      </trkpt>
      <trkpt lat="44.81383" lon="6.05304">
        <ele>2417.37</ele>
        <time>2020-08-17T12:08:49Z</time>
      </trkpt>
      <trkpt lat="44.81385" lon="6.05307">
        <ele>2417.37</ele>
        <time>2020-08-17T12:09:15Z</time>
      </trkpt>
      <trkpt lat="44.81384" lon="6.053">
        <ele>2417.37</ele>
        <time>2020-08-17T12:09:35Z</time>
      </trkpt>
      <trkpt lat="44.81382" lon="6.05297">
        <ele>2417.37</ele>
        <time>2020-08-17T12:09:51Z</time>
      </trkpt>
      <trkpt lat="44.81383" lon="6.05294">
        <ele>2417.37</ele>
        <time>2020-08-17T12:10:08Z</time>
      </trkpt>
      <trkpt lat="44.81381" lon="6.05291">
        <ele>2412.09</ele>
        <time>2020-08-17T12:10:22Z</time>
      </trkpt>
      <trkpt lat="44.81381" lon="6.0529">
        <ele>2412.09</ele>
        <time>2020-08-17T12:10:23Z</time>
      </trkpt>
      <trkpt lat="44.81378" lon="6.0528">
        <ele>2410.64</ele>
        <time>2020-08-17T12:10:38Z</time>
      </trkpt>
      <trkpt lat="44.81376" lon="6.05273">
        <ele>2407.28</ele>
        <time>2020-08-17T12:10:54Z</time>
      </trkpt>
      <trkpt lat="44.81375" lon="6.05266">
        <ele>2403.91</ele>
        <time>2020-08-17T12:11:09Z</time>
      </trkpt>
      <trkpt lat="44.81373" lon="6.0526">
        <ele>2401.03</ele>
        <time>2020-08-17T12:11:25Z</time>
      </trkpt>
      <trkpt lat="44.81373" lon="6.05253">
        <ele>2399.11</ele>
        <time>2020-08-17T12:11:38Z</time>
      </trkpt>
      <trkpt lat="44.81373" lon="6.05246">
        <ele>2396.22</ele>
        <time>2020-08-17T12:11:54Z</time>
      </trkpt>
      <trkpt lat="44.81376" lon="6.05246">
        <ele>2394.3</ele>
        <time>2020-08-17T12:12:11Z</time>
      </trkpt>
      <trkpt lat="44.81383" lon="6.0525">
        <ele>2391.42</ele>
        <time>2020-08-17T12:12:27Z</time>
      </trkpt>
      <trkpt lat="44.81388" lon="6.05253">
        <ele>2389.01</ele>
        <time>2020-08-17T12:12:47Z</time>
      </trkpt>
      <trkpt lat="44.81393" lon="6.05256">
        <ele>2386.13</ele>
        <time>2020-08-17T12:13:04Z</time>
      </trkpt>
      <trkpt lat="44.81396" lon="6.05251">
        <ele>2383.25</ele>
        <time>2020-08-17T12:13:18Z</time>
      </trkpt>
      <trkpt lat="44.81397" lon="6.0525">
        <ele>2382.28</ele>
        <time>2020-08-17T12:13:23Z</time>
      </trkpt>
      <trkpt lat="44.81398" lon="6.05251">
        <ele>2379.4</ele>
        <time>2020-08-17T12:13:34Z</time>
      </trkpt>
      <trkpt lat="44.81397" lon="6.05254">
        <ele>2380.84</ele>
        <time>2020-08-17T12:14:02Z</time>
      </trkpt>
      <trkpt lat="44.81397" lon="6.05255">
        <ele>2377.48</ele>
        <time>2020-08-17T12:14:09Z</time>
      </trkpt>
      <trkpt lat="44.81397" lon="6.05255">
        <ele>2380.84</ele>
        <time>2020-08-17T12:14:16Z</time>
      </trkpt>
      <trkpt lat="44.81397" lon="6.05254">
        <ele>2383.73</ele>
        <time>2020-08-17T12:14:19Z</time>
      </trkpt>
      <trkpt lat="44.81396" lon="6.05253">
        <ele>2381.32</ele>
        <time>2020-08-17T12:14:27Z</time>
      </trkpt>
      <trkpt lat="44.81395" lon="6.05244">
        <ele>2381.32</ele>
        <time>2020-08-17T12:14:48Z</time>
      </trkpt>
      <trkpt lat="44.81394" lon="6.05241">
        <ele>2381.32</ele>
        <time>2020-08-17T12:14:51Z</time>
      </trkpt>
      <trkpt lat="44.81395" lon="6.05235">
        <ele>2378.44</ele>
        <time>2020-08-17T12:15:00Z</time>
      </trkpt>
      <trkpt lat="44.81396" lon="6.05232">
        <ele>2375.07</ele>
        <time>2020-08-17T12:15:10Z</time>
      </trkpt>
      <trkpt lat="44.81398" lon="6.05224">
        <ele>2371.71</ele>
        <time>2020-08-17T12:15:25Z</time>
      </trkpt>
      <trkpt lat="44.81408" lon="6.05217">
        <ele>2368.83</ele>
        <time>2020-08-17T12:15:39Z</time>
      </trkpt>
      <trkpt lat="44.8141" lon="6.05216">
        <ele>2367.86</ele>
        <time>2020-08-17T12:15:42Z</time>
      </trkpt>
      <trkpt lat="44.81417" lon="6.05206">
        <ele>2365.94</ele>
        <time>2020-08-17T12:15:55Z</time>
      </trkpt>
      <trkpt lat="44.81424" lon="6.05193">
        <ele>2362.58</ele>
        <time>2020-08-17T12:16:13Z</time>
      </trkpt>
      <trkpt lat="44.81431" lon="6.05182">
        <ele>2360.17</ele>
        <time>2020-08-17T12:16:29Z</time>
      </trkpt>
      <trkpt lat="44.81437" lon="6.05175">
        <ele>2357.77</ele>
        <time>2020-08-17T12:16:44Z</time>
      </trkpt>
      <trkpt lat="44.81439" lon="6.05172">
        <ele>2356.81</ele>
        <time>2020-08-17T12:16:51Z</time>
      </trkpt>
      <trkpt lat="44.81448" lon="6.05163">
        <ele>2355.85</ele>
        <time>2020-08-17T12:17:09Z</time>
      </trkpt>
      <trkpt lat="44.81454" lon="6.05157">
        <ele>2352.96</ele>
        <time>2020-08-17T12:17:25Z</time>
      </trkpt>
      <trkpt lat="44.81459" lon="6.05149">
        <ele>2351.04</ele>
        <time>2020-08-17T12:17:42Z</time>
      </trkpt>
      <trkpt lat="44.81451" lon="6.05145">
        <ele>2347.68</ele>
        <time>2020-08-17T12:17:57Z</time>
      </trkpt>
      <trkpt lat="44.81449" lon="6.05144">
        <ele>2347.2</ele>
        <time>2020-08-17T12:18:00Z</time>
      </trkpt>
      <trkpt lat="44.81442" lon="6.05146">
        <ele>2344.31</ele>
        <time>2020-08-17T12:18:14Z</time>
      </trkpt>
      <trkpt lat="44.81433" lon="6.05145">
        <ele>2341.91</ele>
        <time>2020-08-17T12:18:30Z</time>
      </trkpt>
      <trkpt lat="44.81426" lon="6.05144">
        <ele>2339.99</ele>
        <time>2020-08-17T12:18:42Z</time>
      </trkpt>
      <trkpt lat="44.81418" lon="6.05142">
        <ele>2338.54</ele>
        <time>2020-08-17T12:18:55Z</time>
      </trkpt>
      <trkpt lat="44.8141" lon="6.0514">
        <ele>2336.62</ele>
        <time>2020-08-17T12:19:09Z</time>
      </trkpt>
      <trkpt lat="44.81402" lon="6.05137">
        <ele>2335.66</ele>
        <time>2020-08-17T12:19:20Z</time>
      </trkpt>
      <trkpt lat="44.81394" lon="6.05133">
        <ele>2333.74</ele>
        <time>2020-08-17T12:19:33Z</time>
      </trkpt>
      <trkpt lat="44.81401" lon="6.05122">
        <ele>2330.37</ele>
        <time>2020-08-17T12:19:50Z</time>
      </trkpt>
      <trkpt lat="44.81408" lon="6.0512">
        <ele>2327.49</ele>
        <time>2020-08-17T12:20:05Z</time>
      </trkpt>
      <trkpt lat="44.81413" lon="6.05117">
        <ele>2326.05</ele>
        <time>2020-08-17T12:20:21Z</time>
      </trkpt>
      <trkpt lat="44.81418" lon="6.05119">
        <ele>2324.61</ele>
        <time>2020-08-17T12:20:37Z</time>
      </trkpt>
      <trkpt lat="44.8142" lon="6.05119">
        <ele>2324.61</ele>
        <time>2020-08-17T12:20:41Z</time>
      </trkpt>
      <trkpt lat="44.81422" lon="6.05116">
        <ele>2324.61</ele>
        <time>2020-08-17T12:20:51Z</time>
      </trkpt>
      <trkpt lat="44.8143" lon="6.05111">
        <ele>2323.16</ele>
        <time>2020-08-17T12:21:07Z</time>
      </trkpt>
      <trkpt lat="44.81435" lon="6.05104">
        <ele>2321.72</ele>
        <time>2020-08-17T12:21:22Z</time>
      </trkpt>
      <trkpt lat="44.81444" lon="6.05101">
        <ele>2319.8</ele>
        <time>2020-08-17T12:21:36Z</time>
      </trkpt>
      <trkpt lat="44.81447" lon="6.05099">
        <ele>2319.32</ele>
        <time>2020-08-17T12:21:40Z</time>
      </trkpt>
      <trkpt lat="44.81454" lon="6.05094">
        <ele>2317.88</ele>
        <time>2020-08-17T12:21:51Z</time>
      </trkpt>
      <trkpt lat="44.81457" lon="6.05093">
        <ele>2315.95</ele>
        <time>2020-08-17T12:21:56Z</time>
      </trkpt>
      <trkpt lat="44.8146" lon="6.05089">
        <ele>2315.47</ele>
        <time>2020-08-17T12:22:16Z</time>
      </trkpt>
      <trkpt lat="44.81467" lon="6.05086">
        <ele>2314.03</ele>
        <time>2020-08-17T12:22:32Z</time>
      </trkpt>
      <trkpt lat="44.81468" lon="6.05088">
        <ele>2312.59</ele>
        <time>2020-08-17T12:22:55Z</time>
      </trkpt>
      <trkpt lat="44.81468" lon="6.05086">
        <ele>2313.07</ele>
        <time>2020-08-17T12:23:21Z</time>
      </trkpt>
      <trkpt lat="44.81468" lon="6.05082">
        <ele>2311.63</ele>
        <time>2020-08-17T12:23:54Z</time>
      </trkpt>
      <trkpt lat="44.81467" lon="6.05086">
        <ele>2311.15</ele>
        <time>2020-08-17T12:24:37Z</time>
      </trkpt>
      <trkpt lat="44.81467" lon="6.05086">
        <ele>2311.63</ele>
        <time>2020-08-17T12:25:18Z</time>
      </trkpt>
      <trkpt lat="44.81466" lon="6.05086">
        <ele>2311.63</ele>
        <time>2020-08-17T12:25:46Z</time>
      </trkpt>
      <trkpt lat="44.81468" lon="6.05086">
        <ele>2311.63</ele>
        <time>2020-08-17T12:26:10Z</time>
      </trkpt>
      <trkpt lat="44.81474" lon="6.05041">
        <ele>2344.79</ele>
        <time>2020-08-17T12:31:05Z</time>
      </trkpt>
      <trkpt lat="44.81474" lon="6.05041">
        <ele>2286.15</ele>
        <time>2020-08-17T12:31:06Z</time>
      </trkpt>
      <trkpt lat="44.81468" lon="6.05035">
        <ele>2286.15</ele>
        <time>2020-08-17T12:31:24Z</time>
      </trkpt>
      <trkpt lat="44.8146" lon="6.05032">
        <ele>2286.15</ele>
        <time>2020-08-17T12:31:35Z</time>
      </trkpt>
      <trkpt lat="44.81457" lon="6.05031">
        <ele>2282.31</ele>
        <time>2020-08-17T12:31:39Z</time>
      </trkpt>
      <trkpt lat="44.81457" lon="6.0503">
        <ele>2282.31</ele>
        <time>2020-08-17T12:31:40Z</time>
      </trkpt>
      <trkpt lat="44.81455" lon="6.0503">
        <ele>2283.75</ele>
        <time>2020-08-17T12:31:43Z</time>
      </trkpt>
      <trkpt lat="44.81443" lon="6.05026">
        <ele>2283.75</ele>
        <time>2020-08-17T12:32:00Z</time>
      </trkpt>
      <trkpt lat="44.81435" lon="6.05026">
        <ele>2284.71</ele>
        <time>2020-08-17T12:32:11Z</time>
      </trkpt>
      <trkpt lat="44.81433" lon="6.05025">
        <ele>2283.75</ele>
        <time>2020-08-17T12:32:13Z</time>
      </trkpt>
      <trkpt lat="44.81432" lon="6.05025">
        <ele>2283.27</ele>
        <time>2020-08-17T12:32:14Z</time>
      </trkpt>
      <trkpt lat="44.81428" lon="6.05024">
        <ele>2281.83</ele>
        <time>2020-08-17T12:32:18Z</time>
      </trkpt>
      <trkpt lat="44.81427" lon="6.05023">
        <ele>2281.83</ele>
        <time>2020-08-17T12:32:19Z</time>
      </trkpt>
      <trkpt lat="44.81418" lon="6.05014">
        <ele>2279.42</ele>
        <time>2020-08-17T12:32:30Z</time>
      </trkpt>
      <trkpt lat="44.81414" lon="6.05008">
        <ele>2278.46</ele>
        <time>2020-08-17T12:32:36Z</time>
      </trkpt>
      <trkpt lat="44.81405" lon="6.04994">
        <ele>2276.54</ele>
        <time>2020-08-17T12:32:49Z</time>
      </trkpt>
      <trkpt lat="44.81397" lon="6.04993">
        <ele>2274.62</ele>
        <time>2020-08-17T12:32:56Z</time>
      </trkpt>
      <trkpt lat="44.8139" lon="6.04989">
        <ele>2273.17</ele>
        <time>2020-08-17T12:33:04Z</time>
      </trkpt>
      <trkpt lat="44.81376" lon="6.04985">
        <ele>2270.29</ele>
        <time>2020-08-17T12:33:18Z</time>
      </trkpt>
      <trkpt lat="44.81369" lon="6.04976">
        <ele>2268.37</ele>
        <time>2020-08-17T12:33:31Z</time>
      </trkpt>
      <trkpt lat="44.81371" lon="6.04976">
        <ele>2267.89</ele>
        <time>2020-08-17T12:33:33Z</time>
      </trkpt>
      <trkpt lat="44.81377" lon="6.04972">
        <ele>2266.45</ele>
        <time>2020-08-17T12:33:40Z</time>
      </trkpt>
      <trkpt lat="44.81385" lon="6.04963">
        <ele>2264.04</ele>
        <time>2020-08-17T12:33:53Z</time>
      </trkpt>
      <trkpt lat="44.81391" lon="6.04955">
        <ele>2262.6</ele>
        <time>2020-08-17T12:34:02Z</time>
      </trkpt>
      <trkpt lat="44.81399" lon="6.04948">
        <ele>2261.16</ele>
        <time>2020-08-17T12:34:12Z</time>
      </trkpt>
      <trkpt lat="44.814" lon="6.04947">
        <ele>2261.16</ele>
        <time>2020-08-17T12:34:13Z</time>
      </trkpt>
      <trkpt lat="44.814" lon="6.04946">
        <ele>2260.68</ele>
        <time>2020-08-17T12:34:14Z</time>
      </trkpt>
      <trkpt lat="44.81414" lon="6.04934">
        <ele>2257.79</ele>
        <time>2020-08-17T12:34:30Z</time>
      </trkpt>
      <trkpt lat="44.81418" lon="6.0493">
        <ele>2256.83</ele>
        <time>2020-08-17T12:34:35Z</time>
      </trkpt>
      <trkpt lat="44.81433" lon="6.04929">
        <ele>2254.43</ele>
        <time>2020-08-17T12:34:50Z</time>
      </trkpt>
      <trkpt lat="44.81435" lon="6.04928">
        <ele>2253.47</ele>
        <time>2020-08-17T12:34:53Z</time>
      </trkpt>
      <trkpt lat="44.81436" lon="6.04928">
        <ele>2253.47</ele>
        <time>2020-08-17T12:34:54Z</time>
      </trkpt>
      <trkpt lat="44.81437" lon="6.04927">
        <ele>2252.99</ele>
        <time>2020-08-17T12:34:55Z</time>
      </trkpt>
      <trkpt lat="44.81448" lon="6.04921">
        <ele>2250.58</ele>
        <time>2020-08-17T12:35:08Z</time>
      </trkpt>
      <trkpt lat="44.81449" lon="6.04921">
        <ele>2250.58</ele>
        <time>2020-08-17T12:35:09Z</time>
      </trkpt>
      <trkpt lat="44.81455" lon="6.0492">
        <ele>2248.66</ele>
        <time>2020-08-17T12:35:17Z</time>
      </trkpt>
      <trkpt lat="44.81461" lon="6.04911">
        <ele>2246.74</ele>
        <time>2020-08-17T12:35:28Z</time>
      </trkpt>
      <trkpt lat="44.81464" lon="6.04909">
        <ele>2245.78</ele>
        <time>2020-08-17T12:35:32Z</time>
      </trkpt>
      <trkpt lat="44.81468" lon="6.04907">
        <ele>2244.82</ele>
        <time>2020-08-17T12:35:37Z</time>
      </trkpt>
      <trkpt lat="44.81471" lon="6.04905">
        <ele>2244.33</ele>
        <time>2020-08-17T12:35:40Z</time>
      </trkpt>
      <trkpt lat="44.81472" lon="6.04905">
        <ele>2243.85</ele>
        <time>2020-08-17T12:35:41Z</time>
      </trkpt>
      <trkpt lat="44.81475" lon="6.04898">
        <ele>2242.41</ele>
        <time>2020-08-17T12:35:54Z</time>
      </trkpt>
      <trkpt lat="44.81466" lon="6.04891">
        <ele>2239.53</ele>
        <time>2020-08-17T12:36:10Z</time>
      </trkpt>
      <trkpt lat="44.81452" lon="6.04886">
        <ele>2236.16</ele>
        <time>2020-08-17T12:36:28Z</time>
      </trkpt>
      <trkpt lat="44.81449" lon="6.04878">
        <ele>2234.72</ele>
        <time>2020-08-17T12:36:37Z</time>
      </trkpt>
      <trkpt lat="44.81449" lon="6.0487">
        <ele>2232.8</ele>
        <time>2020-08-17T12:36:49Z</time>
      </trkpt>
      <trkpt lat="44.81454" lon="6.04861">
        <ele>2231.36</ele>
        <time>2020-08-17T12:37:02Z</time>
      </trkpt>
      <trkpt lat="44.81455" lon="6.04844">
        <ele>2227.99</ele>
        <time>2020-08-17T12:37:18Z</time>
      </trkpt>
      <trkpt lat="44.81459" lon="6.04833">
        <ele>2226.07</ele>
        <time>2020-08-17T12:37:33Z</time>
      </trkpt>
      <trkpt lat="44.81463" lon="6.04822">
        <ele>2224.15</ele>
        <time>2020-08-17T12:37:47Z</time>
      </trkpt>
      <trkpt lat="44.81454" lon="6.04819">
        <ele>2222.22</ele>
        <time>2020-08-17T12:38:01Z</time>
      </trkpt>
      <trkpt lat="44.81451" lon="6.04818">
        <ele>2221.26</ele>
        <time>2020-08-17T12:38:06Z</time>
      </trkpt>
      <trkpt lat="44.81444" lon="6.04812">
        <ele>2219.34</ele>
        <time>2020-08-17T12:38:21Z</time>
      </trkpt>
      <trkpt lat="44.81435" lon="6.04807">
        <ele>2217.42</ele>
        <time>2020-08-17T12:38:36Z</time>
      </trkpt>
      <trkpt lat="44.81426" lon="6.04805">
        <ele>2215.98</ele>
        <time>2020-08-17T12:38:49Z</time>
      </trkpt>
      <trkpt lat="44.81416" lon="6.048">
        <ele>2213.57</ele>
        <time>2020-08-17T12:39:03Z</time>
      </trkpt>
      <trkpt lat="44.81404" lon="6.04789">
        <ele>2211.65</ele>
        <time>2020-08-17T12:39:20Z</time>
      </trkpt>
      <trkpt lat="44.81403" lon="6.04787">
        <ele>2211.17</ele>
        <time>2020-08-17T12:39:22Z</time>
      </trkpt>
      <trkpt lat="44.81398" lon="6.04773">
        <ele>2208.77</ele>
        <time>2020-08-17T12:39:37Z</time>
      </trkpt>
      <trkpt lat="44.81395" lon="6.04759">
        <ele>2206.36</ele>
        <time>2020-08-17T12:39:53Z</time>
      </trkpt>
      <trkpt lat="44.81401" lon="6.04767">
        <ele>2204.44</ele>
        <time>2020-08-17T12:40:07Z</time>
      </trkpt>
      <trkpt lat="44.81412" lon="6.04766">
        <ele>2202.04</ele>
        <time>2020-08-17T12:40:27Z</time>
      </trkpt>
      <trkpt lat="44.81418" lon="6.04759">
        <ele>2200.11</ele>
        <time>2020-08-17T12:40:39Z</time>
      </trkpt>
      <trkpt lat="44.81421" lon="6.04753">
        <ele>2199.63</ele>
        <time>2020-08-17T12:40:45Z</time>
      </trkpt>
      <trkpt lat="44.81428" lon="6.04745">
        <ele>2197.71</ele>
        <time>2020-08-17T12:40:58Z</time>
      </trkpt>
      <trkpt lat="44.81429" lon="6.04735">
        <ele>2195.79</ele>
        <time>2020-08-17T12:41:10Z</time>
      </trkpt>
      <trkpt lat="44.81436" lon="6.04722">
        <ele>2193.39</ele>
        <time>2020-08-17T12:41:22Z</time>
      </trkpt>
      <trkpt lat="44.81442" lon="6.04709">
        <ele>2192.42</ele>
        <time>2020-08-17T12:41:37Z</time>
      </trkpt>
      <trkpt lat="44.81441" lon="6.04707">
        <ele>2190.02</ele>
        <time>2020-08-17T12:41:52Z</time>
      </trkpt>
      <trkpt lat="44.81434" lon="6.04707">
        <ele>2189.54</ele>
        <time>2020-08-17T12:42:13Z</time>
      </trkpt>
      <trkpt lat="44.81426" lon="6.04708">
        <ele>2188.58</ele>
        <time>2020-08-17T12:42:24Z</time>
      </trkpt>
      <trkpt lat="44.81422" lon="6.04709">
        <ele>2185.21</ele>
        <time>2020-08-17T12:42:30Z</time>
      </trkpt>
      <trkpt lat="44.81418" lon="6.04709">
        <ele>2185.69</ele>
        <time>2020-08-17T12:42:43Z</time>
      </trkpt>
      <trkpt lat="44.81416" lon="6.04707">
        <ele>2181.85</ele>
        <time>2020-08-17T12:42:51Z</time>
      </trkpt>
      <trkpt lat="44.81418" lon="6.04704">
        <ele>2185.69</ele>
        <time>2020-08-17T12:42:56Z</time>
      </trkpt>
      <trkpt lat="44.81424" lon="6.04694">
        <ele>2183.29</ele>
        <time>2020-08-17T12:43:11Z</time>
      </trkpt>
      <trkpt lat="44.81432" lon="6.04684">
        <ele>2181.37</ele>
        <time>2020-08-17T12:43:28Z</time>
      </trkpt>
      <trkpt lat="44.8144" lon="6.04677">
        <ele>2179.45</ele>
        <time>2020-08-17T12:43:44Z</time>
      </trkpt>
      <trkpt lat="44.81431" lon="6.04673">
        <ele>2177.52</ele>
        <time>2020-08-17T12:43:58Z</time>
      </trkpt>
      <trkpt lat="44.81422" lon="6.04671">
        <ele>2175.12</ele>
        <time>2020-08-17T12:44:12Z</time>
      </trkpt>
      <trkpt lat="44.8142" lon="6.04663">
        <ele>2173.68</ele>
        <time>2020-08-17T12:44:24Z</time>
      </trkpt>
      <trkpt lat="44.81413" lon="6.04652">
        <ele>2171.76</ele>
        <time>2020-08-17T12:44:39Z</time>
      </trkpt>
      <trkpt lat="44.8141" lon="6.04645">
        <ele>2169.83</ele>
        <time>2020-08-17T12:44:53Z</time>
      </trkpt>
      <trkpt lat="44.81408" lon="6.04637">
        <ele>2169.35</ele>
        <time>2020-08-17T12:45:09Z</time>
      </trkpt>
      <trkpt lat="44.81412" lon="6.04641">
        <ele>2167.43</ele>
        <time>2020-08-17T12:45:28Z</time>
      </trkpt>
      <trkpt lat="44.81414" lon="6.0464">
        <ele>2166.47</ele>
        <time>2020-08-17T12:45:44Z</time>
      </trkpt>
      <trkpt lat="44.81421" lon="6.0464">
        <ele>2165.51</ele>
        <time>2020-08-17T12:45:59Z</time>
      </trkpt>
      <trkpt lat="44.81429" lon="6.04643">
        <ele>2163.1</ele>
        <time>2020-08-17T12:46:15Z</time>
      </trkpt>
      <trkpt lat="44.81442" lon="6.04647">
        <ele>2160.22</ele>
        <time>2020-08-17T12:46:34Z</time>
      </trkpt>
      <trkpt lat="44.81449" lon="6.04649">
        <ele>2158.78</ele>
        <time>2020-08-17T12:46:43Z</time>
      </trkpt>
      <trkpt lat="44.81465" lon="6.04654">
        <ele>2155.89</ele>
        <time>2020-08-17T12:47:01Z</time>
      </trkpt>
      <trkpt lat="44.81475" lon="6.04654">
        <ele>2153.97</ele>
        <time>2020-08-17T12:47:16Z</time>
      </trkpt>
      <trkpt lat="44.8149" lon="6.04656">
        <ele>2151.57</ele>
        <time>2020-08-17T12:47:32Z</time>
      </trkpt>
      <trkpt lat="44.81498" lon="6.04656">
        <ele>2149.16</ele>
        <time>2020-08-17T12:47:47Z</time>
      </trkpt>
      <trkpt lat="44.81501" lon="6.04656">
        <ele>2148.2</ele>
        <time>2020-08-17T12:48:10Z</time>
      </trkpt>
      <trkpt lat="44.81507" lon="6.04656">
        <ele>2147.24</ele>
        <time>2020-08-17T12:48:27Z</time>
      </trkpt>
      <trkpt lat="44.8151" lon="6.04654">
        <ele>2146.76</ele>
        <time>2020-08-17T12:48:46Z</time>
      </trkpt>
      <trkpt lat="44.81519" lon="6.0465">
        <ele>2145.32</ele>
        <time>2020-08-17T12:49:01Z</time>
      </trkpt>
      <trkpt lat="44.81521" lon="6.04649">
        <ele>2144.84</ele>
        <time>2020-08-17T12:49:04Z</time>
      </trkpt>
      <trkpt lat="44.81522" lon="6.04648">
        <ele>2144.84</ele>
        <time>2020-08-17T12:49:05Z</time>
      </trkpt>
      <trkpt lat="44.81532" lon="6.04642">
        <ele>2142.92</ele>
        <time>2020-08-17T12:49:22Z</time>
      </trkpt>
      <trkpt lat="44.81533" lon="6.04642">
        <ele>2141.95</ele>
        <time>2020-08-17T12:49:50Z</time>
      </trkpt>
      <trkpt lat="44.81535" lon="6.0464">
        <ele>2140.99</ele>
        <time>2020-08-17T12:50:20Z</time>
      </trkpt>
      <trkpt lat="44.81542" lon="6.04635">
        <ele>2140.03</ele>
        <time>2020-08-17T12:50:33Z</time>
      </trkpt>
      <trkpt lat="44.8155" lon="6.04628">
        <ele>2138.59</ele>
        <time>2020-08-17T12:50:47Z</time>
      </trkpt>
      <trkpt lat="44.8155" lon="6.04629">
        <ele>2137.15</ele>
        <time>2020-08-17T12:51:07Z</time>
      </trkpt>
      <trkpt lat="44.81554" lon="6.04624">
        <ele>2137.15</ele>
        <time>2020-08-17T12:51:19Z</time>
      </trkpt>
      <trkpt lat="44.81555" lon="6.04622">
        <ele>2136.67</ele>
        <time>2020-08-17T12:51:20Z</time>
      </trkpt>
      <trkpt lat="44.81563" lon="6.04617">
        <ele>2135.23</ele>
        <time>2020-08-17T12:51:34Z</time>
      </trkpt>
      <trkpt lat="44.81573" lon="6.0461">
        <ele>2133.78</ele>
        <time>2020-08-17T12:51:49Z</time>
      </trkpt>
      <trkpt lat="44.81581" lon="6.04607">
        <ele>2131.86</ele>
        <time>2020-08-17T12:52:03Z</time>
      </trkpt>
      <trkpt lat="44.81586" lon="6.04606">
        <ele>2130.42</ele>
        <time>2020-08-17T12:52:15Z</time>
      </trkpt>
      <trkpt lat="44.81592" lon="6.04604">
        <ele>2129.46</ele>
        <time>2020-08-17T12:52:28Z</time>
      </trkpt>
      <trkpt lat="44.81601" lon="6.04595">
        <ele>2128.02</ele>
        <time>2020-08-17T12:52:42Z</time>
      </trkpt>
      <trkpt lat="44.81609" lon="6.04587">
        <ele>2126.57</ele>
        <time>2020-08-17T12:52:55Z</time>
      </trkpt>
      <trkpt lat="44.81611" lon="6.04585">
        <ele>2126.57</ele>
        <time>2020-08-17T12:52:58Z</time>
      </trkpt>
      <trkpt lat="44.81613" lon="6.04583">
        <ele>2125.61</ele>
        <time>2020-08-17T12:53:00Z</time>
      </trkpt>
      <trkpt lat="44.81624" lon="6.0457">
        <ele>2123.21</ele>
        <time>2020-08-17T12:53:15Z</time>
      </trkpt>
      <trkpt lat="44.81629" lon="6.04561">
        <ele>2121.77</ele>
        <time>2020-08-17T12:53:24Z</time>
      </trkpt>
      <trkpt lat="44.81629" lon="6.0456">
        <ele>2121.29</ele>
        <time>2020-08-17T12:53:25Z</time>
      </trkpt>
      <trkpt lat="44.81632" lon="6.04556">
        <ele>2120.81</ele>
        <time>2020-08-17T12:53:29Z</time>
      </trkpt>
      <trkpt lat="44.81633" lon="6.04556">
        <ele>2120.32</ele>
        <time>2020-08-17T12:53:30Z</time>
      </trkpt>
      <trkpt lat="44.81634" lon="6.04555">
        <ele>2120.32</ele>
        <time>2020-08-17T12:53:31Z</time>
      </trkpt>
      <trkpt lat="44.81637" lon="6.04553">
        <ele>2119.36</ele>
        <time>2020-08-17T12:53:35Z</time>
      </trkpt>
      <trkpt lat="44.81638" lon="6.04552">
        <ele>2119.36</ele>
        <time>2020-08-17T12:53:36Z</time>
      </trkpt>
      <trkpt lat="44.81639" lon="6.04551">
        <ele>2119.36</ele>
        <time>2020-08-17T12:53:37Z</time>
      </trkpt>
      <trkpt lat="44.81648" lon="6.04542">
        <ele>2116.48</ele>
        <time>2020-08-17T12:53:51Z</time>
      </trkpt>
      <trkpt lat="44.81652" lon="6.04538">
        <ele>2116</ele>
        <time>2020-08-17T12:53:57Z</time>
      </trkpt>
      <trkpt lat="44.81661" lon="6.04526">
        <ele>2113.6</ele>
        <time>2020-08-17T12:54:12Z</time>
      </trkpt>
      <trkpt lat="44.81668" lon="6.04516">
        <ele>2111.67</ele>
        <time>2020-08-17T12:54:23Z</time>
      </trkpt>
      <trkpt lat="44.81678" lon="6.045">
        <ele>2108.79</ele>
        <time>2020-08-17T12:54:39Z</time>
      </trkpt>
      <trkpt lat="44.81684" lon="6.04489">
        <ele>2106.87</ele>
        <time>2020-08-17T12:54:51Z</time>
      </trkpt>
      <trkpt lat="44.81694" lon="6.04481">
        <ele>2104.46</ele>
        <time>2020-08-17T12:55:06Z</time>
      </trkpt>
      <trkpt lat="44.81702" lon="6.04477">
        <ele>2103.02</ele>
        <time>2020-08-17T12:55:20Z</time>
      </trkpt>
      <trkpt lat="44.81703" lon="6.04477">
        <ele>2102.54</ele>
        <time>2020-08-17T12:55:21Z</time>
      </trkpt>
      <trkpt lat="44.81711" lon="6.04472">
        <ele>2100.62</ele>
        <time>2020-08-17T12:55:33Z</time>
      </trkpt>
      <trkpt lat="44.81713" lon="6.04471">
        <ele>2100.62</ele>
        <time>2020-08-17T12:55:35Z</time>
      </trkpt>
      <trkpt lat="44.81714" lon="6.0447">
        <ele>2100.62</ele>
        <time>2020-08-17T12:55:36Z</time>
      </trkpt>
      <trkpt lat="44.81732" lon="6.04456">
        <ele>2097.73</ele>
        <time>2020-08-17T12:55:56Z</time>
      </trkpt>
      <trkpt lat="44.81743" lon="6.04447">
        <ele>2094.37</ele>
        <time>2020-08-17T12:56:11Z</time>
      </trkpt>
      <trkpt lat="44.81742" lon="6.04448">
        <ele>2094.37</ele>
        <time>2020-08-17T12:56:12Z</time>
      </trkpt>
      <trkpt lat="44.81732" lon="6.04447">
        <ele>2091.49</ele>
        <time>2020-08-17T12:56:28Z</time>
      </trkpt>
      <trkpt lat="44.8174" lon="6.04438">
        <ele>2088.6</ele>
        <time>2020-08-17T12:56:43Z</time>
      </trkpt>
      <trkpt lat="44.81747" lon="6.04426">
        <ele>2086.2</ele>
        <time>2020-08-17T12:56:58Z</time>
      </trkpt>
      <trkpt lat="44.81756" lon="6.04413">
        <ele>2083.79</ele>
        <time>2020-08-17T12:57:14Z</time>
      </trkpt>
      <trkpt lat="44.81767" lon="6.04402">
        <ele>2081.39</ele>
        <time>2020-08-17T12:57:31Z</time>
      </trkpt>
      <trkpt lat="44.81761" lon="6.04403">
        <ele>2078.99</ele>
        <time>2020-08-17T12:57:44Z</time>
      </trkpt>
      <trkpt lat="44.81751" lon="6.04407">
        <ele>2076.59</ele>
        <time>2020-08-17T12:58:00Z</time>
      </trkpt>
      <trkpt lat="44.81739" lon="6.0441">
        <ele>2074.18</ele>
        <time>2020-08-17T12:58:16Z</time>
      </trkpt>
      <trkpt lat="44.81736" lon="6.04411">
        <ele>2073.22</ele>
        <time>2020-08-17T12:58:22Z</time>
      </trkpt>
      <trkpt lat="44.81729" lon="6.04415">
        <ele>2071.78</ele>
        <time>2020-08-17T12:58:35Z</time>
      </trkpt>
      <trkpt lat="44.8172" lon="6.04414">
        <ele>2069.38</ele>
        <time>2020-08-17T12:58:50Z</time>
      </trkpt>
      <trkpt lat="44.81711" lon="6.04404">
        <ele>2067.45</ele>
        <time>2020-08-17T12:59:08Z</time>
      </trkpt>
      <trkpt lat="44.81709" lon="6.04403">
        <ele>2066.97</ele>
        <time>2020-08-17T12:59:11Z</time>
      </trkpt>
      <trkpt lat="44.81695" lon="6.04398">
        <ele>2063.61</ele>
        <time>2020-08-17T12:59:28Z</time>
      </trkpt>
      <trkpt lat="44.81691" lon="6.04395">
        <ele>2062.17</ele>
        <time>2020-08-17T12:59:45Z</time>
      </trkpt>
      <trkpt lat="44.81682" lon="6.04393">
        <ele>2062.17</ele>
        <time>2020-08-17T12:59:58Z</time>
      </trkpt>
      <trkpt lat="44.8167" lon="6.04392">
        <ele>2059.28</ele>
        <time>2020-08-17T13:00:13Z</time>
      </trkpt>
      <trkpt lat="44.81667" lon="6.04392">
        <ele>2058.8</ele>
        <time>2020-08-17T13:00:16Z</time>
      </trkpt>
      <trkpt lat="44.81666" lon="6.04392">
        <ele>2058.8</ele>
        <time>2020-08-17T13:00:17Z</time>
      </trkpt>
      <trkpt lat="44.81652" lon="6.04394">
        <ele>2056.4</ele>
        <time>2020-08-17T13:00:31Z</time>
      </trkpt>
      <trkpt lat="44.81648" lon="6.04393">
        <ele>2055.44</ele>
        <time>2020-08-17T13:00:35Z</time>
      </trkpt>
      <trkpt lat="44.81638" lon="6.04392">
        <ele>2053.03</ele>
        <time>2020-08-17T13:00:48Z</time>
      </trkpt>
      <trkpt lat="44.81635" lon="6.04392">
        <ele>2052.55</ele>
        <time>2020-08-17T13:00:51Z</time>
      </trkpt>
      <trkpt lat="44.8163" lon="6.04391">
        <ele>2051.59</ele>
        <time>2020-08-17T13:00:55Z</time>
      </trkpt>
      <trkpt lat="44.81629" lon="6.0439">
        <ele>2051.59</ele>
        <time>2020-08-17T13:00:56Z</time>
      </trkpt>
      <trkpt lat="44.81619" lon="6.04384">
        <ele>2049.67</ele>
        <time>2020-08-17T13:01:09Z</time>
      </trkpt>
      <trkpt lat="44.81613" lon="6.04372">
        <ele>2048.23</ele>
        <time>2020-08-17T13:01:22Z</time>
      </trkpt>
      <trkpt lat="44.81612" lon="6.0437">
        <ele>2048.23</ele>
        <time>2020-08-17T13:01:24Z</time>
      </trkpt>
      <trkpt lat="44.81606" lon="6.04353">
        <ele>2045.82</ele>
        <time>2020-08-17T13:01:39Z</time>
      </trkpt>
      <trkpt lat="44.81599" lon="6.04332">
        <ele>2042.94</ele>
        <time>2020-08-17T13:01:56Z</time>
      </trkpt>
      <trkpt lat="44.81599" lon="6.04327">
        <ele>2041.02</ele>
        <time>2020-08-17T13:02:10Z</time>
      </trkpt>
      <trkpt lat="44.8161" lon="6.04334">
        <ele>2038.61</ele>
        <time>2020-08-17T13:02:27Z</time>
      </trkpt>
      <trkpt lat="44.81619" lon="6.04335">
        <ele>2036.21</ele>
        <time>2020-08-17T13:02:44Z</time>
      </trkpt>
      <trkpt lat="44.81628" lon="6.04326">
        <ele>2033.81</ele>
        <time>2020-08-17T13:02:59Z</time>
      </trkpt>
      <trkpt lat="44.81629" lon="6.04323">
        <ele>2033.81</ele>
        <time>2020-08-17T13:03:01Z</time>
      </trkpt>
      <trkpt lat="44.81634" lon="6.04306">
        <ele>2030.44</ele>
        <time>2020-08-17T13:03:16Z</time>
      </trkpt>
      <trkpt lat="44.81637" lon="6.04302">
        <ele>2028.04</ele>
        <time>2020-08-17T13:03:21Z</time>
      </trkpt>
      <trkpt lat="44.81645" lon="6.04289">
        <ele>2025.64</ele>
        <time>2020-08-17T13:03:38Z</time>
      </trkpt>
      <trkpt lat="44.81646" lon="6.04289">
        <ele>2025.64</ele>
        <time>2020-08-17T13:03:39Z</time>
      </trkpt>
      <trkpt lat="44.81652" lon="6.04277">
        <ele>2026.12</ele>
        <time>2020-08-17T13:03:54Z</time>
      </trkpt>
      <trkpt lat="44.81653" lon="6.04273">
        <ele>2022.75</ele>
        <time>2020-08-17T13:03:59Z</time>
      </trkpt>
      <trkpt lat="44.81654" lon="6.04272">
        <ele>2021.79</ele>
        <time>2020-08-17T13:04:01Z</time>
      </trkpt>
      <trkpt lat="44.81657" lon="6.04269">
        <ele>2025.15</ele>
        <time>2020-08-17T13:04:07Z</time>
      </trkpt>
      <trkpt lat="44.81658" lon="6.04268">
        <ele>2025.15</ele>
        <time>2020-08-17T13:04:08Z</time>
      </trkpt>
      <trkpt lat="44.81658" lon="6.04266">
        <ele>2025.15</ele>
        <time>2020-08-17T13:04:09Z</time>
      </trkpt>
      <trkpt lat="44.81659" lon="6.04265">
        <ele>2025.15</ele>
        <time>2020-08-17T13:04:10Z</time>
      </trkpt>
      <trkpt lat="44.81663" lon="6.04248">
        <ele>2021.79</ele>
        <time>2020-08-17T13:04:21Z</time>
      </trkpt>
      <trkpt lat="44.81661" lon="6.04234">
        <ele>2019.39</ele>
        <time>2020-08-17T13:04:35Z</time>
      </trkpt>
      <trkpt lat="44.81662" lon="6.04229">
        <ele>2017.94</ele>
        <time>2020-08-17T13:04:47Z</time>
      </trkpt>
      <trkpt lat="44.81662" lon="6.0423">
        <ele>2017.46</ele>
        <time>2020-08-17T13:05:06Z</time>
      </trkpt>
      <trkpt lat="44.81665" lon="6.0423">
        <ele>2016.98</ele>
        <time>2020-08-17T13:05:35Z</time>
      </trkpt>
      <trkpt lat="44.81668" lon="6.04232">
        <ele>2016.5</ele>
        <time>2020-08-17T13:05:40Z</time>
      </trkpt>
      <trkpt lat="44.81675" lon="6.04232">
        <ele>2016.02</ele>
        <time>2020-08-17T13:05:51Z</time>
      </trkpt>
      <trkpt lat="44.81685" lon="6.04235">
        <ele>2014.58</ele>
        <time>2020-08-17T13:06:06Z</time>
      </trkpt>
      <trkpt lat="44.81695" lon="6.04233">
        <ele>2013.14</ele>
        <time>2020-08-17T13:06:20Z</time>
      </trkpt>
      <trkpt lat="44.81704" lon="6.04236">
        <ele>2012.18</ele>
        <time>2020-08-17T13:06:31Z</time>
      </trkpt>
      <trkpt lat="44.81705" lon="6.04237">
        <ele>2011.7</ele>
        <time>2020-08-17T13:06:32Z</time>
      </trkpt>
      <trkpt lat="44.81722" lon="6.04233">
        <ele>2008.81</ele>
        <time>2020-08-17T13:06:49Z</time>
      </trkpt>
      <trkpt lat="44.81733" lon="6.04228">
        <ele>2006.41</ele>
        <time>2020-08-17T13:07:05Z</time>
      </trkpt>
      <trkpt lat="44.81743" lon="6.04217">
        <ele>2004.01</ele>
        <time>2020-08-17T13:07:21Z</time>
      </trkpt>
      <trkpt lat="44.81752" lon="6.04207">
        <ele>2001.6</ele>
        <time>2020-08-17T13:07:39Z</time>
      </trkpt>
      <trkpt lat="44.81759" lon="6.04202">
        <ele>2000.16</ele>
        <time>2020-08-17T13:07:52Z</time>
      </trkpt>
      <trkpt lat="44.81767" lon="6.04193">
        <ele>1998.24</ele>
        <time>2020-08-17T13:08:07Z</time>
      </trkpt>
      <trkpt lat="44.81769" lon="6.04191">
        <ele>1997.76</ele>
        <time>2020-08-17T13:08:10Z</time>
      </trkpt>
      <trkpt lat="44.81777" lon="6.04186">
        <ele>1996.32</ele>
        <time>2020-08-17T13:08:19Z</time>
      </trkpt>
      <trkpt lat="44.81787" lon="6.04178">
        <ele>1994.39</ele>
        <time>2020-08-17T13:08:34Z</time>
      </trkpt>
      <trkpt lat="44.81797" lon="6.04171">
        <ele>1991.99</ele>
        <time>2020-08-17T13:08:49Z</time>
      </trkpt>
      <trkpt lat="44.81799" lon="6.04168">
        <ele>1991.03</ele>
        <time>2020-08-17T13:09:05Z</time>
      </trkpt>
      <trkpt lat="44.81805" lon="6.04165">
        <ele>1990.07</ele>
        <time>2020-08-17T13:09:15Z</time>
      </trkpt>
      <trkpt lat="44.81816" lon="6.04157">
        <ele>1988.14</ele>
        <time>2020-08-17T13:09:31Z</time>
      </trkpt>
      <trkpt lat="44.81827" lon="6.04152">
        <ele>1986.22</ele>
        <time>2020-08-17T13:09:46Z</time>
      </trkpt>
      <trkpt lat="44.81834" lon="6.04148">
        <ele>1983.34</ele>
        <time>2020-08-17T13:10:00Z</time>
      </trkpt>
      <trkpt lat="44.81829" lon="6.04144">
        <ele>1981.9</ele>
        <time>2020-08-17T13:10:07Z</time>
      </trkpt>
      <trkpt lat="44.81828" lon="6.04143">
        <ele>1981.9</ele>
        <time>2020-08-17T13:10:08Z</time>
      </trkpt>
      <trkpt lat="44.81823" lon="6.04139">
        <ele>1980.45</ele>
        <time>2020-08-17T13:10:16Z</time>
      </trkpt>
      <trkpt lat="44.81817" lon="6.04137">
        <ele>1979.01</ele>
        <time>2020-08-17T13:10:23Z</time>
      </trkpt>
      <trkpt lat="44.81804" lon="6.04131">
        <ele>1976.61</ele>
        <time>2020-08-17T13:10:40Z</time>
      </trkpt>
      <trkpt lat="44.81799" lon="6.04129">
        <ele>1975.17</ele>
        <time>2020-08-17T13:10:46Z</time>
      </trkpt>
      <trkpt lat="44.81796" lon="6.0413">
        <ele>1974.69</ele>
        <time>2020-08-17T13:10:49Z</time>
      </trkpt>
      <trkpt lat="44.81787" lon="6.0413">
        <ele>1973.24</ele>
        <time>2020-08-17T13:10:59Z</time>
      </trkpt>
      <trkpt lat="44.81778" lon="6.04123">
        <ele>1971.32</ele>
        <time>2020-08-17T13:11:15Z</time>
      </trkpt>
      <trkpt lat="44.81772" lon="6.04115">
        <ele>1969.88</ele>
        <time>2020-08-17T13:11:29Z</time>
      </trkpt>
      <trkpt lat="44.81771" lon="6.04112">
        <ele>1969.4</ele>
        <time>2020-08-17T13:11:31Z</time>
      </trkpt>
      <trkpt lat="44.81763" lon="6.041">
        <ele>1967.96</ele>
        <time>2020-08-17T13:11:45Z</time>
      </trkpt>
      <trkpt lat="44.81755" lon="6.04087">
        <ele>1965.55</ele>
        <time>2020-08-17T13:11:59Z</time>
      </trkpt>
      <trkpt lat="44.81744" lon="6.04079">
        <ele>1963.15</ele>
        <time>2020-08-17T13:12:13Z</time>
      </trkpt>
      <trkpt lat="44.81725" lon="6.04074">
        <ele>1960.27</ele>
        <time>2020-08-17T13:12:31Z</time>
      </trkpt>
      <trkpt lat="44.81708" lon="6.04063">
        <ele>1957.38</ele>
        <time>2020-08-17T13:12:47Z</time>
      </trkpt>
      <trkpt lat="44.81692" lon="6.04052">
        <ele>1954.02</ele>
        <time>2020-08-17T13:13:02Z</time>
      </trkpt>
      <trkpt lat="44.81678" lon="6.04046">
        <ele>1951.13</ele>
        <time>2020-08-17T13:13:17Z</time>
      </trkpt>
      <trkpt lat="44.81662" lon="6.04043">
        <ele>1947.77</ele>
        <time>2020-08-17T13:13:34Z</time>
      </trkpt>
      <trkpt lat="44.81651" lon="6.04031">
        <ele>1944.88</ele>
        <time>2020-08-17T13:13:47Z</time>
      </trkpt>
      <trkpt lat="44.81642" lon="6.04019">
        <ele>1942.96</ele>
        <time>2020-08-17T13:14:01Z</time>
      </trkpt>
      <trkpt lat="44.81642" lon="6.04016">
        <ele>1941.04</ele>
        <time>2020-08-17T13:14:21Z</time>
      </trkpt>
      <trkpt lat="44.81641" lon="6.04015">
        <ele>1940.56</ele>
        <time>2020-08-17T13:14:45Z</time>
      </trkpt>
      <trkpt lat="44.81641" lon="6.04014">
        <ele>1940.08</ele>
        <time>2020-08-17T13:15:17Z</time>
      </trkpt>
      <trkpt lat="44.81641" lon="6.04015">
        <ele>1940.08</ele>
        <time>2020-08-17T13:15:50Z</time>
      </trkpt>
      <trkpt lat="44.81641" lon="6.04015">
        <ele>1940.08</ele>
        <time>2020-08-17T13:16:22Z</time>
      </trkpt>
      <trkpt lat="44.81639" lon="6.04012">
        <ele>1939.6</ele>
        <time>2020-08-17T13:16:57Z</time>
      </trkpt>
      <trkpt lat="44.81639" lon="6.04011">
        <ele>1939.6</ele>
        <time>2020-08-17T13:17:24Z</time>
      </trkpt>
      <trkpt lat="44.81638" lon="6.04007">
        <ele>1939.6</ele>
        <time>2020-08-17T13:17:42Z</time>
      </trkpt>
      <trkpt lat="44.81639" lon="6.04004">
        <ele>1939.6</ele>
        <time>2020-08-17T13:17:58Z</time>
      </trkpt>
      <trkpt lat="44.81642" lon="6.04007">
        <ele>1939.6</ele>
        <time>2020-08-17T13:18:11Z</time>
      </trkpt>
      <trkpt lat="44.81644" lon="6.04009">
        <ele>1939.6</ele>
        <time>2020-08-17T13:18:48Z</time>
      </trkpt>
      <trkpt lat="44.8165" lon="6.04013">
        <ele>1939.6</ele>
        <time>2020-08-17T13:19:03Z</time>
      </trkpt>
      <trkpt lat="44.81653" lon="6.04014">
        <ele>1936.23</ele>
        <time>2020-08-17T13:19:07Z</time>
      </trkpt>
      <trkpt lat="44.81654" lon="6.04015">
        <ele>1936.23</ele>
        <time>2020-08-17T13:19:08Z</time>
      </trkpt>
      <trkpt lat="44.8166" lon="6.04018">
        <ele>1935.75</ele>
        <time>2020-08-17T13:19:21Z</time>
      </trkpt>
      <trkpt lat="44.81668" lon="6.04016">
        <ele>1934.79</ele>
        <time>2020-08-17T13:19:30Z</time>
      </trkpt>
      <trkpt lat="44.8168" lon="6.04012">
        <ele>1932.87</ele>
        <time>2020-08-17T13:19:46Z</time>
      </trkpt>
      <trkpt lat="44.817" lon="6.04008">
        <ele>1930.46</ele>
        <time>2020-08-17T13:20:07Z</time>
      </trkpt>
      <trkpt lat="44.81719" lon="6.04005">
        <ele>1927.58</ele>
        <time>2020-08-17T13:20:25Z</time>
      </trkpt>
      <trkpt lat="44.81735" lon="6.04003">
        <ele>1924.7</ele>
        <time>2020-08-17T13:20:40Z</time>
      </trkpt>
      <trkpt lat="44.81741" lon="6.04">
        <ele>1922.77</ele>
        <time>2020-08-17T13:20:47Z</time>
      </trkpt>
      <trkpt lat="44.81742" lon="6.03999">
        <ele>1922.77</ele>
        <time>2020-08-17T13:20:48Z</time>
      </trkpt>
      <trkpt lat="44.81756" lon="6.03989">
        <ele>1919.41</ele>
        <time>2020-08-17T13:21:02Z</time>
      </trkpt>
      <trkpt lat="44.8177" lon="6.03977">
        <ele>1917.01</ele>
        <time>2020-08-17T13:21:17Z</time>
      </trkpt>
      <trkpt lat="44.81785" lon="6.03967">
        <ele>1913.64</ele>
        <time>2020-08-17T13:21:32Z</time>
      </trkpt>
      <trkpt lat="44.8179" lon="6.03965">
        <ele>1912.2</ele>
        <time>2020-08-17T13:21:38Z</time>
      </trkpt>
      <trkpt lat="44.81792" lon="6.03965">
        <ele>1912.2</ele>
        <time>2020-08-17T13:21:40Z</time>
      </trkpt>
      <trkpt lat="44.81793" lon="6.03965">
        <ele>1912.2</ele>
        <time>2020-08-17T13:21:41Z</time>
      </trkpt>
      <trkpt lat="44.81795" lon="6.03964">
        <ele>1911.72</ele>
        <time>2020-08-17T13:21:43Z</time>
      </trkpt>
      <trkpt lat="44.81811" lon="6.03954">
        <ele>1908.83</ele>
        <time>2020-08-17T13:21:59Z</time>
      </trkpt>
      <trkpt lat="44.81822" lon="6.03946">
        <ele>1905.95</ele>
        <time>2020-08-17T13:22:14Z</time>
      </trkpt>
      <trkpt lat="44.81825" lon="6.03946">
        <ele>1904.51</ele>
        <time>2020-08-17T13:22:26Z</time>
      </trkpt>
      <trkpt lat="44.81827" lon="6.03945">
        <ele>1904.03</ele>
        <time>2020-08-17T13:22:28Z</time>
      </trkpt>
      <trkpt lat="44.81828" lon="6.03945">
        <ele>1904.03</ele>
        <time>2020-08-17T13:22:29Z</time>
      </trkpt>
      <trkpt lat="44.81829" lon="6.03945">
        <ele>1904.03</ele>
        <time>2020-08-17T13:22:30Z</time>
      </trkpt>
      <trkpt lat="44.8183" lon="6.03945">
        <ele>1904.03</ele>
        <time>2020-08-17T13:22:31Z</time>
      </trkpt>
      <trkpt lat="44.81832" lon="6.03945">
        <ele>1903.55</ele>
        <time>2020-08-17T13:22:32Z</time>
      </trkpt>
      <trkpt lat="44.81848" lon="6.03948">
        <ele>1900.18</ele>
        <time>2020-08-17T13:22:49Z</time>
      </trkpt>
      <trkpt lat="44.81859" lon="6.03949">
        <ele>1898.26</ele>
        <time>2020-08-17T13:23:04Z</time>
      </trkpt>
      <trkpt lat="44.81866" lon="6.03952">
        <ele>1897.3</ele>
        <time>2020-08-17T13:23:14Z</time>
      </trkpt>
      <trkpt lat="44.81866" lon="6.0395">
        <ele>1896.82</ele>
        <time>2020-08-17T13:23:19Z</time>
      </trkpt>
      <trkpt lat="44.81864" lon="6.03949">
        <ele>1896.82</ele>
        <time>2020-08-17T13:23:21Z</time>
      </trkpt>
      <trkpt lat="44.8186" lon="6.03943">
        <ele>1895.38</ele>
        <time>2020-08-17T13:23:28Z</time>
      </trkpt>
      <trkpt lat="44.8185" lon="6.03937">
        <ele>1893.93</ele>
        <time>2020-08-17T13:23:40Z</time>
      </trkpt>
      <trkpt lat="44.8185" lon="6.03936">
        <ele>1893.93</ele>
        <time>2020-08-17T13:23:41Z</time>
      </trkpt>
      <trkpt lat="44.81849" lon="6.03935">
        <ele>1893.45</ele>
        <time>2020-08-17T13:23:42Z</time>
      </trkpt>
      <trkpt lat="44.81848" lon="6.03933">
        <ele>1893.45</ele>
        <time>2020-08-17T13:23:43Z</time>
      </trkpt>
      <trkpt lat="44.81847" lon="6.03933">
        <ele>1893.45</ele>
        <time>2020-08-17T13:23:44Z</time>
      </trkpt>
      <trkpt lat="44.81846" lon="6.03932">
        <ele>1892.97</ele>
        <time>2020-08-17T13:23:45Z</time>
      </trkpt>
      <trkpt lat="44.8183" lon="6.03919">
        <ele>1890.09</ele>
        <time>2020-08-17T13:24:02Z</time>
      </trkpt>
      <trkpt lat="44.81811" lon="6.03917">
        <ele>1886.72</ele>
        <time>2020-08-17T13:24:21Z</time>
      </trkpt>
      <trkpt lat="44.81797" lon="6.03914">
        <ele>1883.84</ele>
        <time>2020-08-17T13:24:37Z</time>
      </trkpt>
      <trkpt lat="44.81793" lon="6.03913">
        <ele>1881.92</ele>
        <time>2020-08-17T13:24:48Z</time>
      </trkpt>
      <trkpt lat="44.81791" lon="6.03913">
        <ele>1881.92</ele>
        <time>2020-08-17T13:24:50Z</time>
      </trkpt>
      <trkpt lat="44.81789" lon="6.03913">
        <ele>1881.44</ele>
        <time>2020-08-17T13:24:51Z</time>
      </trkpt>
      <trkpt lat="44.81788" lon="6.03912">
        <ele>1881.44</ele>
        <time>2020-08-17T13:24:52Z</time>
      </trkpt>
      <trkpt lat="44.81771" lon="6.0391">
        <ele>1879.03</ele>
        <time>2020-08-17T13:25:08Z</time>
      </trkpt>
      <trkpt lat="44.81759" lon="6.03909">
        <ele>1876.63</ele>
        <time>2020-08-17T13:25:21Z</time>
      </trkpt>
      <trkpt lat="44.81755" lon="6.03911">
        <ele>1876.15</ele>
        <time>2020-08-17T13:25:25Z</time>
      </trkpt>
      <trkpt lat="44.81741" lon="6.0391">
        <ele>1874.23</ele>
        <time>2020-08-17T13:25:37Z</time>
      </trkpt>
      <trkpt lat="44.81741" lon="6.03907">
        <ele>1872.79</ele>
        <time>2020-08-17T13:25:45Z</time>
      </trkpt>
      <trkpt lat="44.81752" lon="6.03898">
        <ele>1870.38</ele>
        <time>2020-08-17T13:26:01Z</time>
      </trkpt>
      <trkpt lat="44.81766" lon="6.03888">
        <ele>1867.5</ele>
        <time>2020-08-17T13:26:17Z</time>
      </trkpt>
      <trkpt lat="44.81777" lon="6.03882">
        <ele>1865.58</ele>
        <time>2020-08-17T13:26:32Z</time>
      </trkpt>
      <trkpt lat="44.81793" lon="6.03873">
        <ele>1862.69</ele>
        <time>2020-08-17T13:26:51Z</time>
      </trkpt>
      <trkpt lat="44.8181" lon="6.03865">
        <ele>1859.81</ele>
        <time>2020-08-17T13:27:08Z</time>
      </trkpt>
      <trkpt lat="44.81824" lon="6.03856">
        <ele>1856.44</ele>
        <time>2020-08-17T13:27:25Z</time>
      </trkpt>
      <trkpt lat="44.81841" lon="6.03851">
        <ele>1853.56</ele>
        <time>2020-08-17T13:27:43Z</time>
      </trkpt>
      <trkpt lat="44.81854" lon="6.03845">
        <ele>1850.68</ele>
        <time>2020-08-17T13:27:58Z</time>
      </trkpt>
      <trkpt lat="44.81865" lon="6.0384">
        <ele>1847.79</ele>
        <time>2020-08-17T13:28:12Z</time>
      </trkpt>
      <trkpt lat="44.81871" lon="6.03841">
        <ele>1846.35</ele>
        <time>2020-08-17T13:28:20Z</time>
      </trkpt>
      <trkpt lat="44.81872" lon="6.0384">
        <ele>1846.35</ele>
        <time>2020-08-17T13:28:21Z</time>
      </trkpt>
      <trkpt lat="44.81883" lon="6.03843">
        <ele>1844.43</ele>
        <time>2020-08-17T13:28:35Z</time>
      </trkpt>
      <trkpt lat="44.81891" lon="6.03845">
        <ele>1842.5</ele>
        <time>2020-08-17T13:28:45Z</time>
      </trkpt>
      <trkpt lat="44.81892" lon="6.03846">
        <ele>1842.02</ele>
        <time>2020-08-17T13:28:46Z</time>
      </trkpt>
      <trkpt lat="44.81893" lon="6.03846">
        <ele>1842.02</ele>
        <time>2020-08-17T13:28:47Z</time>
      </trkpt>
      <trkpt lat="44.81904" lon="6.03841">
        <ele>1839.62</ele>
        <time>2020-08-17T13:29:02Z</time>
      </trkpt>
      <trkpt lat="44.81912" lon="6.03834">
        <ele>1837.7</ele>
        <time>2020-08-17T13:29:16Z</time>
      </trkpt>
      <trkpt lat="44.81917" lon="6.03833">
        <ele>1836.26</ele>
        <time>2020-08-17T13:29:28Z</time>
      </trkpt>
      <trkpt lat="44.81925" lon="6.0383">
        <ele>1834.81</ele>
        <time>2020-08-17T13:29:42Z</time>
      </trkpt>
      <trkpt lat="44.8194" lon="6.03824">
        <ele>1832.89</ele>
        <time>2020-08-17T13:29:59Z</time>
      </trkpt>
      <trkpt lat="44.81942" lon="6.03823">
        <ele>1832.41</ele>
        <time>2020-08-17T13:30:02Z</time>
      </trkpt>
      <trkpt lat="44.81943" lon="6.03823">
        <ele>1832.41</ele>
        <time>2020-08-17T13:30:03Z</time>
      </trkpt>
      <trkpt lat="44.81944" lon="6.03822">
        <ele>1832.41</ele>
        <time>2020-08-17T13:30:04Z</time>
      </trkpt>
      <trkpt lat="44.81945" lon="6.03821">
        <ele>1832.41</ele>
        <time>2020-08-17T13:30:05Z</time>
      </trkpt>
      <trkpt lat="44.81946" lon="6.0382">
        <ele>1831.93</ele>
        <time>2020-08-17T13:30:06Z</time>
      </trkpt>
      <trkpt lat="44.81947" lon="6.03819">
        <ele>1831.93</ele>
        <time>2020-08-17T13:30:07Z</time>
      </trkpt>
      <trkpt lat="44.81958" lon="6.03804">
        <ele>1829.53</ele>
        <time>2020-08-17T13:30:21Z</time>
      </trkpt>
      <trkpt lat="44.81971" lon="6.03791">
        <ele>1826.64</ele>
        <time>2020-08-17T13:30:39Z</time>
      </trkpt>
      <trkpt lat="44.81973" lon="6.03785">
        <ele>1824.72</ele>
        <time>2020-08-17T13:30:52Z</time>
      </trkpt>
      <trkpt lat="44.81966" lon="6.03783">
        <ele>1822.32</ele>
        <time>2020-08-17T13:31:07Z</time>
      </trkpt>
      <trkpt lat="44.81952" lon="6.03778">
        <ele>1819.43</ele>
        <time>2020-08-17T13:31:24Z</time>
      </trkpt>
      <trkpt lat="44.8194" lon="6.03772">
        <ele>1817.03</ele>
        <time>2020-08-17T13:31:40Z</time>
      </trkpt>
      <trkpt lat="44.81942" lon="6.0377">
        <ele>1816.55</ele>
        <time>2020-08-17T13:31:42Z</time>
      </trkpt>
      <trkpt lat="44.81942" lon="6.03768">
        <ele>1816.07</ele>
        <time>2020-08-17T13:31:43Z</time>
      </trkpt>
      <trkpt lat="44.81943" lon="6.03767">
        <ele>1816.07</ele>
        <time>2020-08-17T13:31:44Z</time>
      </trkpt>
      <trkpt lat="44.81951" lon="6.03755">
        <ele>1813.66</ele>
        <time>2020-08-17T13:31:57Z</time>
      </trkpt>
      <trkpt lat="44.81963" lon="6.03745">
        <ele>1811.26</ele>
        <time>2020-08-17T13:32:12Z</time>
      </trkpt>
      <trkpt lat="44.81972" lon="6.03738">
        <ele>1808.86</ele>
        <time>2020-08-17T13:32:26Z</time>
      </trkpt>
      <trkpt lat="44.81967" lon="6.03735">
        <ele>1807.9</ele>
        <time>2020-08-17T13:32:33Z</time>
      </trkpt>
      <trkpt lat="44.81962" lon="6.03731">
        <ele>1806.45</ele>
        <time>2020-08-17T13:32:39Z</time>
      </trkpt>
      <trkpt lat="44.81961" lon="6.03731">
        <ele>1806.45</ele>
        <time>2020-08-17T13:32:40Z</time>
      </trkpt>
      <trkpt lat="44.81947" lon="6.03724">
        <ele>1803.57</ele>
        <time>2020-08-17T13:32:56Z</time>
      </trkpt>
      <trkpt lat="44.81944" lon="6.03721">
        <ele>1803.09</ele>
        <time>2020-08-17T13:33:00Z</time>
      </trkpt>
      <trkpt lat="44.81939" lon="6.03717">
        <ele>1801.65</ele>
        <time>2020-08-17T13:33:06Z</time>
      </trkpt>
      <trkpt lat="44.81936" lon="6.03709">
        <ele>1799.73</ele>
        <time>2020-08-17T13:33:19Z</time>
      </trkpt>
      <trkpt lat="44.81945" lon="6.03705">
        <ele>1797.8</ele>
        <time>2020-08-17T13:33:31Z</time>
      </trkpt>
      <trkpt lat="44.81945" lon="6.03705">
        <ele>1797.8</ele>
        <time>2020-08-17T13:33:32Z</time>
      </trkpt>
      <trkpt lat="44.81947" lon="6.03704">
        <ele>1797.32</ele>
        <time>2020-08-17T13:33:33Z</time>
      </trkpt>
      <trkpt lat="44.81948" lon="6.03704">
        <ele>1797.32</ele>
        <time>2020-08-17T13:33:34Z</time>
      </trkpt>
      <trkpt lat="44.81948" lon="6.03703">
        <ele>1796.84</ele>
        <time>2020-08-17T13:33:35Z</time>
      </trkpt>
      <trkpt lat="44.81949" lon="6.03702">
        <ele>1796.84</ele>
        <time>2020-08-17T13:33:36Z</time>
      </trkpt>
      <trkpt lat="44.81959" lon="6.03693">
        <ele>1795.4</ele>
        <time>2020-08-17T13:33:48Z</time>
      </trkpt>
      <trkpt lat="44.81963" lon="6.03689">
        <ele>1794.44</ele>
        <time>2020-08-17T13:33:53Z</time>
      </trkpt>
      <trkpt lat="44.81977" lon="6.03681">
        <ele>1791.55</ele>
        <time>2020-08-17T13:34:08Z</time>
      </trkpt>
      <trkpt lat="44.81973" lon="6.03679">
        <ele>1790.59</ele>
        <time>2020-08-17T13:34:12Z</time>
      </trkpt>
      <trkpt lat="44.81972" lon="6.03679">
        <ele>1790.59</ele>
        <time>2020-08-17T13:34:13Z</time>
      </trkpt>
      <trkpt lat="44.81958" lon="6.0367">
        <ele>1787.71</ele>
        <time>2020-08-17T13:34:28Z</time>
      </trkpt>
      <trkpt lat="44.81958" lon="6.03669">
        <ele>1787.23</ele>
        <time>2020-08-17T13:34:29Z</time>
      </trkpt>
      <trkpt lat="44.81955" lon="6.03657">
        <ele>1785.31</ele>
        <time>2020-08-17T13:34:40Z</time>
      </trkpt>
      <trkpt lat="44.81953" lon="6.03648">
        <ele>1784.34</ele>
        <time>2020-08-17T13:34:47Z</time>
      </trkpt>
      <trkpt lat="44.81943" lon="6.03637">
        <ele>1781.46</ele>
        <time>2020-08-17T13:35:02Z</time>
      </trkpt>
      <trkpt lat="44.81939" lon="6.03632">
        <ele>1780.5</ele>
        <time>2020-08-17T13:35:07Z</time>
      </trkpt>
      <trkpt lat="44.81937" lon="6.03628">
        <ele>1779.54</ele>
        <time>2020-08-17T13:35:11Z</time>
      </trkpt>
      <trkpt lat="44.81936" lon="6.03627">
        <ele>1779.54</ele>
        <time>2020-08-17T13:35:12Z</time>
      </trkpt>
      <trkpt lat="44.81928" lon="6.03613">
        <ele>1776.65</ele>
        <time>2020-08-17T13:35:24Z</time>
      </trkpt>
      <trkpt lat="44.81924" lon="6.03609">
        <ele>1776.17</ele>
        <time>2020-08-17T13:35:29Z</time>
      </trkpt>
      <trkpt lat="44.8192" lon="6.03605">
        <ele>1775.21</ele>
        <time>2020-08-17T13:35:34Z</time>
      </trkpt>
      <trkpt lat="44.81908" lon="6.03598">
        <ele>1772.33</ele>
        <time>2020-08-17T13:35:52Z</time>
      </trkpt>
      <trkpt lat="44.81913" lon="6.03595">
        <ele>1771.37</ele>
        <time>2020-08-17T13:35:59Z</time>
      </trkpt>
      <trkpt lat="44.81922" lon="6.03583">
        <ele>1768.96</ele>
        <time>2020-08-17T13:36:16Z</time>
      </trkpt>
      <trkpt lat="44.81926" lon="6.03576">
        <ele>1767.52</ele>
        <time>2020-08-17T13:36:22Z</time>
      </trkpt>
      <trkpt lat="44.81926" lon="6.03575">
        <ele>1767.52</ele>
        <time>2020-08-17T13:36:23Z</time>
      </trkpt>
      <trkpt lat="44.81928" lon="6.03572">
        <ele>1767.04</ele>
        <time>2020-08-17T13:36:25Z</time>
      </trkpt>
      <trkpt lat="44.81938" lon="6.03563">
        <ele>1765.12</ele>
        <time>2020-08-17T13:36:36Z</time>
      </trkpt>
      <trkpt lat="44.81939" lon="6.03562">
        <ele>1764.64</ele>
        <time>2020-08-17T13:36:37Z</time>
      </trkpt>
      <trkpt lat="44.8194" lon="6.03562">
        <ele>1764.64</ele>
        <time>2020-08-17T13:36:38Z</time>
      </trkpt>
      <trkpt lat="44.81958" lon="6.03559">
        <ele>1761.75</ele>
        <time>2020-08-17T13:36:55Z</time>
      </trkpt>
      <trkpt lat="44.81959" lon="6.03558">
        <ele>1761.27</ele>
        <time>2020-08-17T13:36:56Z</time>
      </trkpt>
      <trkpt lat="44.8196" lon="6.03558">
        <ele>1761.27</ele>
        <time>2020-08-17T13:36:57Z</time>
      </trkpt>
      <trkpt lat="44.81961" lon="6.03558">
        <ele>1761.27</ele>
        <time>2020-08-17T13:36:58Z</time>
      </trkpt>
      <trkpt lat="44.81962" lon="6.03558">
        <ele>1760.79</ele>
        <time>2020-08-17T13:36:59Z</time>
      </trkpt>
      <trkpt lat="44.81967" lon="6.03555">
        <ele>1757.91</ele>
        <time>2020-08-17T13:37:05Z</time>
      </trkpt>
      <trkpt lat="44.81971" lon="6.03553">
        <ele>1754.54</ele>
        <time>2020-08-17T13:37:09Z</time>
      </trkpt>
      <trkpt lat="44.81979" lon="6.03546">
        <ele>1756.47</ele>
        <time>2020-08-17T13:37:22Z</time>
      </trkpt>
      <trkpt lat="44.81978" lon="6.03543">
        <ele>1754.54</ele>
        <time>2020-08-17T13:37:33Z</time>
      </trkpt>
      <trkpt lat="44.81973" lon="6.03538">
        <ele>1754.06</ele>
        <time>2020-08-17T13:37:39Z</time>
      </trkpt>
      <trkpt lat="44.81972" lon="6.03538">
        <ele>1754.06</ele>
        <time>2020-08-17T13:37:40Z</time>
      </trkpt>
      <trkpt lat="44.81971" lon="6.03537">
        <ele>1753.58</ele>
        <time>2020-08-17T13:37:41Z</time>
      </trkpt>
      <trkpt lat="44.81957" lon="6.03526">
        <ele>1752.14</ele>
        <time>2020-08-17T13:37:58Z</time>
      </trkpt>
      <trkpt lat="44.81952" lon="6.03519">
        <ele>1750.22</ele>
        <time>2020-08-17T13:38:07Z</time>
      </trkpt>
      <trkpt lat="44.81946" lon="6.03516">
        <ele>1748.78</ele>
        <time>2020-08-17T13:38:14Z</time>
      </trkpt>
      <trkpt lat="44.81943" lon="6.03514">
        <ele>1748.78</ele>
        <time>2020-08-17T13:38:17Z</time>
      </trkpt>
      <trkpt lat="44.81937" lon="6.0351">
        <ele>1752.62</ele>
        <time>2020-08-17T13:38:24Z</time>
      </trkpt>
      <trkpt lat="44.8192" lon="6.03509">
        <ele>1749.74</ele>
        <time>2020-08-17T13:38:40Z</time>
      </trkpt>
      <trkpt lat="44.81916" lon="6.03506">
        <ele>1749.26</ele>
        <time>2020-08-17T13:38:42Z</time>
      </trkpt>
      <trkpt lat="44.81894" lon="6.03495">
        <ele>1747.81</ele>
        <time>2020-08-17T13:38:58Z</time>
      </trkpt>
      <trkpt lat="44.81877" lon="6.03485">
        <ele>1745.89</ele>
        <time>2020-08-17T13:39:15Z</time>
      </trkpt>
      <trkpt lat="44.81866" lon="6.0348">
        <ele>1744.45</ele>
        <time>2020-08-17T13:39:32Z</time>
      </trkpt>
      <trkpt lat="44.81853" lon="6.03468">
        <ele>1743.01</ele>
        <time>2020-08-17T13:39:53Z</time>
      </trkpt>
      <trkpt lat="44.81844" lon="6.03462">
        <ele>1741.57</ele>
        <time>2020-08-17T13:40:08Z</time>
      </trkpt>
      <trkpt lat="44.81842" lon="6.03461">
        <ele>1741.57</ele>
        <time>2020-08-17T13:40:32Z</time>
      </trkpt>
      <trkpt lat="44.8184" lon="6.03458">
        <ele>1741.57</ele>
        <time>2020-08-17T13:40:57Z</time>
      </trkpt>
      <trkpt lat="44.8184" lon="6.03459">
        <ele>1741.08</ele>
        <time>2020-08-17T13:41:22Z</time>
      </trkpt>
      <trkpt lat="44.81841" lon="6.0346">
        <ele>1741.57</ele>
        <time>2020-08-17T13:41:48Z</time>
      </trkpt>
      <trkpt lat="44.81841" lon="6.03459">
        <ele>1741.57</ele>
        <time>2020-08-17T13:42:18Z</time>
      </trkpt>
      <trkpt lat="44.81841" lon="6.03457">
        <ele>1741.57</ele>
        <time>2020-08-17T13:42:49Z</time>
      </trkpt>
      <trkpt lat="44.8184" lon="6.03453">
        <ele>1741.57</ele>
        <time>2020-08-17T13:43:07Z</time>
      </trkpt>
      <trkpt lat="44.81838" lon="6.03451">
        <ele>1741.57</ele>
        <time>2020-08-17T13:43:09Z</time>
      </trkpt>
      <trkpt lat="44.81838" lon="6.0345">
        <ele>1741.57</ele>
        <time>2020-08-17T13:43:10Z</time>
      </trkpt>
      <trkpt lat="44.8183" lon="6.03436">
        <ele>1739.64</ele>
        <time>2020-08-17T13:43:26Z</time>
      </trkpt>
      <trkpt lat="44.81831" lon="6.03435">
        <ele>1739.64</ele>
        <time>2020-08-17T13:43:27Z</time>
      </trkpt>
      <trkpt lat="44.81835" lon="6.03434">
        <ele>1739.16</ele>
        <time>2020-08-17T13:43:31Z</time>
      </trkpt>
      <trkpt lat="44.81836" lon="6.03434">
        <ele>1739.16</ele>
        <time>2020-08-17T13:43:32Z</time>
      </trkpt>
      <trkpt lat="44.81837" lon="6.03433">
        <ele>1739.16</ele>
        <time>2020-08-17T13:43:33Z</time>
      </trkpt>
      <trkpt lat="44.81838" lon="6.03432">
        <ele>1738.68</ele>
        <time>2020-08-17T13:43:34Z</time>
      </trkpt>
      <trkpt lat="44.81839" lon="6.03432">
        <ele>1738.68</ele>
        <time>2020-08-17T13:43:35Z</time>
      </trkpt>
      <trkpt lat="44.8184" lon="6.03431">
        <ele>1738.68</ele>
        <time>2020-08-17T13:43:36Z</time>
      </trkpt>
      <trkpt lat="44.81841" lon="6.0343">
        <ele>1738.2</ele>
        <time>2020-08-17T13:43:37Z</time>
      </trkpt>
      <trkpt lat="44.81844" lon="6.03426">
        <ele>1738.2</ele>
        <time>2020-08-17T13:43:41Z</time>
      </trkpt>
      <trkpt lat="44.81845" lon="6.03426">
        <ele>1738.2</ele>
        <time>2020-08-17T13:43:42Z</time>
      </trkpt>
      <trkpt lat="44.81857" lon="6.03418">
        <ele>1737.24</ele>
        <time>2020-08-17T13:43:54Z</time>
      </trkpt>
      <trkpt lat="44.81862" lon="6.03419">
        <ele>1736.76</ele>
        <time>2020-08-17T13:44:01Z</time>
      </trkpt>
      <trkpt lat="44.81867" lon="6.03417">
        <ele>1736.28</ele>
        <time>2020-08-17T13:44:07Z</time>
      </trkpt>
      <trkpt lat="44.81869" lon="6.03417">
        <ele>1736.28</ele>
        <time>2020-08-17T13:44:08Z</time>
      </trkpt>
      <trkpt lat="44.8187" lon="6.03416">
        <ele>1735.8</ele>
        <time>2020-08-17T13:44:09Z</time>
      </trkpt>
      <trkpt lat="44.81877" lon="6.03413">
        <ele>1735.32</ele>
        <time>2020-08-17T13:44:17Z</time>
      </trkpt>
      <trkpt lat="44.81878" lon="6.03412">
        <ele>1735.32</ele>
        <time>2020-08-17T13:44:18Z</time>
      </trkpt>
      <trkpt lat="44.8188" lon="6.03412">
        <ele>1735.32</ele>
        <time>2020-08-17T13:44:19Z</time>
      </trkpt>
      <trkpt lat="44.81881" lon="6.03412">
        <ele>1734.84</ele>
        <time>2020-08-17T13:44:20Z</time>
      </trkpt>
      <trkpt lat="44.81882" lon="6.03412">
        <ele>1734.84</ele>
        <time>2020-08-17T13:44:21Z</time>
      </trkpt>
      <trkpt lat="44.81885" lon="6.03412">
        <ele>1734.84</ele>
        <time>2020-08-17T13:44:24Z</time>
      </trkpt>
      <trkpt lat="44.81892" lon="6.0341">
        <ele>1733.39</ele>
        <time>2020-08-17T13:44:35Z</time>
      </trkpt>
      <trkpt lat="44.81894" lon="6.0341">
        <ele>1733.39</ele>
        <time>2020-08-17T13:44:36Z</time>
      </trkpt>
      <trkpt lat="44.81895" lon="6.0341">
        <ele>1733.39</ele>
        <time>2020-08-17T13:44:37Z</time>
      </trkpt>
      <trkpt lat="44.81896" lon="6.03409">
        <ele>1732.91</ele>
        <time>2020-08-17T13:44:38Z</time>
      </trkpt>
      <trkpt lat="44.81897" lon="6.03408">
        <ele>1732.91</ele>
        <time>2020-08-17T13:44:39Z</time>
      </trkpt>
      <trkpt lat="44.8191" lon="6.03389">
        <ele>1730.51</ele>
        <time>2020-08-17T13:44:57Z</time>
      </trkpt>
      <trkpt lat="44.81919" lon="6.03377">
        <ele>1728.11</ele>
        <time>2020-08-17T13:45:12Z</time>
      </trkpt>
      <trkpt lat="44.8192" lon="6.03376">
        <ele>1727.63</ele>
        <time>2020-08-17T13:45:13Z</time>
      </trkpt>
      <trkpt lat="44.81921" lon="6.03376">
        <ele>1727.63</ele>
        <time>2020-08-17T13:45:14Z</time>
      </trkpt>
      <trkpt lat="44.81923" lon="6.03375">
        <ele>1727.63</ele>
        <time>2020-08-17T13:45:15Z</time>
      </trkpt>
      <trkpt lat="44.81935" lon="6.03365">
        <ele>1724.26</ele>
        <time>2020-08-17T13:45:30Z</time>
      </trkpt>
      <trkpt lat="44.81939" lon="6.03365">
        <ele>1723.3</ele>
        <time>2020-08-17T13:45:38Z</time>
      </trkpt>
      <trkpt lat="44.81941" lon="6.03365">
        <ele>1723.3</ele>
        <time>2020-08-17T13:45:40Z</time>
      </trkpt>
      <trkpt lat="44.81942" lon="6.03365">
        <ele>1723.3</ele>
        <time>2020-08-17T13:45:41Z</time>
      </trkpt>
      <trkpt lat="44.81944" lon="6.03366">
        <ele>1722.82</ele>
        <time>2020-08-17T13:45:42Z</time>
      </trkpt>
      <trkpt lat="44.81949" lon="6.03365">
        <ele>1721.38</ele>
        <time>2020-08-17T13:45:52Z</time>
      </trkpt>
      <trkpt lat="44.81939" lon="6.03358">
        <ele>1718.49</ele>
        <time>2020-08-17T13:46:07Z</time>
      </trkpt>
      <trkpt lat="44.81924" lon="6.03348">
        <ele>1715.61</ele>
        <time>2020-08-17T13:46:26Z</time>
      </trkpt>
      <trkpt lat="44.81918" lon="6.03338">
        <ele>1712.25</ele>
        <time>2020-08-17T13:46:45Z</time>
      </trkpt>
      <trkpt lat="44.81931" lon="6.03326">
        <ele>1709.36</ele>
        <time>2020-08-17T13:47:03Z</time>
      </trkpt>
      <trkpt lat="44.81935" lon="6.03326">
        <ele>1708.4</ele>
        <time>2020-08-17T13:47:08Z</time>
      </trkpt>
      <trkpt lat="44.81947" lon="6.03324">
        <ele>1706.48</ele>
        <time>2020-08-17T13:47:19Z</time>
      </trkpt>
      <trkpt lat="44.81957" lon="6.03316">
        <ele>1704.55</ele>
        <time>2020-08-17T13:47:32Z</time>
      </trkpt>
      <trkpt lat="44.81946" lon="6.03313">
        <ele>1702.63</ele>
        <time>2020-08-17T13:47:52Z</time>
      </trkpt>
      <trkpt lat="44.8194" lon="6.03311">
        <ele>1701.67</ele>
        <time>2020-08-17T13:48:00Z</time>
      </trkpt>
      <trkpt lat="44.81931" lon="6.03302">
        <ele>1698.79</ele>
        <time>2020-08-17T13:48:17Z</time>
      </trkpt>
      <trkpt lat="44.81933" lon="6.03299">
        <ele>1695.9</ele>
        <time>2020-08-17T13:48:24Z</time>
      </trkpt>
      <trkpt lat="44.81935" lon="6.033">
        <ele>1693.02</ele>
        <time>2020-08-17T13:48:28Z</time>
      </trkpt>
      <trkpt lat="44.81936" lon="6.033">
        <ele>1691.58</ele>
        <time>2020-08-17T13:48:30Z</time>
      </trkpt>
      <trkpt lat="44.81938" lon="6.03301">
        <ele>1694.94</ele>
        <time>2020-08-17T13:48:34Z</time>
      </trkpt>
      <trkpt lat="44.81952" lon="6.03294">
        <ele>1693.5</ele>
        <time>2020-08-17T13:48:49Z</time>
      </trkpt>
      <trkpt lat="44.81953" lon="6.03293">
        <ele>1693.5</ele>
        <time>2020-08-17T13:48:50Z</time>
      </trkpt>
      <trkpt lat="44.81966" lon="6.03271">
        <ele>1690.62</ele>
        <time>2020-08-17T13:49:07Z</time>
      </trkpt>
      <trkpt lat="44.81978" lon="6.03258">
        <ele>1687.73</ele>
        <time>2020-08-17T13:49:23Z</time>
      </trkpt>
      <trkpt lat="44.81983" lon="6.03251">
        <ele>1686.29</ele>
        <time>2020-08-17T13:49:30Z</time>
      </trkpt>
      <trkpt lat="44.81982" lon="6.03251">
        <ele>1685.81</ele>
        <time>2020-08-17T13:49:31Z</time>
      </trkpt>
      <trkpt lat="44.81981" lon="6.0325">
        <ele>1685.81</ele>
        <time>2020-08-17T13:49:32Z</time>
      </trkpt>
      <trkpt lat="44.8198" lon="6.0325">
        <ele>1685.81</ele>
        <time>2020-08-17T13:49:33Z</time>
      </trkpt>
      <trkpt lat="44.81967" lon="6.03252">
        <ele>1682.44</ele>
        <time>2020-08-17T13:49:47Z</time>
      </trkpt>
      <trkpt lat="44.81965" lon="6.03252">
        <ele>1681.96</ele>
        <time>2020-08-17T13:49:49Z</time>
      </trkpt>
      <trkpt lat="44.8196" lon="6.03254">
        <ele>1683.41</ele>
        <time>2020-08-17T13:49:56Z</time>
      </trkpt>
      <trkpt lat="44.81949" lon="6.03259">
        <ele>1680.04</ele>
        <time>2020-08-17T13:50:08Z</time>
      </trkpt>
      <trkpt lat="44.81948" lon="6.03258">
        <ele>1679.56</ele>
        <time>2020-08-17T13:50:09Z</time>
      </trkpt>
      <trkpt lat="44.81935" lon="6.03248">
        <ele>1678.12</ele>
        <time>2020-08-17T13:50:20Z</time>
      </trkpt>
      <trkpt lat="44.81931" lon="6.03247">
        <ele>1677.64</ele>
        <time>2020-08-17T13:50:24Z</time>
      </trkpt>
      <trkpt lat="44.81921" lon="6.03249">
        <ele>1675.23</ele>
        <time>2020-08-17T13:50:39Z</time>
      </trkpt>
      <trkpt lat="44.8191" lon="6.03249">
        <ele>1672.83</ele>
        <time>2020-08-17T13:51:03Z</time>
      </trkpt>
      <trkpt lat="44.81922" lon="6.03224">
        <ele>1669.95</ele>
        <time>2020-08-17T13:51:25Z</time>
      </trkpt>
      <trkpt lat="44.81933" lon="6.03216">
        <ele>1666.58</ele>
        <time>2020-08-17T13:51:39Z</time>
      </trkpt>
      <trkpt lat="44.81941" lon="6.03204">
        <ele>1665.14</ele>
        <time>2020-08-17T13:51:48Z</time>
      </trkpt>
      <trkpt lat="44.81943" lon="6.03203">
        <ele>1665.14</ele>
        <time>2020-08-17T13:51:49Z</time>
      </trkpt>
      <trkpt lat="44.81944" lon="6.03201">
        <ele>1665.14</ele>
        <time>2020-08-17T13:51:50Z</time>
      </trkpt>
      <trkpt lat="44.81954" lon="6.03182">
        <ele>1662.74</ele>
        <time>2020-08-17T13:52:06Z</time>
      </trkpt>
      <trkpt lat="44.81962" lon="6.0317">
        <ele>1659.85</ele>
        <time>2020-08-17T13:52:24Z</time>
      </trkpt>
      <trkpt lat="44.81954" lon="6.03183">
        <ele>1656.97</ele>
        <time>2020-08-17T13:52:43Z</time>
      </trkpt>
      <trkpt lat="44.81943" lon="6.03182">
        <ele>1653.6</ele>
        <time>2020-08-17T13:53:03Z</time>
      </trkpt>
      <trkpt lat="44.81945" lon="6.0317">
        <ele>1650.24</ele>
        <time>2020-08-17T13:53:17Z</time>
      </trkpt>
      <trkpt lat="44.81942" lon="6.03163">
        <ele>1646.88</ele>
        <time>2020-08-17T13:53:30Z</time>
      </trkpt>
      <trkpt lat="44.81938" lon="6.0315">
        <ele>1643.99</ele>
        <time>2020-08-17T13:53:42Z</time>
      </trkpt>
      <trkpt lat="44.81938" lon="6.03138">
        <ele>1640.63</ele>
        <time>2020-08-17T13:53:53Z</time>
      </trkpt>
      <trkpt lat="44.81943" lon="6.03124">
        <ele>1637.74</ele>
        <time>2020-08-17T13:54:05Z</time>
      </trkpt>
      <trkpt lat="44.81952" lon="6.03113">
        <ele>1634.38</ele>
        <time>2020-08-17T13:54:16Z</time>
      </trkpt>
      <trkpt lat="44.81944" lon="6.03115">
        <ele>1631.49</ele>
        <time>2020-08-17T13:54:31Z</time>
      </trkpt>
      <trkpt lat="44.8194" lon="6.03111">
        <ele>1628.61</ele>
        <time>2020-08-17T13:54:43Z</time>
      </trkpt>
      <trkpt lat="44.81943" lon="6.03105">
        <ele>1625.73</ele>
        <time>2020-08-17T13:54:58Z</time>
      </trkpt>
      <trkpt lat="44.8195" lon="6.03093">
        <ele>1623.8</ele>
        <time>2020-08-17T13:55:13Z</time>
      </trkpt>
      <trkpt lat="44.81954" lon="6.03088">
        <ele>1622.84</ele>
        <time>2020-08-17T13:55:18Z</time>
      </trkpt>
      <trkpt lat="44.81956" lon="6.03084">
        <ele>1622.36</ele>
        <time>2020-08-17T13:55:21Z</time>
      </trkpt>
      <trkpt lat="44.81957" lon="6.03082">
        <ele>1622.36</ele>
        <time>2020-08-17T13:55:23Z</time>
      </trkpt>
      <trkpt lat="44.81958" lon="6.03081">
        <ele>1622.36</ele>
        <time>2020-08-17T13:55:24Z</time>
      </trkpt>
      <trkpt lat="44.81959" lon="6.0308">
        <ele>1621.88</ele>
        <time>2020-08-17T13:55:25Z</time>
      </trkpt>
      <trkpt lat="44.81959" lon="6.03079">
        <ele>1621.88</ele>
        <time>2020-08-17T13:55:26Z</time>
      </trkpt>
      <trkpt lat="44.81966" lon="6.03068">
        <ele>1619.96</ele>
        <time>2020-08-17T13:55:35Z</time>
      </trkpt>
      <trkpt lat="44.81976" lon="6.03061">
        <ele>1617.56</ele>
        <time>2020-08-17T13:55:48Z</time>
      </trkpt>
      <trkpt lat="44.8198" lon="6.0306">
        <ele>1616.59</ele>
        <time>2020-08-17T13:55:51Z</time>
      </trkpt>
      <trkpt lat="44.81984" lon="6.03049">
        <ele>1613.71</ele>
        <time>2020-08-17T13:56:03Z</time>
      </trkpt>
      <trkpt lat="44.81991" lon="6.03039">
        <ele>1611.79</ele>
        <time>2020-08-17T13:56:11Z</time>
      </trkpt>
      <trkpt lat="44.81993" lon="6.03037">
        <ele>1610.83</ele>
        <time>2020-08-17T13:56:13Z</time>
      </trkpt>
      <trkpt lat="44.81994" lon="6.03035">
        <ele>1610.35</ele>
        <time>2020-08-17T13:56:14Z</time>
      </trkpt>
      <trkpt lat="44.82" lon="6.03028">
        <ele>1608.42</ele>
        <time>2020-08-17T13:56:21Z</time>
      </trkpt>
      <trkpt lat="44.81992" lon="6.03015">
        <ele>1605.06</ele>
        <time>2020-08-17T13:56:38Z</time>
      </trkpt>
      <trkpt lat="44.81991" lon="6.03008">
        <ele>1603.62</ele>
        <time>2020-08-17T13:56:45Z</time>
      </trkpt>
      <trkpt lat="44.81988" lon="6.02996">
        <ele>1599.77</ele>
        <time>2020-08-17T13:56:56Z</time>
      </trkpt>
      <trkpt lat="44.81985" lon="6.02992">
        <ele>1597.85</ele>
        <time>2020-08-17T13:57:03Z</time>
      </trkpt>
      <trkpt lat="44.81983" lon="6.02987">
        <ele>1596.41</ele>
        <time>2020-08-17T13:57:07Z</time>
      </trkpt>
      <trkpt lat="44.81969" lon="6.02992">
        <ele>1593.52</ele>
        <time>2020-08-17T13:57:23Z</time>
      </trkpt>
      <trkpt lat="44.81957" lon="6.03">
        <ele>1591.6</ele>
        <time>2020-08-17T13:57:39Z</time>
      </trkpt>
      <trkpt lat="44.81941" lon="6.03012">
        <ele>1589.2</ele>
        <time>2020-08-17T13:57:58Z</time>
      </trkpt>
      <trkpt lat="44.81925" lon="6.03014">
        <ele>1586.31</ele>
        <time>2020-08-17T13:58:15Z</time>
      </trkpt>
      <trkpt lat="44.81907" lon="6.03008">
        <ele>1583.43</ele>
        <time>2020-08-17T13:58:32Z</time>
      </trkpt>
      <trkpt lat="44.81897" lon="6.03009">
        <ele>1581.99</ele>
        <time>2020-08-17T13:58:39Z</time>
      </trkpt>
      <trkpt lat="44.81881" lon="6.03019">
        <ele>1580.06</ele>
        <time>2020-08-17T13:58:56Z</time>
      </trkpt>
      <trkpt lat="44.81861" lon="6.03028">
        <ele>1577.18</ele>
        <time>2020-08-17T13:59:14Z</time>
      </trkpt>
      <trkpt lat="44.81842" lon="6.03034">
        <ele>1574.78</ele>
        <time>2020-08-17T13:59:34Z</time>
      </trkpt>
      <trkpt lat="44.81834" lon="6.03023">
        <ele>1574.3</ele>
        <time>2020-08-17T13:59:43Z</time>
      </trkpt>
      <trkpt lat="44.81815" lon="6.02981">
        <ele>1572.37</ele>
        <time>2020-08-17T14:00:10Z</time>
      </trkpt>
      <trkpt lat="44.81814" lon="6.02974">
        <ele>1572.37</ele>
        <time>2020-08-17T14:00:14Z</time>
      </trkpt>
      <trkpt lat="44.8181" lon="6.02942">
        <ele>1569.97</ele>
        <time>2020-08-17T14:00:31Z</time>
      </trkpt>
      <trkpt lat="44.81803" lon="6.02917">
        <ele>1568.05</ele>
        <time>2020-08-17T14:00:46Z</time>
      </trkpt>
      <trkpt lat="44.81801" lon="6.02901">
        <ele>1565.16</ele>
        <time>2020-08-17T14:01:02Z</time>
      </trkpt>
      <trkpt lat="44.81792" lon="6.02887">
        <ele>1561.8</ele>
        <time>2020-08-17T14:01:18Z</time>
      </trkpt>
      <trkpt lat="44.8178" lon="6.02872">
        <ele>1558.92</ele>
        <time>2020-08-17T14:01:35Z</time>
      </trkpt>
      <trkpt lat="44.8177" lon="6.02855">
        <ele>1555.55</ele>
        <time>2020-08-17T14:01:56Z</time>
      </trkpt>
      <trkpt lat="44.81754" lon="6.02821">
        <ele>1552.67</ele>
        <time>2020-08-17T14:02:21Z</time>
      </trkpt>
      <trkpt lat="44.81744" lon="6.02805">
        <ele>1549.3</ele>
        <time>2020-08-17T14:02:37Z</time>
      </trkpt>
      <trkpt lat="44.81739" lon="6.02795">
        <ele>1546.9</ele>
        <time>2020-08-17T14:02:46Z</time>
      </trkpt>
      <trkpt lat="44.81722" lon="6.02771">
        <ele>1544.01</ele>
        <time>2020-08-17T14:03:11Z</time>
      </trkpt>
      <trkpt lat="44.81708" lon="6.02756">
        <ele>1541.13</ele>
        <time>2020-08-17T14:03:27Z</time>
      </trkpt>
      <trkpt lat="44.81693" lon="6.02726">
        <ele>1537.77</ele>
        <time>2020-08-17T14:03:47Z</time>
      </trkpt>
      <trkpt lat="44.81684" lon="6.02707">
        <ele>1534.4</ele>
        <time>2020-08-17T14:04:02Z</time>
      </trkpt>
      <trkpt lat="44.81675" lon="6.0269">
        <ele>1531.52</ele>
        <time>2020-08-17T14:04:16Z</time>
      </trkpt>
      <trkpt lat="44.81664" lon="6.0266">
        <ele>1528.63</ele>
        <time>2020-08-17T14:04:38Z</time>
      </trkpt>
      <trkpt lat="44.8166" lon="6.02653">
        <ele>1527.67</ele>
        <time>2020-08-17T14:04:43Z</time>
      </trkpt>
      <trkpt lat="44.81649" lon="6.0263">
        <ele>1526.71</ele>
        <time>2020-08-17T14:05:00Z</time>
      </trkpt>
      <trkpt lat="44.81639" lon="6.02608">
        <ele>1524.31</ele>
        <time>2020-08-17T14:05:18Z</time>
      </trkpt>
      <trkpt lat="44.81636" lon="6.02601">
        <ele>1523.35</ele>
        <time>2020-08-17T14:05:24Z</time>
      </trkpt>
      <trkpt lat="44.8163" lon="6.02591">
        <ele>1519.98</ele>
        <time>2020-08-17T14:05:35Z</time>
      </trkpt>
      <trkpt lat="44.81626" lon="6.02585">
        <ele>1517.1</ele>
        <time>2020-08-17T14:05:42Z</time>
      </trkpt>
      <trkpt lat="44.81633" lon="6.02576">
        <ele>1516.62</ele>
        <time>2020-08-17T14:05:57Z</time>
      </trkpt>
      <trkpt lat="44.81633" lon="6.02576">
        <ele>1516.62</ele>
        <time>2020-08-17T14:06:07Z</time>
      </trkpt>
    </trkseg>
  </trk>
</gpx>